[[[{"header":{"parameterUnit":"kt","parameterCategory":2,"dx":1,"dy":1,"la1":29.285339999999998,"la2":30.599998999999997,"lo1":-89.70041500000002,"lo2":-87.6738589999976,"nx":112,"ny":82,"refTime":"2022-10-27T06:00:00:Z","depth":0,"parameterNumber":1,"parameterNumberName":"U-component_of_WINDS"},"data":[-4.0331,-3.7269,-3.3211,-2.928,-3.0111,-3.2125,-3.247,-3.2502,-3.3173,-3.5465,-3.4759,-3.418,-3.5636,-3.4862,-3.3642,-3.2853,-3.1398,-3.0035,0.0,-3.1401,-3.4004,-3.6722,0.0,0.0,0.0,-5.346,-5.8043,-6.9423,-6.1783,-6.7435,-9.229,-10.0463,-10.422,-10.4174,-10.407,-10.4147,-10.4117,-10.4797,-10.6905,-11.0366,-11.054,-11.2596,-11.5843,-11.9883,-12.2432,-12.4198,-12.786,-12.9494,-12.9494,-12.9494,-12.9494,-12.9841,-13.3858,-13.5776,-13.7149,-14.1059,-14.3701,-14.5706,-14.7617,-15.217,-15.7279,-15.7279,-15.9345,-16.1689,-16.1803,-16.2141,-16.2509,-16.2617,-16.3114,-16.3497,-16.3497,-16.3497,-16.3716,-16.4738,-16.7703,-17.0642,-17.2329,-17.5531,-17.8215,-17.8887,-17.9047,-17.9047,-17.9047,-17.9047,-17.9091,-17.9327,-18.0324,-18.0734,-17.9862,-18.0744,-18.0986,-17.9923,-17.9772,-18.0074,-18.0543,-18.2461,-18.4594,-18.6866,-18.8002,-18.8713,-18.8838,-18.8831,-18.8608,-18.83,-18.8188,-18.8131,-18.8131,-18.8131,-18.763,-18.65,-18.627,-18.5617,-3.3936,-3.4141,-3.3257,-2.8971,-3.0306,-3.2484,-3.2431,-3.2527,-3.2547,-3.2447,-3.3184,-3.3971,-3.4623,-3.3518,-3.2246,-3.1439,-3.0758,-3.0183,0.0,-3.2157,-3.5147,-3.7685,-4.858,0.0,-6.2302,-6.8196,-7.0439,-6.7045,-5.9325,-6.7179,-9.5586,-10.158,-10.4832,-10.663,-10.512,-10.4901,-10.657,-10.6504,-10.8008,-11.1055,-11.1212,-11.3838,-11.804,-12.1316,-12.3716,-12.5558,-12.8338,-12.9494,-12.9494,-12.9494,-12.9494,-12.9841,-13.3858,-13.5776,-13.7149,-14.1059,-14.3022,-14.4205,-14.6662,-15.1409,-15.6575,-15.7067,-15.9345,-16.1689,-16.1689,-16.2141,-16.2509,-16.2509,-16.3009,-16.3497,-16.3497,-16.3497,-16.3862,-16.5468,-16.8257,-17.1043,-17.3148,-17.603,-17.8368,-17.8887,-17.9047,-17.9047,-17.9047,-17.9047,-17.9129,-17.9387,-18.0352,-18.0758,-17.9909,-18.0758,-18.1062,-17.9923,-17.9772,-17.9771,-17.9784,-18.2701,-18.5505,-18.7699,-18.8911,-18.9286,-18.8713,-18.8713,-18.8561,-18.8131,-18.8131,-18.8131,-18.8131,-18.8131,-18.7491,-18.6191,-18.6191,-18.5445,-2.2281,-3.1212,-4.0466,-4.0337,-3.6394,-3.2488,-3.2548,-3.2401,-3.2517,-3.2477,-3.2401,-3.2458,-3.2416,-3.1346,-2.9999,-2.8651,-2.8711,0.0,0.0,-3.3443,-3.6147,-3.8215,-5.176,-6.3835,-7.1231,-8.4004,-8.5692,-7.0552,-7.2628,-8.3325,-10.2914,-10.4274,-10.6418,-11.1059,-10.68,-10.6521,-11.1232,-11.1285,-11.1108,-11.1136,-11.1303,-11.457,-12.0088,-12.246,-12.4789,-12.7018,-12.8814,-12.9494,-12.9494,-12.9494,-12.9494,-12.9841,-13.3858,-13.5776,-13.7149,-14.1059,-14.3022,-14.4068,-14.5433,-14.9747,-15.4955,-15.6645,-15.9274,-16.1689,-16.1689,-16.2141,-16.2509,-16.2509,-16.3009,-16.3497,-16.3497,-16.3497,-16.3862,-16.5541,-16.8257,-17.1043,-17.3223,-17.6105,-17.8417,-17.8887,-17.9047,-17.9047,-17.9047,-17.9047,-17.9129,-17.9387,-17.9443,-17.9546,-17.9757,-17.9847,-17.9847,-17.9772,-17.9772,-17.9771,-17.9784,-18.2815,-18.6008,-18.9167,-18.9441,-18.9286,-18.8713,-18.8713,-18.8561,-18.8131,-18.8131,-18.8131,-18.8131,-18.8131,-18.7491,-18.6191,-18.6191,-18.5445,-3.152,-3.5694,-3.8848,-4.0437,-3.6728,-3.2529,-3.2395,-3.2536,-3.2488,-3.2475,-3.2499,0.0,0.0,0.0,-3.0447,-3.0456,0.0,-3.6451,-3.1344,-4.0246,-4.9486,-5.5597,-6.0636,-6.7304,-7.7194,-8.0587,-8.3322,-8.5962,-8.3446,-8.7433,-9.9939,-10.617,-10.996,-11.1113,-10.9976,-10.9995,-11.1285,-11.1214,-11.1229,-11.1189,-11.5115,-12.0393,-12.6741,-12.5822,-12.655,-12.8814,-12.9227,-12.9494,-12.9494,-12.9494,-12.9494,-12.9841,-13.3858,-13.5776,-13.7149,-14.1059,-14.3022,-14.4068,-14.5433,-14.7006,-14.9244,-15.3983,-15.8347,-16.1689,-16.1689,-16.2141,-16.2509,-16.2509,-16.3009,-16.3497,-16.3497,-16.3497,-16.4154,-16.6855,-16.9284,-17.1807,-17.4787,-17.7171,-17.8844,-17.9005,-17.9047,-17.9047,-17.9047,-17.9047,-17.9129,-17.9387,-18.0503,-18.091,-17.9909,-18.091,-18.1137,-17.9923,-17.9772,-17.9771,-17.9784,-18.2815,-18.5021,-18.5834,-18.8154,-18.9286,-18.8713,-18.8713,-18.8561,-18.8131,-18.8131,-18.8131,-18.8131,-18.8131,-18.7491,-18.6191,-18.5702,-18.5073,-3.4531,-3.5171,-3.4786,-3.6932,-3.6727,-3.535,-3.3001,-3.2371,-3.2521,-3.2548,0.0,0.0,0.0,0.0,0.0,0.0,-3.801,-4.1199,-3.6785,-4.7112,-5.6578,-6.0617,-6.7136,-7.3806,-7.9862,-8.0974,-8.531,-9.5699,-9.0685,-9.2109,-10.2944,-10.7833,-11.054,-11.1125,-11.125,-11.1161,-11.1161,-11.1229,-11.1136,-11.1136,-11.4273,-12.0643,-12.9518,-12.8,-12.8071,-12.9494,-12.9494,-12.9494,-12.9494,-12.9494,-12.9494,-12.9841,-13.3858,-13.6321,-13.8266,-14.1385,-14.3022,-14.4,-14.4819,-14.5895,-14.7705,-15.2441,-15.7491,-16.1689,-16.1689,-16.2141,-16.2509,-16.2509,-16.3009,-16.3497,-16.3497,-16.3497,-16.43,-16.7366,-16.9757,-17.2177,-17.5384,-17.7662,-17.9047,-17.9047,-17.9047,-17.9047,-17.9047,-17.9047,-17.9129,-17.9387,-18.0276,-18.0607,-17.9909,-18.0682,-18.091,-17.9923,-17.9772,-17.9771,-17.9784,-18.2815,-18.4642,-18.447,-18.7624,-18.9351,-18.9069,-18.8873,-18.8561,-18.8131,-18.8131,-18.8131,-18.8131,-18.7879,-18.7293,-18.6191,-18.5606,-18.4889,-3.3307,-3.1528,-3.0568,-3.2776,-3.6607,-3.8734,-3.4714,0.0,-3.203,-3.2355,0.0,-3.7333,-2.9696,0.0,0.0,-3.1966,-3.9674,-4.5279,-4.5078,-5.4517,-6.1322,-6.1228,-7.336,-8.174,-8.172,-8.4108,-8.9975,-10.0065,-9.5636,-9.7278,-10.848,-10.9148,-10.9675,-11.1136,-11.1136,-11.1136,-11.1136,-11.1136,-11.1334,-11.107,-11.1274,-11.7203,-12.8287,-12.9082,-12.9438,-12.9494,-12.9494,-12.9494,-12.9494,-12.9494,-12.9637,-13.0186,-13.3858,-13.7102,-13.9764,-14.1776,-14.3022,-14.3864,-14.3864,-14.5606,-14.8454,-15.1734,-15.6439,-16.1069,-16.1617,-16.2141,-16.2509,-16.2509,-16.3009,-16.3497,-16.3497,-16.3497,-16.43,-16.7366,-16.9757,-17.2177,-17.5384,-17.7662,-17.9047,-17.9047,-17.9047,-17.9047,-17.9047,-17.9047,-17.9129,-17.9387,-17.9443,-17.9546,-17.9757,-17.9772,-17.9772,-17.9772,-17.9772,-17.9771,-17.9784,-18.2815,-18.4642,-18.447,-18.7624,-18.9517,-18.9517,-18.9032,-18.8561,-18.8131,-18.8131,-18.8131,-18.8131,-18.7491,-18.6869,-18.6191,-18.5519,-18.4795,-3.1119,-3.0384,-3.1382,-3.7518,-3.6452,-3.5528,0.0,0.0,0.0,-3.2017,-3.3232,-3.2974,-2.911,-2.8427,-2.9343,-3.1932,-4.4807,-5.3619,-5.1599,-6.5477,-7.6435,-7.8154,-8.3308,-8.7337,-8.8273,-9.0553,-9.3639,-9.7592,-10.051,-10.3599,-10.6795,-10.949,-11.0873,-11.1136,-11.1136,-11.1136,-11.1136,-11.1136,-11.1197,-11.1222,-11.1186,-11.4702,-12.1181,-12.6886,-12.9407,-12.9494,-12.9494,-12.9494,-12.9494,-12.9494,-13.0388,-13.1993,-13.436,-13.7102,-13.9764,-14.1776,-14.3022,-14.3864,-14.3864,-14.4987,-14.7133,-15.1383,-15.431,-15.6872,-16.0665,-16.2141,-16.2509,-16.2509,-16.3009,-16.3497,-16.3497,-16.3497,-16.43,-16.7366,-16.9757,-17.2177,-17.5384,-17.7662,-17.9047,-17.9047,-17.9047,-17.9047,-17.9047,-17.9047,-17.9129,-17.9387,-17.9443,-17.9546,-17.9757,-17.9772,-17.9772,-17.9772,-17.9772,-17.9771,-17.9784,-18.2815,-18.4642,-18.447,-18.7624,-18.9517,-18.9517,-18.9032,-18.8561,-18.8131,-18.8131,-18.8131,-18.8131,-18.7491,-18.6869,-18.6191,-18.4982,-18.4462,-2.809,-3.058,-3.3451,-3.4291,-3.353,0.0,0.0,-3.7781,-4.1024,-4.2365,-4.95,-5.4171,-4.9408,-3.8704,-3.2796,-4.0336,-5.1897,-6.1204,-6.466,-7.3486,-8.0555,-8.2493,-8.6112,-8.9119,-9.089,-9.3684,-9.6191,-9.7707,-10.2769,-10.66,-10.8736,-11.0318,-11.1136,-11.1136,-11.1136,-11.1136,-11.1136,-11.1136,-11.1285,-11.1272,-11.7371,-12.1718,-12.4337,-12.783,-12.9435,-12.9494,-12.9494,-12.9494,-12.9494,-12.9494,-13.1129,-13.3984,-13.492,-13.7633,-14.1222,-14.2164,-14.3022,-14.3864,-14.3864,-14.5153,-14.7615,-15.1512,-15.4139,-15.6629,-16.0564,-16.1917,-16.2253,-16.24,-16.3009,-16.3497,-16.3497,-16.4081,-16.5279,-16.8152,-17.0695,-17.3218,-17.6033,-17.7959,-17.9047,-17.9047,-17.9047,-17.9047,-17.9047,-17.9052,-17.9162,-17.9415,-17.9496,-17.9614,-17.9757,-17.9772,-17.9772,-17.9772,-17.9772,-17.9771,-17.9784,-18.2815,-18.4642,-18.447,-18.7624,-18.9488,-18.9319,-18.8954,-18.8608,-18.8355,-18.8188,-18.8131,-18.8131,-18.715,-18.65,-18.6191,-18.4889,-18.4263,-2.5023,-2.9825,-3.308,-2.874,-2.9339,0.0,-2.5518,-3.7201,-4.8706,-4.8229,-6.4216,-7.6815,-7.1581,-5.4094,-4.3957,-5.4417,-6.1487,-6.8645,-7.6987,-7.9228,-8.0637,-8.2751,-8.6291,-8.9524,-9.1622,-9.4704,-9.7058,-9.8006,-10.2627,-10.7357,-11.1084,-11.1136,-11.1136,-11.1136,-11.1136,-11.1136,-11.1136,-11.1281,-11.1072,-11.1349,-12.3489,-12.9568,-12.9492,-12.9409,-12.9461,-12.9494,-12.9494,-12.9494,-12.9494,-12.9494,-13.1922,-13.5732,-13.5723,-13.8571,-14.255,-14.255,-14.3022,-14.3864,-14.3864,-14.5663,-14.8478,-15.178,-15.4639,-15.7429,-16.075,-16.1689,-16.1803,-16.229,-16.3009,-16.3497,-16.3497,-16.4665,-16.6506,-16.8974,-17.1623,-17.4256,-17.6718,-17.8242,-17.9047,-17.9047,-17.9047,-17.9047,-17.9047,-17.9129,-17.9263,-17.9415,-17.9569,-17.9674,-17.9757,-17.9772,-17.9772,-17.9772,-17.9772,-17.9771,-17.9784,-18.2511,-18.4262,-18.447,-18.7321,-18.9079,-18.9106,-18.8914,-18.8654,-18.8564,-18.83,-18.8131,-18.8131,-18.6941,-18.627,-18.5951,-18.4795,-18.4263,-2.2828,-2.4295,-2.5732,-2.5109,-2.5133,0.0,-2.4526,-2.9776,-3.4068,-3.1595,-5.6186,-7.8089,-7.7401,-7.2739,-7.046,-7.455,-7.5479,-7.6987,-8.0117,-8.0844,-8.205,-8.5406,-8.797,-9.029,-9.1713,-9.4101,-9.5773,-9.5679,-9.9826,-10.4918,-11.078,-11.1136,-11.1136,-11.1136,-11.1136,-11.1136,-11.1136,-11.1108,-11.1113,-11.1354,-12.3672,-12.9542,-12.9469,-12.9487,-12.935,-12.9494,-12.9494,-12.9494,-12.9494,-12.9494,-13.2495,-13.7005,-13.7737,-13.9897,-14.255,-14.255,-14.3022,-14.3864,-14.3864,-14.5663,-14.8478,-15.178,-15.4639,-15.7429,-16.075,-16.1689,-16.1803,-16.229,-16.3009,-16.3497,-16.3497,-16.4665,-16.6506,-16.8974,-17.1623,-17.4256,-17.6718,-17.8242,-17.9047,-17.9047,-17.9047,-17.9047,-17.9047,-17.9129,-17.9263,-17.9415,-17.9569,-17.9674,-17.9757,-17.9772,-17.9772,-17.9772,-17.9772,-17.9771,-17.9784,-18.1448,-18.3048,-18.4394,-18.626,-18.7867,-18.903,-18.8914,-18.8654,-18.8564,-18.83,-18.8131,-18.8131,-18.7426,-18.6424,-18.5343,-18.4583,-18.4263,-2.3479,-2.4107,-2.4557,-2.452,0.0,0.0,-2.9829,-4.1894,-5.4477,-5.7002,-6.8663,-7.8266,-7.8369,-7.7281,-7.6694,-7.817,-7.9525,-8.071,-8.1736,-8.2797,-8.4371,-8.6996,-8.9217,-9.083,-9.2032,-9.4167,-9.6427,-9.8952,-10.1301,-10.4968,-11.078,-11.1136,-11.1136,-11.1136,-11.1267,-11.1108,-11.1108,-11.1158,-11.2619,-11.5819,-12.1025,-12.5541,-12.956,-12.9511,-12.9494,-12.9494,-12.9494,-12.9494,-12.9432,-13.0729,-13.3155,-13.6239,-13.8071,-14.0233,-14.255,-14.2865,-14.3333,-14.4016,-14.4781,-14.6926,-14.9877,-15.3047,-15.5964,-15.8728,-16.1039,-16.1689,-16.1803,-16.229,-16.2617,-16.3009,-16.3322,-16.5322,-16.7632,-16.9845,-17.2688,-17.5596,-17.7644,-17.8588,-17.9047,-17.9047,-17.9047,-17.9047,-17.9047,-17.9238,-17.966,-18.0731,-18.022,-18.0122,-18.1137,-18.0379,-17.9772,-17.9772,-17.9772,-17.9771,-17.9784,-18.2131,-18.3883,-18.4394,-18.6942,-18.8637,-18.8879,-18.8831,-18.8608,-18.8355,-18.8188,-18.8131,-18.8131,-18.7491,-18.6724,-18.5786,-18.4775,-18.4263,-2.4306,0.0,0.0,0.0,0.0,0.0,-4.046,-5.4685,-6.944,-7.6916,-7.8408,-7.8448,-7.8247,-7.8466,-7.8636,-7.9609,-8.1481,-8.2937,-8.284,-8.4241,-8.6059,-8.8327,-9.0021,-9.146,-9.2675,-9.4384,-9.6955,-10.0501,-10.2263,-10.5218,-11.0023,-11.0885,-11.1084,-11.1123,-11.1197,-11.1938,-11.3405,-11.3244,-11.5242,-11.8967,-11.8853,-12.2776,-12.956,-12.9511,-12.9494,-12.9494,-12.9494,-12.9494,-12.9637,-13.2188,-13.4175,-13.6045,-13.8703,-14.0731,-14.255,-14.2865,-14.3333,-14.41,-14.5444,-14.79,-15.0925,-15.3963,-15.7014,-15.9667,-16.1256,-16.1689,-16.1803,-16.229,-16.2509,-16.2617,-16.3322,-16.576,-16.8639,-17.0428,-17.3594,-17.6562,-17.8215,-17.8876,-17.9047,-17.9047,-17.9047,-17.9198,-17.9651,-17.9533,-18.0125,-18.2321,-18.1399,-18.0986,-18.22,-18.1289,-18.0303,-17.9847,-17.9772,-17.9771,-17.9784,-18.2359,-18.4111,-18.447,-18.7245,-18.8832,-18.8713,-18.8713,-18.8334,-18.7454,-18.7906,-18.7906,-18.7454,-18.7135,-18.665,-18.5868,-18.4869,-18.4263,0.0,0.0,0.0,-2.4445,-2.6624,-3.477,-5.7469,-6.3152,-6.649,-7.6377,-7.8332,-7.8422,-7.8297,-7.8296,-7.9567,-8.3185,-8.3786,-8.3942,-8.3816,-8.4666,-8.6317,-8.9261,-9.0423,-9.1731,-9.3654,-9.4758,-9.6427,-9.8432,-10.1487,-10.4703,-10.7932,-11.0076,-11.1123,-11.1232,-11.1178,-11.3513,-11.8653,-11.8765,-11.8819,-11.8967,-11.9065,-12.274,-12.956,-12.9511,-12.9494,-12.9494,-12.9494,-12.9494,-12.9841,-13.3668,-13.599,-13.7501,-14.0127,-14.1749,-14.255,-14.255,-14.3022,-14.41,-14.5444,-14.79,-15.0925,-15.3963,-15.7014,-15.9667,-16.1256,-16.1689,-16.1803,-16.229,-16.2509,-16.2617,-16.3322,-16.576,-16.8639,-17.0428,-17.3594,-17.6562,-17.8215,-17.8876,-17.9047,-17.9047,-17.9047,-17.9575,-18.1237,-18.0365,-18.0579,-18.3912,-18.3143,-18.2276,-18.2352,-18.2276,-18.1669,-17.9999,-17.9772,-17.9771,-17.9784,-18.1296,-18.2896,-18.4394,-18.6109,-18.7545,-18.8713,-18.8713,-18.7806,-18.5725,-18.7304,-18.7379,-18.5725,-18.6047,-18.5868,-18.5254,-18.4583,-18.4263,-2.4239,-2.4508,-2.6177,-3.3357,-4.5264,-5.7333,-6.5246,-7.0383,-7.4247,-7.7746,-7.8454,-7.8297,-7.8297,-7.8844,-8.0286,-8.2446,-8.3513,-8.4173,-8.4708,-8.5871,-8.741,-8.9306,-9.0695,-9.2124,-9.3654,-9.4805,-9.7241,-10.1228,-10.3356,-10.5976,-10.9822,-11.0885,-11.1334,-11.107,-11.2172,-11.4925,-11.882,-11.8894,-11.8913,-11.9029,-12.3802,-12.7195,-12.956,-12.9511,-12.9494,-12.9494,-12.9494,-12.9494,-12.9841,-13.3668,-13.5484,-13.6293,-14.0533,-14.2231,-14.255,-14.3178,-14.3488,-14.41,-14.6439,-14.9346,-15.2529,-15.5296,-15.8315,-16.1039,-16.1545,-16.1689,-16.1803,-16.229,-16.2509,-16.2617,-16.3322,-16.4227,-16.6075,-16.9983,-17.3594,-17.6562,-17.8215,-17.8876,-17.9047,-17.9047,-17.9047,-17.9575,-18.1237,-18.1273,-18.2246,-18.5654,-18.4963,-18.4021,-18.4021,-18.3035,-18.1669,-17.9999,-17.9829,-17.9798,-17.9784,-18.2238,-18.4016,-18.447,-18.7093,-18.868,-18.8713,-18.8713,-18.7806,-18.565,-18.7304,-18.6602,-18.3441,-18.5305,-18.5868,-18.5254,-18.4583,-18.4263,-2.4166,-2.6597,-3.1913,-4.4725,-5.8507,-6.8809,-6.8732,-7.2969,-7.7027,-7.8059,-7.8332,-7.8297,-7.8297,-7.9355,-8.0405,-8.1872,-8.3491,-8.4623,-8.5175,-8.6343,-8.7671,-8.8861,-8.9932,-9.1713,-9.3608,-9.555,-9.839,-10.2809,-10.4946,-10.7468,-11.0885,-11.1136,-11.1136,-11.1136,-11.2259,-11.4084,-11.7101,-11.8397,-11.8967,-11.9015,-12.6155,-12.9378,-12.9435,-12.9388,-12.9494,-12.9494,-12.9494,-12.9494,-12.9841,-13.3668,-13.5484,-13.6476,-14.0766,-14.2391,-14.255,-14.3333,-14.371,-14.432,-14.7755,-15.052,-15.3306,-15.6629,-15.9523,-16.1689,-16.1689,-16.1803,-16.1917,-16.24,-16.2617,-16.2724,-16.3322,-16.3862,-16.539,-16.9414,-17.2757,-17.5749,-17.814,-17.8876,-17.9047,-17.9047,-17.95,-18.0523,-18.2264,-18.2668,-18.4015,-18.7478,-18.6727,-18.5539,-18.4932,-18.3869,-18.2352,-18.0075,-17.9771,-17.9805,-17.9784,-18.2807,-18.4563,-18.447,-18.7565,-18.9217,-18.8713,-18.8096,-18.6805,-18.4747,-18.6402,-18.5579,-18.2013,-18.4547,-18.5531,-18.4889,-18.4486,-18.4263,-2.5273,-3.1322,-4.143,-5.7058,-6.4833,-6.8831,-6.8924,-7.1433,-7.4564,-7.7662,-7.8297,-7.8297,-7.8297,-7.9398,-8.0574,-8.1895,-8.3986,-8.526,-8.5303,-8.6345,-8.7281,-8.8149,-8.895,-9.0869,-9.3917,-9.686,-9.9958,-10.3118,-10.6341,-10.9059,-11.1136,-11.1136,-11.1136,-11.1387,-11.1404,-11.2299,-11.4079,-11.7364,-11.9187,-11.9255,-12.6226,-12.9435,-12.9494,-12.9494,-12.9494,-12.9494,-12.9494,-12.9432,-12.9718,-13.3605,-13.6055,-13.7749,-14.0933,-14.2299,-14.2617,-14.309,-14.3556,-14.4457,-14.8944,-15.1568,-15.3518,-15.7922,-16.0389,-16.1689,-16.1689,-16.1917,-16.2141,-16.24,-16.2724,-16.3041,-16.3322,-16.4665,-16.6433,-16.8974,-17.1435,-17.4266,-17.7787,-17.88,-17.9047,-17.9122,-18.0482,-18.2149,-18.4078,-18.4505,-18.5785,-18.9167,-18.8434,-18.6905,-18.5084,-18.4856,-18.3566,-18.0151,-17.9778,-17.9805,-17.9784,-18.2731,-18.4488,-18.447,-18.7318,-18.8881,-18.8637,-18.6977,-18.5071,-18.3018,-18.4672,-18.4191,-18.1493,-18.4046,-18.4889,-18.4263,-18.4263,-18.4263,-3.5556,-4.4468,-5.3276,-6.1275,-6.5898,-6.9356,-7.119,-7.3282,-7.5311,-7.7199,-7.8043,-7.8297,-7.8297,-7.974,-8.1006,-8.2245,-8.4029,-8.5515,-8.6194,-8.7832,-8.8716,-8.8994,-9.0627,-9.3001,-9.686,-9.8027,-10.0771,-10.6341,-10.7572,-10.9059,-11.1136,-11.1136,-11.1637,-11.2633,-11.3488,-11.526,-11.7976,-11.8731,-12.0398,-12.2952,-12.729,-12.9534,-12.9494,-12.9494,-12.9494,-12.9494,-12.9494,-12.9428,-12.9831,-13.3789,-13.7229,-14.0373,-14.1894,-14.2888,-14.3611,-14.3692,-14.371,-14.4457,-14.8944,-15.1568,-15.3518,-15.7922,-16.0389,-16.1689,-16.1689,-16.1803,-16.1917,-16.24,-16.2509,-16.2724,-16.3322,-16.5122,-16.7262,-16.9086,-17.1934,-17.4837,-17.7112,-17.8215,-17.9133,-18.0591,-18.1237,-18.2527,-18.5515,-18.6247,-18.7149,-18.9394,-18.9437,-18.8195,-18.5235,-18.4856,-18.3566,-18.0151,-17.9801,-17.979,-17.9778,-18.1665,-18.3284,-18.4366,-18.6183,-18.7217,-18.6976,-18.6373,-18.4544,-18.1439,-18.2943,-18.3516,-18.3135,-18.5064,-18.5432,-18.4263,-18.4263,-18.4263,-3.7548,-4.7898,-5.7691,-6.3116,-6.6522,-6.9571,-7.1883,-7.3653,-7.5021,-7.6692,-7.7789,-7.8297,-7.8297,-7.9783,-8.1481,-8.2882,-8.4666,-8.6194,-8.7171,-8.8396,-8.9253,-8.935,-9.1324,-9.4111,-9.8239,-10.0244,-10.324,-10.7829,-10.9059,-10.9822,-11.1136,-11.1136,-11.1887,-11.3128,-11.4084,-11.6143,-11.9539,-12.0111,-12.2107,-12.5067,-12.8069,-12.9494,-12.9494,-12.9494,-12.9494,-12.9432,-12.9366,-12.9363,-12.9916,-13.5604,-13.9206,-14.127,-14.199,-14.2685,-14.325,-14.3692,-14.4251,-14.5214,-14.8941,-15.1691,-15.4367,-15.8948,-16.0967,-16.1689,-16.1689,-16.1803,-16.203,-16.24,-16.2617,-16.2831,-16.3322,-16.5831,-16.8531,-16.9771,-17.2847,-17.6001,-17.7512,-17.8267,-17.9011,-18.0213,-18.1614,-18.3549,-18.6301,-18.7489,-18.8463,-18.961,-18.9909,-18.8954,-18.6298,-18.5994,-18.4642,-18.1272,-18.0868,-18.053,-17.9809,-18.1206,-18.2776,-18.4366,-18.5737,-18.6496,-18.6372,-18.5372,-18.3785,-18.1815,-18.2154,-18.2827,-18.3732,-18.48,-18.4982,-18.4263,-18.4263,-18.4263,-3.707,-4.7065,-5.7769,-6.3813,-6.6959,-6.9409,-7.1843,-7.3035,-7.4274,-7.665,-7.7789,-7.8297,-7.8297,-7.9783,-8.1651,-8.3604,-8.5472,-8.7001,-8.7978,-8.8662,-8.9049,-8.9439,-9.1801,-9.4788,-9.8498,-10.2589,-10.5823,-10.8342,-11.0076,-11.1136,-11.1136,-11.1387,-11.2136,-11.3375,-11.3921,-11.6159,-12.0229,-12.1543,-12.3672,-12.6384,-12.8216,-12.9227,-12.9494,-12.9494,-12.9494,-12.9371,-12.9437,-12.9659,-13.081,-13.8277,-14.1336,-14.135,-14.1883,-14.212,-14.255,-14.3556,-14.4712,-14.6158,-14.9147,-15.2365,-15.5936,-16.0333,-16.1689,-16.1689,-16.1689,-16.1917,-16.2141,-16.24,-16.2724,-16.3041,-16.3745,-16.6757,-16.9979,-17.1048,-17.426,-17.738,-17.8468,-17.8842,-17.9087,-17.9307,-18.2067,-18.4909,-18.6594,-18.8276,-18.9474,-18.9834,-18.994,-18.9333,-18.7588,-18.736,-18.6109,-18.268,-18.2383,-18.1727,-17.9802,-18.1161,-18.2927,-18.4641,-18.5365,-18.5919,-18.6329,-18.4092,-18.2868,-18.3093,-18.2078,-18.2392,-18.403,-18.4315,-18.4363,-18.4263,-18.4263,-18.4263,-4.7001,-5.276,-5.7864,-6.5224,-6.7523,-6.8683,-7.1721,-7.3035,-7.4274,-7.665,-7.7789,-7.8297,-7.8297,-7.9783,-8.1651,-8.3604,-8.5472,-8.7001,-8.7978,-8.9457,-9.0418,-8.9439,-9.2582,-9.6621,-10.0765,-10.3346,-10.6376,-11.0423,-11.0885,-11.1136,-11.1136,-11.2136,-11.3375,-11.4788,-11.594,-11.8668,-12.3437,-12.2216,-12.3996,-12.896,-12.765,-12.792,-12.9494,-12.9494,-12.9494,-12.9371,-12.9437,-13.132,-13.4728,-13.9449,-14.1323,-14.1364,-14.1372,-14.1918,-14.255,-14.3556,-14.3935,-14.497,-15.0404,-15.4323,-15.7365,-16.0693,-16.1689,-16.1689,-16.1689,-16.1689,-16.1917,-16.229,-16.2509,-16.3227,-16.5803,-16.8588,-17.1202,-17.3364,-17.6092,-17.8238,-17.8567,-17.9841,-18.0913,-18.1044,-18.3804,-18.6112,-18.6455,-18.8117,-18.9474,-18.9834,-18.994,-18.9333,-18.7588,-18.736,-18.6109,-18.268,-18.3446,-18.2942,-17.9878,-18.1161,-18.3324,-18.6039,-18.37,-18.3416,-18.6024,-18.2881,-18.1815,-18.3093,-18.2488,-18.3362,-18.5819,-18.5371,-18.4795,-18.4263,-18.4263,-18.4263,-4.6225,-5.2144,-5.7686,-6.223,-6.5507,-6.8521,-7.168,-7.3035,-7.4025,-7.5147,-7.6862,-7.8169,-7.7157,-7.8847,-8.1141,-8.3519,-8.5048,-8.6899,-8.9672,-9.1082,-9.1998,-9.2849,-9.5714,-9.9027,-10.2892,-10.5146,-10.7619,-11.0978,-11.1136,-11.1136,-11.1136,-11.2385,-11.3866,-11.503,-11.6235,-11.9246,-12.4156,-12.3274,-12.5029,-12.9494,-12.8546,-12.8607,-12.9494,-12.9494,-12.9494,-12.9637,-13.1691,-13.3598,-13.5539,-13.9602,-14.1367,-14.1749,-14.1894,-14.2279,-14.309,-14.4528,-14.5981,-14.7761,-15.1453,-15.5276,-15.8759,-16.1069,-16.1689,-16.1689,-16.1689,-16.1689,-16.1803,-16.229,-16.3162,-16.4319,-16.658,-16.9659,-17.2473,-17.4171,-17.6571,-17.8468,-17.8567,-18.0067,-18.141,-18.1539,-18.4182,-18.6447,-18.6447,-18.8007,-18.9474,-18.9834,-18.994,-18.9637,-18.8802,-18.8726,-18.741,-18.3905,-18.5033,-18.4591,-18.1206,-18.1564,-18.2928,-18.5248,-18.2747,-18.1877,-18.3439,-18.0925,-18.0612,-18.3093,-18.2282,-18.329,-18.6191,-18.5254,-18.4583,-18.4263,-18.4263,-18.4263,-4.5031,-5.1383,-5.7741,-5.9712,-6.3334,-6.7512,-7.1274,-7.2747,-7.3527,-7.3735,-7.5937,-7.7366,-7.6526,-7.817,-8.042,-8.3434,-8.4836,-8.7007,-9.1088,-9.2304,-9.3497,-9.5992,-9.8286,-10.1081,-10.4546,-10.6433,-10.8657,-11.0978,-11.1136,-11.1136,-11.1136,-11.2633,-11.4057,-11.503,-11.6896,-11.994,-12.4156,-12.4594,-12.638,-12.9494,-12.9494,-12.9494,-12.9494,-12.9494,-12.9494,-12.9637,-13.3668,-13.529,-13.5658,-13.9559,-14.1587,-14.191,-14.2391,-14.2865,-14.3537,-14.5278,-14.8155,-15.1154,-15.2708,-15.6225,-16.01,-16.1328,-16.1689,-16.1689,-16.1689,-16.1689,-16.1803,-16.229,-16.3887,-16.576,-16.7539,-17.0725,-17.3744,-17.5047,-17.6986,-17.8619,-17.9143,-18.0641,-18.2058,-18.252,-18.4937,-18.6976,-18.6976,-18.8309,-18.9448,-18.9705,-18.9849,-18.994,-18.994,-18.9891,-18.866,-18.556,-18.6755,-18.6222,-18.2451,-18.2247,-18.2827,-18.4153,-18.1863,-18.0752,-18.1531,-17.9743,-18.0161,-18.3018,-18.2308,-18.3359,-18.6191,-18.4889,-18.4263,-18.4263,-18.4263,-18.4263,-5.1104,-5.5085,-5.8787,-6.1402,-6.2408,-6.4322,-6.9891,-7.1802,-7.278,-7.4347,-7.5132,-7.6259,-7.7872,-7.8297,-7.9613,-8.3349,-8.5387,-8.7777,-9.1175,-9.2304,-9.3497,-9.5992,-9.8286,-10.1081,-10.4546,-10.6433,-10.8657,-11.0978,-11.1136,-11.1136,-11.1136,-11.3567,-11.503,-11.503,-11.8957,-12.2158,-12.4156,-12.5737,-12.744,-12.9494,-12.9494,-12.9494,-12.9494,-12.9494,-12.9494,-12.9637,-13.3668,-13.529,-13.5658,-13.9559,-14.1587,-14.191,-14.2391,-14.2865,-14.3537,-14.5278,-14.8778,-15.2837,-15.4181,-15.765,-16.1545,-16.1689,-16.1689,-16.1689,-16.1689,-16.1689,-16.1803,-16.229,-16.4197,-16.6779,-16.9752,-17.2478,-17.5038,-17.738,-17.8291,-17.9068,-18.0575,-18.2422,-18.4257,-18.5692,-18.7429,-18.8713,-18.8713,-18.9066,-18.9366,-18.9394,-18.9685,-18.994,-18.994,-18.9783,-18.8991,-18.7149,-18.8436,-18.7486,-18.2576,-18.3307,-18.3966,-18.3921,-18.0716,-18.01,-18.2848,-18.1364,-18.1364,-18.3093,-18.3355,-18.4403,-18.6191,-18.4889,-18.4263,-18.4263,-18.4263,-18.4263,-4.2944,-4.7963,-5.2832,-5.3355,-5.7942,-6.2851,-6.517,-6.7424,-6.9601,-7.2649,-7.4802,-7.6216,-7.53,-7.7366,-7.9825,-8.1863,-8.5014,-8.8613,-9.2552,-9.527,-9.7366,-9.9146,-10.1175,-10.3639,-10.6381,-10.722,-10.8657,-11.0978,-11.1136,-11.1136,-11.1136,-11.3567,-11.503,-11.503,-11.919,-12.2383,-12.4156,-12.5952,-12.7711,-12.9494,-12.9494,-12.9494,-12.9494,-12.9494,-12.9494,-12.9432,-13.1129,-13.3094,-13.5658,-13.9559,-14.1749,-14.2231,-14.2391,-14.2865,-14.3983,-14.6525,-14.9678,-15.3119,-15.5448,-15.8647,-16.1689,-16.1689,-16.1689,-16.1689,-16.1689,-16.1689,-16.202,-16.3634,-16.576,-16.8344,-17.1466,-17.4042,-17.6376,-17.7888,-17.9246,-18.0349,-18.1027,-18.3402,-18.5692,-18.6296,-18.7807,-18.8939,-18.8939,-18.9141,-18.9366,-18.9366,-18.9665,-18.994,-18.994,-18.9792,-18.8689,-18.5934,-18.7222,-18.6556,-18.25,-18.2374,-18.2451,-18.2369,-17.9897,-17.8915,-18.0161,-18.0537,-18.1514,-18.3093,-18.3504,-18.4552,-18.6191,-18.4889,-18.4263,-18.4263,-18.4263,-18.4263,-3.7984,-4.2772,-4.7883,-4.8043,-5.3677,-5.984,-6.1483,-6.3101,-6.5822,-7.0759,-7.3751,-7.4985,-7.3697,-7.6223,-7.8934,-8.042,-8.4822,-8.9587,-9.4433,-9.7485,-9.9948,-10.2028,-10.3597,-10.5446,-10.7464,-10.7708,-10.8657,-11.0978,-11.1637,-11.1637,-11.1637,-11.4301,-11.594,-11.6364,-12.0286,-12.3052,-12.5029,-12.6593,-12.8129,-12.9494,-12.9494,-12.9494,-12.9494,-12.9494,-12.9494,-12.9494,-12.9983,-13.2188,-13.5475,-13.9047,-14.1193,-14.255,-14.2708,-14.345,-14.4751,-14.7897,-15.088,-15.3823,-15.6909,-15.9598,-16.1689,-16.1689,-16.1689,-16.1689,-16.1689,-16.205,-16.2743,-16.4577,-16.7384,-17.0338,-17.2587,-17.5304,-17.7605,-17.8696,-18.0074,-18.1404,-18.2384,-18.4609,-18.6598,-18.7051,-18.8109,-18.8982,-18.9024,-18.9176,-18.9394,-18.9422,-18.9685,-18.994,-18.994,-18.9394,-18.7923,-18.4953,-18.5676,-18.5202,-18.2264,-18.1585,-18.1119,-18.0623,-17.9071,-17.8281,-17.8281,-18.0311,-18.1965,-18.3093,-18.3953,-18.5073,-18.6191,-18.4889,-18.4263,-18.4263,-18.4779,-18.5,-4.0157,-4.233,-4.575,-4.8365,-5.0769,-5.3953,-5.9551,-5.98,-6.1197,-6.9353,-7.1078,-7.1928,-7.3753,-7.4857,-7.6471,-7.9273,-8.4994,-9.0889,-9.6334,-9.8538,-10.075,-10.4154,-10.4649,-10.5446,-10.7464,-10.7708,-10.8657,-11.0978,-11.2385,-11.3128,-11.3128,-11.5514,-11.7843,-11.9539,-12.2548,-12.5029,-12.6593,-12.8607,-12.9494,-12.9494,-12.9494,-12.9494,-12.9494,-12.9494,-12.9494,-12.9699,-13.1464,-13.3478,-13.5475,-13.7588,-14.0132,-14.255,-14.3022,-14.4373,-14.6271,-14.9313,-15.23,-15.5368,-15.8319,-16.0411,-16.1689,-16.1689,-16.1689,-16.1689,-16.1689,-16.2772,-16.4116,-16.4867,-16.8618,-17.2472,-17.3047,-17.5728,-17.8657,-18.0386,-18.0977,-18.2007,-18.5248,-18.6194,-18.69,-18.8562,-18.8939,-18.9024,-18.9145,-18.9243,-18.9422,-18.9697,-18.9817,-18.994,-18.994,-18.8422,-18.667,-18.4877,-18.4604,-18.3778,-18.192,-18.1509,-18.0623,-17.8766,-17.8441,-17.8281,-17.8281,-18.1364,-18.3093,-18.3093,-18.515,-18.6191,-18.6191,-18.4889,-18.4263,-18.4337,-18.6031,-18.6768,-3.5245,-3.8668,-4.2974,-4.5669,-4.8905,-5.3078,-5.9239,-6.2765,-6.5477,-6.7079,-6.9465,-7.1503,-7.2097,-7.5579,-7.8679,-7.957,-8.5232,-9.1008,-9.5596,-10.0235,-10.3442,-10.4405,-10.594,-10.6976,-10.7708,-10.7708,-10.8657,-11.0978,-11.2385,-11.3128,-11.3128,-11.5514,-11.7843,-11.9539,-12.2548,-12.5029,-12.6806,-12.8607,-12.9494,-12.9494,-12.9494,-12.9494,-12.9494,-12.9494,-12.9494,-12.9699,-13.1464,-13.3478,-13.5475,-13.7588,-13.9626,-14.1749,-14.2391,-14.345,-14.4973,-14.8968,-15.1671,-15.4028,-15.7963,-16.0411,-16.1689,-16.1689,-16.1689,-16.1689,-16.1689,-16.2772,-16.4405,-16.6173,-16.9425,-17.2864,-17.516,-17.7017,-17.8657,-18.0386,-18.188,-18.3439,-18.5549,-18.7099,-18.8335,-18.8864,-18.8939,-18.9024,-18.9145,-18.9275,-18.9422,-18.9697,-18.8831,-18.8195,-18.8195,-18.6737,-18.5417,-18.4719,-18.3618,-18.2113,-18.018,-17.9771,-17.934,-17.8691,-17.8366,-17.8281,-17.8281,-18.1364,-18.3093,-18.3093,-18.515,-18.6191,-18.6191,-18.6073,-18.5368,-18.4337,-18.7136,-18.721,-3.4846,-3.8024,-4.1847,-4.5542,-4.802,-5.1141,-5.7811,-6.1,-6.2697,-6.3423,-6.6071,-6.8466,-6.9592,-7.4305,-7.8337,-7.955,-8.5702,-9.2427,-9.7734,-10.3016,-10.6087,-10.5704,-10.6976,-10.7708,-10.7708,-10.7708,-10.8657,-11.0978,-11.2881,-11.3812,-11.3812,-11.6896,-11.9421,-12.114,-12.3878,-12.5952,-12.7711,-12.8814,-12.9494,-12.9494,-12.9494,-12.9494,-12.9494,-12.9494,-12.9841,-13.0729,-13.2515,-13.4548,-13.6631,-13.8703,-14.0366,-14.1749,-14.2231,-14.4101,-14.6787,-15.0196,-15.2998,-15.5741,-15.908,-16.0844,-16.1689,-16.1689,-16.1689,-16.1834,-16.2411,-16.3827,-16.5762,-16.8105,-17.1064,-17.3922,-17.6272,-17.7592,-17.8807,-18.1138,-18.2709,-18.4268,-18.6529,-18.8004,-18.8939,-18.8939,-18.8939,-18.8949,-18.9176,-18.9306,-18.9448,-18.9761,-18.8392,-18.736,-18.736,-18.5312,-18.3829,-18.3732,-18.2213,-18.0579,-17.9202,-17.8896,-17.868,-17.8468,-17.8389,-17.8281,-17.8281,-18.1364,-18.3093,-18.3093,-18.515,-18.6191,-18.6191,-18.6664,-18.6252,-18.5295,-18.7947,-18.8021,-3.739,-3.9449,-4.1993,-4.7119,-4.8009,-4.9457,-5.6043,-5.6029,-5.554,-5.8766,-6.1079,-6.3325,-6.6238,-7.1078,-7.5909,-7.9399,-8.6204,-9.3733,-10.1806,-10.5526,-10.7564,-10.757,-10.7602,-10.7602,-10.7708,-10.7708,-10.8657,-11.1229,-11.3567,-11.503,-11.5273,-11.919,-12.2383,-12.4156,-12.5952,-12.7711,-12.9494,-12.9494,-12.9494,-12.9494,-12.9494,-12.9494,-12.9494,-12.9494,-13.059,-13.2515,-13.436,-13.645,-13.8595,-14.0533,-14.1749,-14.2391,-14.255,-14.5451,-15.0109,-15.2018,-15.5468,-15.9455,-16.1081,-16.1689,-16.1689,-16.1689,-16.1689,-16.1978,-16.3567,-16.5388,-16.748,-17.0295,-17.3122,-17.5505,-17.6711,-17.7652,-17.9033,-18.2341,-18.3386,-18.457,-18.7886,-18.8759,-18.8939,-18.8939,-18.8939,-18.899,-18.9306,-18.9366,-18.9398,-18.9682,-18.8271,-18.7132,-18.707,-18.4257,-18.2235,-18.1979,-18.0682,-17.9546,-17.8901,-17.8725,-17.8518,-17.8281,-17.8281,-17.8281,-17.8281,-18.1364,-18.3093,-18.3037,-18.515,-18.6191,-18.6112,-18.657,-18.6842,-18.6842,-18.8463,-18.9126,-3.3888,-3.6394,-3.9886,-4.4596,-4.9792,-5.4093,-5.6183,-5.7541,-5.8133,-5.6527,-5.8319,-6.0783,-6.2454,-6.5512,-7.1404,-8.1806,-8.4646,-8.9101,-9.9931,-10.2124,-10.3689,-10.6043,-10.6336,-10.6706,-10.7655,-10.7708,-10.9147,-11.2473,-11.4057,-11.5514,-11.6475,-11.971,-12.2383,-12.4156,-12.5952,-12.7711,-12.9494,-12.9494,-12.9494,-12.9494,-12.9494,-12.9494,-12.9494,-12.9494,-13.059,-13.2515,-13.436,-13.645,-13.8595,-14.0533,-14.1587,-14.2071,-14.2391,-14.3586,-14.5636,-15.0833,-15.4961,-15.8151,-16.0837,-16.1689,-16.1689,-16.1689,-16.1689,-16.1978,-16.3567,-16.5388,-16.748,-17.0295,-17.3656,-17.6711,-17.7652,-17.8095,-17.9033,-18.2341,-18.3386,-18.457,-18.7886,-18.8759,-18.8939,-18.8939,-18.8939,-18.899,-18.9306,-18.9366,-18.9019,-18.8088,-18.6525,-18.4958,-18.365,-18.2767,-18.1676,-18.0379,-18.1,-18.0882,-17.9238,-17.8936,-17.8634,-17.826,-17.8281,-17.8281,-17.8281,-18.1364,-18.2921,-18.2553,-18.4932,-18.5951,-18.5519,-18.6378,-18.6842,-18.6842,-18.8463,-18.8536,-3.4697,-3.784,-4.1038,-4.2565,-4.8162,-5.3105,-5.2435,-5.4136,-5.5365,-5.3605,-5.4986,-5.7695,-6.1731,-6.2995,-6.6968,-7.7641,-8.2834,-8.8707,-9.7583,-10.152,-10.4072,-10.5435,-10.5675,-10.6389,-10.7602,-10.7708,-10.9147,-11.2967,-11.4301,-11.594,-11.8022,-12.1028,-12.3496,-12.5246,-12.7018,-12.8399,-12.9494,-12.9494,-12.9494,-12.9494,-12.9494,-12.9494,-12.9494,-13.0388,-13.1796,-13.3858,-13.5905,-13.7764,-13.9861,-14.1096,-14.1749,-14.2231,-14.2708,-14.3983,-14.6167,-15.0971,-15.4748,-15.7651,-16.0765,-16.1689,-16.1689,-16.1689,-16.2195,-16.3061,-16.465,-16.6859,-16.9409,-17.202,-17.4505,-17.6645,-17.7905,-17.8807,-18.001,-18.2492,-18.3913,-18.5474,-18.8036,-18.8759,-18.8939,-18.8939,-18.8939,-18.899,-18.9306,-18.9366,-18.8868,-18.7557,-18.5918,-18.4515,-18.3591,-18.2687,-18.2107,-18.1927,-18.1946,-18.1458,-18.03,-17.9307,-17.8588,-17.8281,-17.8281,-17.8582,-17.9409,-18.1815,-18.3162,-18.3405,-18.5231,-18.5868,-18.5254,-18.6281,-18.721,-18.7873,-18.8021,-18.8021,-3.6888,-4.0717,-4.3477,-4.2062,-4.6113,-4.9964,-4.8481,-4.9748,-5.1269,-5.1269,-5.2103,-5.4699,-6.1302,-6.1502,-6.2772,-6.966,-7.9529,-8.8644,-9.5415,-10.1868,-10.5372,-10.5037,-10.5412,-10.6178,-10.7602,-10.7708,-10.9391,-11.3159,-11.4733,-11.6841,-11.9769,-12.2771,-12.5246,-12.6593,-12.8546,-12.9494,-12.9494,-12.9494,-12.9494,-12.9494,-12.9494,-12.9494,-12.9432,-13.1464,-13.3478,-13.5475,-13.7411,-13.9456,-14.126,-14.1749,-14.2231,-14.255,-14.3022,-14.5375,-14.8662,-15.1663,-15.4748,-15.7651,-16.0765,-16.1689,-16.1761,-16.1978,-16.2989,-16.4361,-16.6356,-16.8724,-17.1331,-17.3951,-17.5414,-17.6427,-17.7847,-17.9334,-18.0837,-18.2642,-18.4365,-18.6228,-18.8112,-18.8759,-18.8939,-18.8939,-18.8982,-18.903,-18.9306,-18.9394,-18.8968,-18.7557,-18.5932,-18.4839,-18.4813,-18.3515,-18.2997,-18.4168,-18.2975,-18.1849,-18.101,-17.951,-17.8518,-17.8281,-17.8281,-17.8882,-18.0311,-18.189,-18.3312,-18.4467,-18.5603,-18.5868,-18.5073,-18.5962,-18.7357,-18.9126,-18.7505,-18.7652,-3.6271,-4.0814,-4.5432,-4.6466,-4.8671,-5.0391,-5.0203,-5.0672,-5.1293,-5.1293,-5.2065,-5.3276,-5.52,-5.7727,-6.003,-6.1535,-7.1675,-8.3308,-9.5001,-9.9047,-10.1737,-10.3991,-10.4438,-10.5334,-10.7497,-10.7708,-10.9635,-11.4327,-11.6309,-11.8378,-12.1028,-12.4375,-12.638,-12.6806,-12.8546,-12.9494,-12.9494,-12.9494,-12.9494,-12.9494,-12.9494,-12.9494,-12.9432,-13.1464,-13.3478,-13.5475,-13.7411,-13.9456,-14.126,-14.1749,-14.2231,-14.255,-14.3022,-14.5375,-14.8662,-15.1663,-15.4748,-15.7651,-16.0765,-16.1689,-16.1906,-16.3278,-16.3856,-16.4694,-16.7891,-16.9366,-17.0616,-17.3841,-17.6278,-17.7905,-17.8151,-17.8431,-17.9409,-18.2416,-18.3612,-18.4871,-18.7886,-18.8759,-18.8939,-18.8939,-18.903,-18.9141,-18.9336,-18.9474,-18.9134,-18.7649,-18.5987,-18.4813,-18.473,-18.4439,-18.3864,-18.2628,-18.3339,-18.2605,-17.95,-17.8906,-17.8518,-17.8281,-17.8281,-17.8356,-17.8657,-18.0236,-18.2004,-18.3811,-18.545,-18.5617,-18.4462,-18.4584,-18.6179,-18.9126,-18.7505,-18.7652,-3.7891,-4.3377,-4.8419,-4.7291,-4.9112,-5.1066,-5.0348,-5.1381,-5.2456,-5.2456,-5.2804,-5.385,-5.6001,-5.7254,-5.939,-6.3762,-6.9093,-7.6701,-8.7518,-9.4585,-10.0145,-10.4227,-10.4359,-10.5123,-10.7497,-10.8382,-11.0978,-11.6143,-11.791,-12.0229,-12.4156,-12.5892,-12.7229,-12.8129,-12.9021,-12.9494,-12.9494,-12.9494,-12.9494,-12.9494,-12.9494,-12.9494,-12.9637,-13.2578,-13.436,-13.5475,-13.8703,-14.0533,-14.1424,-14.191,-14.2391,-14.2617,-14.4218,-14.7222,-15.0971,-15.3201,-15.6342,-15.9909,-16.1286,-16.1689,-16.1978,-16.3567,-16.4578,-16.5733,-16.8281,-17.0246,-17.2272,-17.4591,-17.6352,-17.7652,-17.8095,-17.8958,-18.0236,-18.2567,-18.4064,-18.5323,-18.6831,-18.808,-18.8637,-18.7731,-18.8425,-18.9176,-18.9336,-18.9492,-18.9105,-18.7657,-18.5876,-18.5109,-18.5945,-18.4447,-18.3653,-18.4581,-18.3473,-18.1998,-18.0158,-17.9848,-17.9796,-17.9634,-17.9634,-17.9634,-17.9634,-18.1213,-18.247,-18.3322,-18.5231,-18.5531,-18.4263,-18.4263,-18.5516,-18.7873,-18.6179,-18.6326,-4.3595,0.0,-5.308,-5.1494,-5.2935,-5.4334,0.0,-5.3402,-5.4161,-5.3602,-5.3501,-5.4314,-5.6905,-5.7108,-5.8937,-6.5395,-6.7117,-7.1049,-8.0385,-8.9019,-9.6434,-10.2104,-10.2938,-10.4016,-10.6653,-10.8545,-11.188,-11.7272,-11.9308,-12.2042,-12.6593,-12.7229,-12.792,-12.9494,-12.9494,-12.9494,-12.9494,-12.9494,-12.9494,-12.9494,-12.9494,-12.9637,-13.0186,-13.3668,-13.5475,-13.6269,-13.9795,-14.126,-14.1424,-14.2231,-14.255,-14.2843,-14.5519,-14.9069,-15.2978,-15.4726,-15.8116,-16.1689,-16.1689,-16.1689,-16.1906,-16.3133,-16.4794,-16.6744,-16.8932,-17.1456,-17.4001,-17.5497,-17.6499,-17.7392,-17.8095,-17.9183,-18.0612,-18.2191,-18.3763,-18.5097,-18.5851,-18.725,-18.8109,-18.7202,-18.8162,-18.921,-18.9336,-18.9496,-18.9184,-18.8071,-18.64,-18.5729,-18.6992,-18.4528,-18.3435,-18.5393,-18.302,-18.1076,-18.0472,-18.1,-18.1289,-18.1289,-18.0988,-18.0913,-18.1289,-18.2492,-18.3187,-18.3447,-18.5302,-18.5617,-18.4486,-18.4363,-18.5147,-18.6768,-18.5516,-18.5589,0.0,-5.8996,-6.0312,-6.4434,-6.4015,-6.2189,-5.996,-5.8073,0.0,-5.3958,-5.3501,-5.3602,-5.3806,-5.5533,-5.7552,-5.9416,-6.2951,-6.8616,-7.7496,-8.1337,-8.6356,-9.5097,-9.8055,-10.064,-10.4121,-10.7531,-11.188,-11.7272,-12.0457,-12.3437,-12.6593,-12.8338,-12.9227,-12.9494,-12.9494,-12.9494,-12.9494,-12.9494,-12.9494,-12.9494,-12.9494,-13.0388,-13.2188,-13.436,-13.6269,-13.8356,-14.0366,-14.126,-14.1424,-14.2231,-14.255,-14.2775,-14.6591,-15.0065,-15.3111,-15.6043,-15.912,-16.1689,-16.1689,-16.1689,-16.1761,-16.1834,-16.3928,-16.7079,-17.0702,-17.3181,-17.4927,-17.6054,-17.7329,-17.8151,-17.8281,-17.8356,-17.8882,-18.0537,-18.1203,-18.2309,-18.5323,-18.6269,-18.7051,-18.8486,-18.903,-18.929,-18.9366,-18.9546,-18.9665,-18.9593,-18.8121,-18.7086,-18.7144,-18.5505,-18.3732,-18.2257,-18.166,-18.0699,-17.8917,-18.1301,-18.2943,-18.2943,-18.1589,-18.1439,-18.2868,-18.3018,-18.3597,-18.4521,-18.5604,-18.5868,-18.5164,-18.4583,-18.5147,-18.6842,-18.6694,-18.6694,-6.1566,-6.476,-6.6535,-6.6741,-6.5745,-6.3866,-6.0919,-5.9039,-5.7108,-5.411,-5.3501,-5.3704,-5.4415,-5.4669,-5.6549,-6.2034,-6.3715,-6.7033,-7.5119,-8.0299,-8.5417,-9.1673,-9.7528,-10.2539,-10.6073,-10.8403,-11.247,-11.8736,-12.1818,-12.5029,-12.8338,-12.9021,-12.9494,-12.9494,-12.9494,-12.9494,-12.9494,-12.9494,-12.9494,-12.9494,-12.9494,-13.059,-13.2321,-13.436,-13.645,-13.8595,-14.0533,-14.126,0.0,-14.2231,-14.3091,-14.4357,-14.8118,-15.1462,-15.4522,-15.7466,-15.9909,-16.1689,-16.1689,-16.1689,-16.1834,-16.2845,-16.465,-16.6816,-16.9221,-17.1818,-17.4376,-17.6278,-17.7455,-17.8281,-17.8281,-17.8281,-17.8657,-18.0386,-18.0977,-18.148,-18.2761,-18.476,-18.6296,-18.5994,-18.778,-18.9346,-18.9318,-18.9564,-18.9741,-18.9707,-18.8206,-18.7452,-18.8513,-18.5171,-18.324,-18.457,-18.251,-18.1226,-18.1376,-18.3375,-18.4672,-18.4672,-18.4146,-18.4071,-18.4672,-18.4672,-18.4664,-18.4678,-18.5679,-18.5868,-18.5254,-18.4583,-18.5147,-18.6768,-18.5737,-18.581,-6.7672,-7.0533,-7.1797,-7.1212,-7.0064,-6.7829,-6.3357,-6.1224,-5.8886,-5.4415,-5.3501,-5.3856,-5.4974,-5.4954,-5.6941,-6.397,-6.4685,-6.7721,-7.6717,-8.1474,-8.6033,-9.1409,-9.7211,-10.1906,-10.4649,-10.8819,-11.4148,-12.1187,-12.3819,-12.638,-12.9227,-12.9494,-12.9494,-12.9494,-12.9494,-12.9494,-12.9494,-12.9494,-12.9494,-12.9432,-12.9983,-13.1464,-13.3286,-13.5355,-13.7672,-14.0118,-14.0899,-14.1692,-14.2259,-14.2434,-14.3429,-14.533,-14.9539,-15.2722,-15.5298,-15.883,-16.0844,-16.1689,-16.1689,-16.205,-16.2628,-16.3711,-16.5444,-16.744,-16.8804,-17.1307,-17.4284,-17.6128,-17.7392,-17.8281,-17.8281,-17.8281,-17.8582,-17.9764,-18.02,-18.05,-18.1075,-18.3598,-18.5466,-18.4937,-18.725,-18.9373,-18.9306,-18.9513,-18.9698,-18.9741,-18.8589,-18.8002,-18.8684,-18.5501,-18.389,-18.5432,-18.3281,-18.2586,-18.4578,-18.58,-18.6402,-18.6402,-18.5951,-18.5875,-18.6402,-18.5951,-18.5504,-18.515,-18.5827,-18.5786,-18.4889,-18.4486,-18.4853,-18.5958,-18.5368,-18.5958,-7.5202,-7.6409,-7.6436,-7.9634,-7.8651,-7.5247,-6.8438,-6.5136,-6.1681,-5.4923,-5.3501,-5.3856,-5.4974,-5.655,-5.9082,-6.3658,-6.5665,-7.0748,-8.2877,-8.4501,-8.7267,-9.468,-9.6526,-9.7686,-9.8847,-10.8164,-11.7145,-12.4179,-12.6046,-12.7501,-12.9432,-12.9494,-12.9494,-12.9494,-12.9494,-12.9494,-12.9494,-12.9494,-12.9494,-12.9494,-13.1464,-13.3478,-13.529,-13.7476,-14.0251,-14.3339,-14.1931,-14.246,-14.3931,-14.2999,-14.3588,-14.6028,-15.0833,-15.3753,-15.5503,-16.003,-16.1761,-16.1761,-16.1761,-16.2772,-16.4072,-16.4072,-16.6167,-16.8932,-17.0035,-17.2363,-17.4927,-17.5976,-17.7264,-17.8281,-17.8281,-17.8281,-17.8335,-17.8366,-17.8518,-17.9115,-18.0988,-18.2737,-18.4484,-18.607,-18.8007,-18.9297,-18.9326,-18.9517,-18.9698,-18.9741,-18.9575,-18.8911,-18.7245,-18.6788,-18.5932,-18.4148,-18.3733,-18.4846,-18.783,-18.8131,-18.8131,-18.8131,-18.6552,-18.6402,-18.8056,-18.6552,-18.5766,-18.6191,-18.6191,-18.5531,-18.4263,-18.4263,-18.4263,-18.4337,-18.6031,-18.7652,-7.5994,-7.7965,-7.9237,-8.0614,-7.935,-7.6314,-7.0111,-6.6676,-6.2849,-5.6092,-5.406,-5.411,-5.6447,-5.7198,-5.9339,-6.4993,-6.9651,-7.4867,-8.1306,-8.6282,-9.1205,-9.6156,-9.7739,-9.961,-10.2304,-10.8695,-11.6017,-12.4179,-12.6046,-12.7501,-12.9432,-12.9494,-12.9494,-12.9494,-12.9494,-12.9494,-12.9494,-12.9494,-12.9494,-12.9494,-13.1464,-13.3478,-13.5355,-13.8456,-14.1178,-14.3473,-14.4076,-14.4176,-14.4133,-14.5229,-14.6757,-14.8865,-15.2792,-15.5841,-15.8377,-16.0819,-16.2411,-16.335,-16.335,-16.4361,-16.5878,-16.6961,-16.7972,-16.9311,-17.2358,-17.4457,-17.6127,-17.7274,-17.7922,-17.8281,-17.8281,-17.8281,-17.8335,-17.8366,-17.8518,-17.8814,-17.9434,-18.1001,-18.2823,-18.4408,-18.6277,-18.796,-18.9145,-18.9517,-18.9665,-18.9575,-18.9573,-18.9366,-18.8835,-18.7442,-18.6682,-18.7202,-18.6981,-18.7191,-18.8056,-18.8131,-18.8131,-18.8131,-18.768,-18.7605,-18.8131,-18.768,-18.7041,-18.6191,-18.6191,-18.5531,-18.4263,-18.4263,-18.4926,-18.6105,-18.7726,-18.8684,-7.8316,-7.9644,-8.0665,-8.1244,-8.0487,-7.8076,-7.1063,-6.7706,-6.4225,-5.6788,-5.4394,-5.4576,-5.7557,-5.8758,-6.1676,-6.9092,-7.4049,-7.9604,-8.711,-9.1678,-9.6202,-10.0851,-10.1589,-10.2524,-10.4577,-11.0495,-11.6241,-12.1835,-12.566,-12.8338,-12.9494,-12.9494,-12.9494,-12.9494,-12.9494,-12.9494,-12.9494,-12.9494,-12.9841,-13.0729,-13.2578,-13.4612,-13.6696,-14.0153,-14.2832,-14.4745,-14.5451,-14.6153,-14.6378,-14.7042,-14.8751,-15.1211,-15.3982,-15.6814,-15.9669,-16.1801,-16.3206,-16.4144,-16.4794,-16.6022,-16.7466,-16.8405,-16.9411,-17.0795,-17.3684,-17.4886,-17.5528,-17.6692,-17.7118,-17.7228,-17.7228,-17.7755,-17.826,-17.8468,-17.8567,-17.8663,-17.892,-18.0289,-18.2033,-18.3815,-18.5584,-18.736,-18.9138,-19.0077,-19.0423,-18.9621,-19.0123,-19.0275,-18.9593,-18.8237,-18.7656,-18.8637,-18.8386,-18.8131,-18.8131,-18.8131,-18.8131,-18.8131,-18.8131,-18.8131,-18.8131,-18.7879,-18.7293,-18.6191,-18.5951,-18.5343,-18.4263,-18.4926,-18.581,-18.6915,-18.9126,-19.0157,-8.1406,-8.1334,-8.1244,-8.182,-8.182,-7.9749,-7.1489,-6.8698,-6.5457,-5.7094,-5.4912,-5.538,-5.8465,-6.1093,-6.5596,-7.4338,-7.9046,-8.5607,-9.7317,-9.9479,-10.1853,-10.7075,-10.6894,-10.6335,-10.6272,-11.2749,-11.7543,-11.8802,-12.5389,-12.9309,-12.9494,-12.9494,-12.9494,-12.9494,-12.9494,-12.9494,-12.9494,-12.9494,-13.0327,-13.2321,-13.436,-13.6515,-13.8619,-14.2032,-14.4812,-14.6558,-14.6827,-14.8068,-14.9837,-14.8912,-15.0333,-15.3118,-15.4751,-15.7017,-15.9938,-16.2881,-16.4144,-16.4506,-16.6022,-16.7611,-16.8983,-16.8983,-17.0569,-17.2754,-17.3989,-17.4012,-17.3883,-17.5027,-17.554,-17.5724,-17.5724,-17.7003,-17.8335,-17.8518,-17.8616,-17.8663,-17.9005,-18.0255,-18.1886,-18.3854,-18.5549,-18.7171,-18.9209,-19.0775,-19.1312,-18.9773,-19.0805,-19.1259,-18.9744,-18.9069,-18.8713,-18.8713,-18.8386,-18.8131,-18.8131,-18.8131,-18.8131,-18.8131,-18.8131,-18.8131,-18.8131,-18.7491,-18.6869,-18.6191,-18.5531,-18.4889,-18.4263,-18.581,-18.6768,-18.7136,-19.0083,-19.1557,-8.0629,-8.1095,-8.182,-8.2393,-8.2202,-7.9956,-7.281,-7.0324,-6.7111,-5.8546,-5.7109,-5.7564,-5.8426,-6.4289,-7.0147,-7.4257,-8.5449,-9.4785,-9.8425,-10.3699,-10.7339,-10.7655,-10.822,-10.8738,-10.9287,-11.4643,-11.9022,-12.1823,-12.5635,-12.8327,-12.9432,-12.9494,-12.9494,-12.9494,-12.9494,-12.9494,-12.9494,-12.9494,-13.0327,-13.2321,-13.436,-13.7035,-14.0307,-14.3565,-14.6291,-14.8174,-15.0531,-15.0906,-15.0041,-15.3402,-15.4549,-15.4681,-15.7432,-15.9562,-16.1486,-16.3306,-16.4794,-16.6094,-16.7683,-16.9272,-17.0716,-17.0716,-17.1383,-17.2145,-17.2008,-17.2533,-17.3301,-17.3736,-17.4747,-17.5724,-17.5724,-17.7003,-17.8281,-17.8335,-17.8468,-17.8663,-17.9005,-17.9349,-18.0526,-18.3627,-18.4565,-18.5788,-18.8977,-18.9799,-18.9952,-18.9593,-18.982,-18.9896,-18.9593,-18.9069,-18.8713,-18.8713,-18.8386,-18.8131,-18.8131,-18.8131,-18.8131,-18.8131,-18.8131,-18.8131,-18.8131,-18.7491,-18.6869,-18.6191,-18.5531,-18.4889,-18.4263,-18.4631,-18.6179,-18.8684,-18.9347,-19.1041,-8.1851,-8.1923,-8.2393,-8.2825,-8.3192,-8.2008,-7.6552,-7.4466,-7.1537,-6.4166,-6.1716,-6.0856,-6.0996,-6.6847,-7.3204,-7.7379,-8.7875,-9.6737,-10.0165,-10.3805,-10.6763,-10.8381,-10.8478,-10.9447,-11.1655,-11.5752,-11.9681,-12.2649,-12.5799,-12.8019,-12.9371,-12.9494,-12.9494,-12.9494,-12.9494,-12.9494,-12.9494,-13.0388,-13.1796,-13.3858,-13.6552,-13.9206,-14.2053,-14.5346,-14.75,-14.9049,-15.2019,-15.2963,-15.253,-15.5584,-15.7054,-15.7229,-15.9716,-16.1559,-16.3133,-16.5444,-16.6816,-16.7755,-16.9344,-17.0499,-17.1053,-17.005,-17.0498,-17.1548,-17.1286,-17.1531,-17.1953,-17.2137,-17.3318,-17.4597,-17.4597,-17.6401,-17.8281,-17.8281,-17.8418,-17.8663,-17.8755,-17.8976,-18.0128,-18.3686,-18.4393,-18.5493,-18.8981,-19.0228,-19.0426,-18.9669,-19.0199,-19.0426,-18.9593,-18.9069,-18.8713,-18.8713,-18.8386,-18.8131,-18.8131,-18.8131,-18.8131,-18.8131,-18.8131,-18.8014,-18.7694,-18.7081,-18.6424,-18.5702,-18.5073,-18.4583,-18.4263,-18.5074,-18.64,-18.8021,-18.8831,-19.0526,-8.2993,-8.3014,-8.2825,-8.3203,-8.4078,-8.3919,-8.0231,-7.8581,-7.6381,-7.066,-6.7321,-6.5275,-6.5065,-7.0415,-7.6324,-8.1177,-8.9299,-9.6737,-10.1748,-10.2644,-10.4419,-10.8956,-10.8822,-11.0065,-11.3957,-11.7045,-12.0062,-12.3059,-12.5757,-12.7712,-12.9064,-12.9371,-12.9494,-12.9494,-12.9494,-12.9494,-12.9494,-13.1714,-13.3667,-13.5677,-13.8979,-14.1841,-14.4444,-14.6928,-14.8848,-15.0361,-15.3138,-15.4606,-15.5451,-15.735,-15.8616,-15.9543,-16.1224,-16.2614,-16.4,-16.6889,-16.79,-16.8189,-16.9849,-17.0475,-17.0441,-16.8638,-16.9211,-17.069,-17.0685,-17.0462,-17.03,-17.0408,-17.1664,-17.3017,-17.3318,-17.5574,-17.7905,-17.8206,-17.8418,-17.8616,-17.8616,-17.8902,-18.0152,-18.3428,-18.4285,-18.5512,-18.8699,-19.0611,-19.1108,-18.9744,-19.0729,-19.1108,-18.9669,-18.9069,-18.8788,-18.8744,-18.8386,-18.8131,-18.8131,-18.8131,-18.8131,-18.8131,-18.8073,-18.7756,-18.715,-18.6424,-18.5786,-18.5254,-18.4583,-18.4263,-18.4263,-18.5663,-18.6547,-18.6842,-18.8168,-18.9538,-8.2548,-8.3392,-8.3392,-8.3392,-8.3497,-8.2917,-8.0074,-7.9391,-7.8414,-7.4115,-7.2513,-7.131,-7.0257,-7.6693,-8.2231,-8.3023,-9.2517,-10.0429,-10.2222,-10.333,-10.5558,-10.97,-11.0791,-11.2836,-11.619,-11.8775,-12.1635,-12.4796,-12.5363,-12.6299,-12.7651,-12.8818,-12.9494,-12.9494,-12.9494,-12.9494,-12.9494,-13.2714,-13.5383,-13.7409,-13.9502,-14.3075,-14.7804,-14.8207,-15.0264,-15.3679,-15.5546,-15.6506,-15.7115,-15.9928,-16.037,-15.9598,-16.1131,-16.1863,-16.2267,-16.4,-16.465,-16.4867,-16.6455,-16.7657,-16.8419,-16.8354,-16.8749,-16.9119,-16.859,-16.8482,-16.8604,-16.8656,-16.9935,-17.1514,-17.3017,-17.4672,-17.6401,-17.7905,-17.8418,-17.8616,-17.8616,-17.8902,-17.9895,-18.1992,-18.3519,-18.5133,-18.7183,-18.8842,-18.9744,-18.9593,-18.9744,-18.9744,-18.9517,-18.9069,-18.87,-18.8588,-18.8355,-18.8131,-18.8131,-18.8131,-18.8131,-18.8131,-18.7694,-18.7293,-18.715,-18.6032,-18.5343,-18.5254,-18.4583,-18.4263,-18.4263,-18.4484,-18.5368,-18.6842,-18.7063,-18.7636,-8.0807,-8.239,-8.3392,-8.3392,-8.3867,-8.4078,-8.2835,-8.3151,-8.3023,-7.9993,-7.7941,-7.6324,-7.4425,-8.028,-8.5132,-8.4447,-9.2992,-10.0564,-10.3034,-10.385,-10.64,-11.2383,-11.3665,-11.5215,-11.8595,-11.9903,-12.1539,-12.4149,-12.5685,-12.7159,-12.8511,-12.9125,-12.9801,-13.0538,-13.0538,-13.0907,-13.1767,-13.5739,-13.845,-14.013,-14.3738,-14.6726,-14.8914,-14.9724,-15.1615,-15.4458,-15.6986,-15.7605,-15.7409,-16.143,-16.1626,-15.9575,-16.2035,-16.2484,-16.1978,-16.4433,-16.4794,-16.4405,-16.6536,-16.6782,-16.6191,-16.6863,-16.7706,-16.8378,-16.8024,-16.8143,-16.8356,-16.8356,-16.9559,-17.1288,-17.2942,-17.4521,-17.6176,-17.783,-17.8418,-17.871,-17.8745,-17.9003,-17.9516,-18.0558,-18.2807,-18.5113,-18.6859,-18.8463,-18.9517,-18.9517,-18.9517,-18.9488,-18.9319,-18.8993,-18.87,-18.8614,-18.83,-18.8131,-18.8131,-18.8131,-18.8131,-18.8131,-18.7555,-18.7011,-18.6724,-18.5702,-18.5073,-18.4775,-18.4388,-18.4263,-18.4263,-18.4263,-18.4631,-18.5368,-18.5368,-18.5944,-7.8803,-8.0702,-8.2231,-8.3128,-8.4025,-8.4711,-8.5027,-8.6029,-8.6504,-8.5027,-8.3128,-8.1177,-7.9383,-8.4078,-8.7823,-8.6609,-9.3888,-10.072,-10.3342,-10.4542,-10.7645,-11.4306,-11.5454,-11.7126,-12.0355,-12.105,-12.1856,-12.3289,-12.5931,-12.7897,-12.8879,-12.9309,-13.0047,-13.1337,-13.1398,-13.2258,-13.3978,-13.7128,-13.9734,-14.2181,-14.6989,-14.9616,-15.0023,-15.1106,-15.2797,-15.4725,-15.7316,-15.8207,-15.7912,-16.1814,-16.1867,-15.9595,-16.1978,-16.1906,-16.0823,-16.3567,-16.3856,-16.3291,-16.6093,-16.6191,-16.5115,-16.6074,-16.7081,-16.7917,-16.7917,-16.8143,-16.8431,-16.8882,-16.9559,-17.0837,-17.3318,-17.4521,-17.5649,-17.7755,-17.8418,-17.868,-17.8788,-17.9084,-17.9351,-17.9571,-18.1641,-18.3902,-18.5625,-18.7554,-18.8911,-18.8911,-18.9214,-18.9306,-18.854,-18.8571,-18.8654,-18.8513,-18.8245,-18.8131,-18.8131,-18.8131,-18.8073,-18.7954,-18.7293,-18.665,-18.5951,-18.5343,-18.4775,-18.4263,-18.4263,-18.4263,-18.4263,-18.4705,-18.4926,-18.4926,-18.5295,-18.5693,-7.6693,-7.8275,-7.9172,-8.2548,-8.3392,-8.3761,-8.4816,-8.6029,-8.719,-8.8139,-8.7401,-8.6504,-8.6398,-8.9352,-9.1409,-9.0249,-9.6909,-10.2143,-10.2197,-10.5707,-10.9569,-11.3838,-11.5889,-11.8135,-12.0938,-12.2552,-12.3289,-12.3412,-12.5931,-12.7467,-12.7589,-12.8757,-13.0047,-13.1337,-13.1398,-13.2688,-13.533,-13.4313,-13.6826,-14.2493,-14.7112,-15.0158,-15.208,-15.2148,-15.3197,-15.5056,-15.6688,-15.8157,-15.932,-16.1103,-16.0863,-15.9378,-15.9523,-15.8584,-15.7356,-15.9089,-15.9667,-16.0076,-16.363,-16.5263,-16.6074,-16.7014,-16.7617,-16.7917,-16.7917,-16.8143,-16.8656,-17.0311,-16.9634,-16.9559,-17.4371,-17.4521,-17.4296,-17.7529,-17.8418,-17.868,-17.8788,-17.9167,-17.9429,-17.9576,-17.9846,-18.0577,-18.2157,-18.5078,-18.7093,-18.7093,-18.8457,-18.8789,-18.6833,-18.7807,-18.8608,-18.8245,-18.8131,-18.8131,-18.8131,-18.8131,-18.7879,-18.7293,-18.665,-18.5951,-18.5343,-18.4679,-18.4363,-18.4263,-18.4263,-18.4263,-18.4263,-18.5884,-18.6694,-18.6694,-18.8242,-18.8272,-7.5427,-7.701,-7.8064,-8.2284,-8.3392,-8.3497,-8.3867,-8.4869,-8.6082,-8.7295,-8.719,-8.7137,-8.7875,-9.2587,-9.5672,-9.2937,-9.8631,-10.3886,-10.5392,-10.7157,-11.0396,-11.584,-11.8208,-11.9842,-12.1131,-12.3412,-12.5071,-12.5931,-12.7712,-12.8757,-12.8757,-12.9985,-13.1337,-13.2688,-13.3548,-13.5626,-13.9191,-13.9228,-14.172,-14.6647,-14.996,-15.1933,-15.2641,-15.2641,-15.4042,-15.6619,-15.8157,-15.8968,-15.9479,-16.115,-16.0144,-15.7862,-15.8945,-15.8367,-15.7212,-15.9884,-16.0548,-16.0813,-16.4266,-16.5763,-16.615,-16.7081,-16.7678,-16.8142,-16.9117,-16.972,-17.0311,-17.204,-17.204,-17.219,-17.4972,-17.5273,-17.5424,-17.7679,-17.8512,-17.8788,-17.8913,-17.9226,-17.9574,-17.9702,-17.9733,-18.0274,-18.1854,-18.3079,-18.4245,-18.5227,-18.5881,-18.5912,-18.4903,-18.6221,-18.7099,-18.6609,-18.753,-18.8131,-18.8131,-18.7756,-18.7426,-18.7225,-18.6191,-18.5445,-18.5254,-18.4583,-18.4263,-18.4263,-18.4263,-18.4263,-18.4263,-18.4853,-18.5737,-18.6842,-18.6943,-18.7137,-7.1946,-7.4056,-7.6166,-8.0069,-8.2179,-8.3392,-8.3392,-8.4552,-8.5924,-8.6715,-8.7506,-8.8297,-8.9036,-9.3496,-9.6634,-9.5099,-10.0126,-10.478,-10.7291,-10.9271,-11.2038,-11.6856,-11.9024,-12.0632,-12.1938,-12.4088,-12.5992,-12.7344,-12.8695,-12.9494,-12.9494,-13.0722,-13.2074,-13.3487,-13.4777,-13.7436,-14.1262,-14.1796,-14.4246,-14.8874,-15.0635,-15.1944,-15.2736,-15.3312,-15.4582,-15.6643,-15.8617,-15.9418,-15.9472,-16.0576,-15.9667,-15.779,-15.8295,-15.7862,-15.7251,-16.0259,-16.1699,-16.2457,-16.5077,-16.6597,-16.7411,-16.811,-16.8877,-16.9792,-17.09,-17.1447,-17.204,-17.3694,-17.3769,-17.3845,-17.6025,-17.5724,-17.5348,-17.7057,-17.7712,-17.8009,-17.8249,-17.8994,-17.9649,-17.9797,-17.9833,-18.0106,-18.1171,-18.1282,-18.1843,-18.3409,-18.3685,-18.3627,-18.3285,-18.5096,-18.6194,-18.5706,-18.7154,-18.8073,-18.7818,-18.7426,-18.7011,-18.6575,-18.6222,-18.5757,-18.4963,-18.5076,-18.4853,-18.4263,-18.4263,-18.4263,-18.4263,-18.4576,-18.5356,-18.6459,-18.644,-18.6867,-6.6415,-6.9362,-7.3423,-7.5849,-7.9805,-8.3181,-8.3181,-8.5027,-8.6715,-8.6873,-8.8719,-9.0302,-9.0354,-9.22,-9.4574,-9.6747,-10.0978,-10.4841,-10.7418,-11.1352,-11.4497,-11.6338,-11.831,-12.0402,-12.3105,-12.4579,-12.5931,-12.7405,-12.8757,-12.9494,-12.9494,-13.0722,-13.2074,-13.3698,-13.499,-13.7498,-14.1466,-14.1466,-14.3987,-14.9117,-14.8941,-15.0293,-15.2736,-15.4272,-15.4965,-15.5195,-15.816,-15.94,-15.9455,-15.9424,-15.9378,-15.9234,-15.7573,-15.6923,-15.7178,-15.9981,-16.2435,-16.4769,-16.5763,-16.7706,-16.9885,-16.9938,-17.1247,-17.2776,-17.2892,-17.3135,-17.3694,-17.5198,-17.4521,-17.407,-17.7303,-17.5724,-17.3822,-17.5431,-17.6136,-17.6374,-17.664,-17.8252,-17.9646,-17.9797,-17.9818,-17.9768,-17.9806,-17.9668,-18.0203,-18.1818,-18.2018,-18.2018,-18.2018,-18.4456,-18.6043,-18.5556,-18.7003,-18.7804,-18.7143,-18.7,-18.65,-18.5195,-18.6663,-18.6443,-18.4189,-18.5737,-18.581,-18.4116,-18.4116,-18.4116,-18.4116,-18.5147,-18.5634,-18.5707,-18.6762,-18.7665,-7.2684,-7.1999,-7.1577,-7.6429,-7.7959,-7.8539,-7.9383,-8.0755,-8.2812,-8.6187,-8.8086,-8.9352,-9.0196,-9.4708,-9.8314,-9.7507,-10.2791,-10.7027,-10.8,-11.0278,-11.2821,-11.4809,-11.7509,-12.0402,-12.3105,-12.3719,-12.5317,-12.8695,-12.9248,-12.9494,-12.9494,-13.1644,-13.4041,-13.6211,-13.8537,-14.2027,-14.6826,-14.6522,-14.8229,-15.1778,-15.1513,-15.1846,-15.2736,-15.3152,-15.4579,-15.6648,-15.8627,-15.9972,-16.1009,-15.9842,-15.9378,-15.9306,-15.8873,-15.8656,-15.9024,-16.2388,-16.4488,-16.5763,-16.6663,-16.7512,-16.8216,-16.8278,-16.9583,-17.124,-17.1297,-17.2309,-17.3469,-17.392,-17.3694,-17.3619,-17.4521,-17.407,-17.3549,-17.4241,-17.5404,-17.6526,-17.6793,-17.8361,-17.9744,-17.9785,-17.9818,-17.9768,-17.9806,-17.9668,-17.9749,-18.02,-18.0276,-18.0276,-18.0276,-18.0639,-18.1214,-18.2021,-18.3544,-18.4273,-18.3697,-18.3284,-18.261,-18.1783,-18.1763,-18.1364,-18.0727,-18.1169,-18.1242,-18.0727,-18.0727,-18.0727,-18.0727,-18.107,-18.1576,-18.2333,-18.3359,-18.4387,-6.8359,-6.6777,-6.6408,-7.1735,-7.2526,-7.337,-7.8434,-7.9672,-8.0862,-8.5906,-8.8363,-9.0273,-9.1598,-9.5033,-9.8109,-9.9589,-10.3024,-10.6571,-10.8765,-11.0103,-11.1812,-11.4569,-11.696,-11.9542,-12.2306,-12.3597,-12.5685,-12.9187,-12.9494,-12.9678,-13.0231,-13.1767,-13.4311,-13.7633,-13.9616,-14.3018,-14.8586,-14.8586,-14.9948,-15.2736,-15.2641,-15.2641,-15.2736,-15.3471,-15.4965,-15.7417,-15.9472,-16.0844,-16.1617,-16.0028,-15.9739,-16.0317,-15.9595,-16.0076,-16.1236,-16.4134,-16.5603,-16.615,-16.7147,-16.7991,-16.8652,-16.8833,-17.0133,-17.1672,-17.1728,-17.2588,-17.3393,-17.3393,-17.3393,-17.3371,-17.3498,-17.2947,-17.2395,-17.2851,-17.3738,-17.4552,-17.4849,-17.6975,-17.8861,-17.8861,-17.9347,-17.9826,-17.9806,-17.9721,-17.9648,-17.9594,-17.9594,-17.9594,-17.9594,-17.9127,-17.9373,-18.0828,-18.1677,-18.2351,-18.2831,-18.239,-18.1744,-18.1116,-18.1313,-18.08,-17.9474,-18.0064,-18.0137,-17.9401,-17.9401,-17.9401,-17.9401,-17.9563,-18.0059,-18.0692,-18.1472,-18.1507,-5.8124,-5.7753,-5.9978,-6.4217,-6.5276,-6.782,0.0,-7.8569,-7.9141,-8.4249,-8.7844,-9.0587,-9.2587,-9.3578,-9.5964,-10.1543,-10.2799,-10.489,-10.933,-11.0295,-11.1574,-11.4566,-11.5979,-11.7884,-12.0832,-12.3597,-12.6299,-12.9064,-12.9371,-13.0047,-13.1337,-13.1606,-13.3896,-13.8643,-13.9637,-14.2759,-14.8453,-14.905,-15.0464,-15.2736,-15.2736,-15.2736,-15.2898,-15.4272,-15.5785,-15.7417,-16.029,-16.1574,-16.1617,-16.0173,-16.0462,-16.1545,-16.0286,-16.1202,-16.3461,-16.5366,-16.6074,-16.6299,-16.7203,-16.8577,-16.9912,-17.0208,-17.1447,-17.2779,-17.2814,-17.2942,-17.3017,-17.2867,-17.2844,-17.2922,-17.3185,-17.1954,-17.0823,-17.1414,-17.1597,-17.1776,-17.2202,-17.4843,-17.7191,-17.7191,-17.842,-17.9503,-17.9483,-17.9546,-17.9594,-17.9594,-17.9594,-17.9594,-17.9594,-17.9127,-17.95,-18.1237,-18.1004,-18.1465,-18.3065,-18.2496,-18.1799,-18.1193,-18.2421,-18.1905,-17.8958,-18.0285,-18.0506,-17.9179,-17.8958,-17.8885,-17.8885,-17.9334,-17.9409,-17.9409,-17.9912,-17.8578,0.0,0.0,0.0,0.0,0.0,0.0,0.0,-6.7887,-6.9686,-7.4642,-7.8594,-8.2244,-8.5812,-9.0767,-9.5335,-9.902,-10.3031,-10.6288,-10.7528,-10.9662,-11.1257,-11.1986,-11.3215,-11.5549,-11.9358,-12.2184,-12.4948,-12.7651,-12.8879,-13.0047,-13.1337,-13.2982,-13.6007,-14.0431,-14.328,-14.648,-15.0013,-15.14,-15.2341,-15.2736,-15.2736,-15.2736,-15.2898,-15.4272,-15.5785,-15.7417,-15.9088,-16.0532,-16.1689,-16.14,-16.14,-16.1731,-16.2181,-16.3142,-16.4411,-16.5529,-16.652,-16.7147,-16.7405,-16.7889,-16.8442,-16.8538,-16.9775,-17.101,-16.9709,-17.0311,-17.1062,-16.9709,-16.9479,-16.9638,-16.9644,-16.9565,-16.9515,-16.9864,-17.1004,-17.204,-17.2349,-17.3964,-17.5446,-17.5446,-17.6692,-17.7778,-17.7739,-17.8811,-17.9572,-17.9594,-17.9594,-17.9594,-17.9594,-17.9127,-17.95,-18.1237,-18.1004,-18.0684,-18.0568,-17.8358,-17.6691,-17.6107,-17.6232,-17.6159,-17.5496,-17.579,-17.6453,-17.7485,-17.6159,-17.5496,-17.5496,-17.5174,-17.4729,-17.419,-17.5187,-17.4042,0.0,0.0,0.0,0.0,0.0,0.0,0.0,0.0,0.0,0.0,0.0,-7.759,-8.1807,0.0,-9.3176,-9.7936,-10.2713,-10.6473,-10.7993,-10.8792,-10.9222,-10.9222,-11.2232,-11.5303,-11.8006,-12.1385,-12.3965,-12.5317,-12.6054,-12.7685,-13.0805,-13.2055,-13.5705,-14.2573,-14.4334,-14.7056,-15.0925,-15.1482,-15.1985,-15.2736,-15.2736,-15.2736,-15.2898,-15.5115,-15.6506,-15.7417,-15.9598,-16.1035,-16.1689,-16.1689,-16.1689,-16.1917,-16.3335,-16.4502,-16.5366,-16.6374,-16.6946,-16.7352,-16.7542,-16.7724,-16.7917,-16.8087,-16.8777,-16.9483,-16.8581,-16.8957,-16.9634,-16.9634,-16.9195,-16.8966,-16.9902,-16.9637,-16.9185,-16.9605,-17.0223,-17.0839,-17.1116,-17.2511,-17.3701,-17.3701,-17.4962,-17.6279,-17.7132,-17.7187,-17.7144,-17.7095,-17.7095,-17.7095,-17.7095,-17.6742,-17.6287,-17.604,-17.7132,-17.7179,-17.5456,-17.618,-17.6543,-17.5886,-17.5054,-17.4538,-17.4538,-17.3801,-17.3801,-17.4612,-17.3801,-17.2991,-17.2254,-17.2212,-17.1885,-17.1564,-17.0325,-16.9394,0.0,0.0,0.0,0.0,0.0,0.0,0.0,0.0,0.0,0.0,0.0,0.0,0.0,0.0,0.0,-9.604,-10.1627,-10.5905,-10.8116,-10.7256,-10.6703,-10.7441,-11.1433,-11.4812,-11.6655,-12.0341,-12.2736,-12.2982,-12.3474,-12.5621,-12.9803,-13.0942,-13.5049,-14.3713,-14.4485,-14.6793,-15.07,-15.0911,-15.1576,-15.2736,-15.2736,0.0,-15.3312,-15.6001,-15.7417,-15.7827,-16.0604,-16.1689,-16.1689,-16.1689,-16.1689,-16.1917,-16.3633,-16.503,-16.615,-16.6715,-16.7128,-16.7342,-16.7229,-16.7559,-16.7975,-16.8143,-16.8251,-16.8356,-16.8356,-16.8356,0.0,-17.001,-16.9617,-16.9263,-17.118,-17.0731,-16.9983,-17.0693,-17.0693,-17.0616,-17.0812,-17.198,-17.279,-17.2487,-17.3673,-17.5083,-17.6147,-17.5161,-17.4134,-17.3637,-17.361,-17.361,-17.361,-17.3868,-17.3453,-17.1908,-17.4226,-17.4918,-17.246,-17.496,-17.6617,-17.6623,-17.4464,-17.3064,-17.277,-17.1517,-17.0707,-17.0338,-16.9951,-16.9656,-16.9381,-16.9388,-16.9595,-16.9814,-16.257,-16.1366,0.0,0.0,0.0,0.0,0.0,0.0,0.0,0.0,0.0,0.0,0.0,0.0,0.0,0.0,0.0,0.0,-9.9016,-10.529,-10.5536,-10.4492,-10.4983,-10.8546,-10.9529,-11.1372,-11.5119,-11.8129,-12.0279,-12.1508,-12.3842,-12.6178,-12.8731,-13.1913,0.0,0.0,0.0,-14.7799,-14.8619,-15.1234,-15.2599,-15.2736,-15.2736,-15.3471,-15.4814,-15.6576,-15.7962,-15.9274,-16.0963,-16.1689,-16.1689,-16.1689,-16.1689,-16.1803,-16.2823,-16.4337,-16.6002,-16.5446,-16.622,-16.7379,-16.6134,0.0,0.0,-16.8304,-16.8356,-16.8356,-16.8356,-16.8356,-16.8356,-16.8581,-16.8849,-16.9467,-17.1187,-17.1852,-17.2436,-17.4034,-17.4334,-17.4318,-17.4388,-17.4506,-17.4232,-17.2714,-17.3777,-17.4507,-17.3057,-17.2617,-17.1967,-17.0278,-17.005,-17.005,-17.005,-17.2321,-17.44,-17.5566,-17.7794,0.0,-17.7992,-17.4025,-17.2472,-17.4685,-17.0633,-16.7539,-16.6139,-16.5992,-16.5107,-16.3634,-16.1801,-16.3125,-16.7686,-16.6125,-16.6468,-16.799,-14.853,-14.4817,0.0,0.0,0.0,0.0,0.0,0.0,0.0,0.0,0.0,0.0,0.0,0.0,0.0,0.0,0.0,0.0,-9.3199,-9.841,-9.9147,-10.2895,-10.5598,-10.572,-10.8485,-11.1065,-11.2785,-11.6041,-11.8314,-11.8928,-12.1281,-12.4653,-12.9155,-13.1278,-13.5275,-14.1251,-14.37,-14.5488,-14.6689,-14.8073,-14.9255,-15.0211,-15.103,-15.2256,-15.3796,-15.6156,-15.8097,-15.94,-16.1035,-16.1689,-16.1689,-16.1689,-16.2069,-16.2579,0.0,0.0,0.0,0.0,-16.6357,-16.6106,-16.5609,-16.6005,-16.6791,-16.7897,-16.8304,-16.8356,-16.8356,-16.8356,-16.8581,-16.9559,-16.9493,-16.952,-17.1187,-17.1348,-17.1453,-17.3122,-17.3493,-17.3773,-17.4752,-17.4951,-17.4763,-17.4004,-17.437,0.0,-17.3815,-17.2921,-17.2246,-17.2399,-17.1641,-17.1338,-17.2323,-17.3405,-17.3839,-17.3054,-17.5219,-17.5969,-17.4179,-17.3372,0.0,0.0,0.0,-17.0854,-16.9307,-16.9233,0.0,0.0,0.0,-15.7561,-15.6589,-15.1553,0.0,0.0,-14.0901,-13.9149,0.0,0.0,0.0,0.0,0.0,0.0,0.0,0.0,0.0,0.0,0.0,0.0,0.0,0.0,0.0,0.0,-8.7504,-9.2697,-9.3312,-9.8779,-10.2588,-10.2158,-10.6519,-10.9713,-11.0082,-11.3948,-11.6777,-11.7146,-11.9236,-12.2774,-12.8596,-13.0528,-13.4512,-14.1353,-14.2702,-14.3878,-14.4966,-14.5619,-14.6525,-14.7686,-14.9592,-15.129,-15.2851,-15.5871,-15.7775,-15.8878,-16.0405,-16.1039,-16.1039,-16.1039,-16.1745,-16.2823,-16.3693,-16.4105,-16.4534,-16.6206,-16.5833,-16.4533,-16.4767,-16.516,-16.5943,-16.7596,-16.8251,-16.8356,-16.8356,-16.8356,-16.8581,-16.9861,-16.9721,-16.9546,-17.1261,-17.1221,-17.1149,-17.274,-17.3108,-17.3469,-17.4667,-17.494,-17.4915,-17.4915,-17.4871,-17.4441,-17.3493,-17.2292,-17.1389,-17.1187,-17.005,-16.9747,-17.0959,-17.2075,-17.2138,-17.076,-17.3256,-17.419,-17.2142,-17.2417,-17.3138,-17.4464,-17.3285,-17.2475,-17.2254,-17.0117,-16.7981,-16.6065,-15.9669,-15.3859,0.0,0.0,0.0,0.0,0.0,0.0,0.0,0.0,0.0,0.0,0.0,0.0,0.0,0.0,0.0,0.0,0.0,0.0,0.0,0.0,0.0,0.0,0.0,0.0,-8.9442,-9.0547,-9.3435,-9.8595,-10.2833,-10.5843,-10.7195,-11.1877,-11.5522,-11.7024,-11.8786,-12.1563,-12.6006,-12.9558,-13.3926,-13.9279,-14.2362,-14.3864,-14.3932,-14.5297,-14.5979,-14.6048,-14.8946,-15.1178,-15.2702,-15.5645,-15.7015,-15.7067,-15.8728,-15.9451,-15.9451,-15.9451,-16.0317,-16.1812,-16.2068,-16.275,-16.3846,-16.4896,-16.4234,-16.2795,-16.3078,-16.4343,-16.61,-16.7754,-16.8356,-16.8356,-16.8356,-16.8356,-16.8382,-16.8732,-16.8952,-16.957,-17.1533,-17.2186,-17.2743,-17.4486,-17.4855,-17.4912,-17.4895,-17.494,-17.4915,-17.4915,-17.4855,-17.372,-17.0384,-16.9693,-16.793,-16.3233,-16.2476,0.0,-16.2476,-16.6348,-16.9445,-17.0362,-17.4055,-17.6124,-17.5479,-17.0644,-16.9602,-17.4243,-17.0191,-16.9012,-17.2107,-16.4665,-16.1203,-16.2602,-15.7375,-15.2742,-14.8865,0.0,0.0,0.0,0.0,0.0,0.0,0.0,0.0,0.0,0.0,0.0,0.0,0.0,0.0,0.0,0.0,0.0,0.0,0.0,0.0,0.0,0.0,0.0,0.0,-8.7537,-9.3213,-9.5593,-9.8968,-10.0728,-9.9598,-10.5499,-11.0198,-11.2199,-11.8345,-12.3727,-12.8036,-12.9876,-13.3051,-13.7722,-13.9837,-14.1339,-14.2294,-14.3795,-14.4457,-14.4326,-14.6424,-14.8664,-15.1012,-15.3091,-15.4938,-15.6923,-15.7429,-15.8367,-15.9378,-15.9378,-15.8738,-15.7913,-15.8607,-16.0171,-16.2136,-16.3176,-16.1896,-15.9612,-15.9829,-15.9609,-15.9859,-16.3844,-16.6551,-16.8356,-16.8356,-16.8356,-16.8382,-16.8657,-16.8909,-16.9267,-17.0167,-17.0592,-17.1301,-17.2892,-17.326,-17.3621,-17.4743,-17.494,-17.4915,-17.4915,-17.2107,-16.9358,-16.8185,-16.9769,-16.9899,-16.6036,-16.7324,-16.9066,-17.0202,-17.1545,-17.2365,-17.2143,-17.2896,-17.3146,-17.2364,-16.9314,-16.857,-17.1296,-16.997,-16.9528,-17.0633,-16.6949,-16.4739,-16.4223,-16.1246,-15.2938,-13.8854,0.0,0.0,0.0,0.0,0.0,0.0,0.0,0.0,0.0,0.0,0.0,0.0,0.0,0.0,0.0,0.0,0.0,0.0,0.0,0.0,0.0,0.0,0.0,0.0,0.0,0.0,-9.3467,-9.646,0.0,-9.4802,-10.0005,-10.4162,-10.5204,-11.1687,-11.8185,-12.417,-12.5737,-12.9236,-13.5265,-13.6971,-13.8199,-13.9155,-14.1181,-14.232,-14.2757,-14.5247,-14.7751,-15.0125,-15.2242,-15.354,-15.4395,-15.4973,-15.5479,-15.6094,-15.6927,-15.6107,-15.42,-15.354,-15.4118,-15.5367,-15.7676,-15.7192,-15.5821,-15.8305,-15.8532,-15.8205,-16.1513,-16.3266,-16.3935,-16.3332,-16.2368,-16.1599,-16.2555,-16.4218,-16.608,-16.7513,-16.8941,-17.0236,-17.1291,-17.1503,-17.1792,-17.2902,-17.2196,-17.1714,-17.2928,-17.0421,-16.6932,-16.3389,-16.5303,-16.608,-16.24,-16.4442,-16.7849,-17.149,-17.215,-17.1948,-17.0964,-17.0886,-17.0539,-16.9585,-16.8177,-16.8128,-16.9749,-16.9896,-16.9602,-16.9012,-16.7391,-16.5164,-16.2277,-15.864,-14.8947,0.0,0.0,0.0,0.0,0.0,0.0,0.0,0.0,0.0,0.0,0.0,0.0,0.0,0.0,0.0,0.0,0.0,0.0,0.0,0.0,0.0,0.0,0.0,0.0,0.0,0.0,0.0,-9.229,-9.4893,0.0,0.0,0.0,0.0,-9.6397,-9.9584,-10.547,-11.4435,-11.7179,-12.2571,-13.1511,-13.3286,-13.4309,-13.4862,-13.7568,-13.9635,-14.1295,-14.5429,-14.827,-14.9886,-15.28,-15.2446,-14.9774,-15.1362,-15.129,-15.0096,-15.1553,-15.1381,-14.9925,-14.6712,-14.4582,-14.3929,-14.8366,-14.9894,-15.072,-15.7554,-15.9934,-15.9934,-15.9983,-15.7955,-15.5187,-15.3372,-15.065,0.0,0.0,-15.4752,-15.9477,-16.3478,-16.6895,-16.9393,-16.9762,-16.9894,-16.9866,-16.9907,-16.7375,-16.5843,-16.8407,-16.8583,-16.5057,-15.4914,0.0,-15.626,-15.1799,-15.4008,-15.8787,-16.5832,-16.8011,-16.8411,-16.7299,-16.8193,-16.8452,-16.7335,-16.717,-16.7833,-16.9528,-16.9675,-16.8939,-16.7318,-16.5402,-16.1909,-15.6551,-14.9356,0.0,0.0,0.0,0.0,0.0,0.0,0.0,0.0,0.0,0.0,0.0,0.0,0.0,0.0,0.0,0.0,0.0,0.0,0.0,0.0,0.0,0.0,0.0,0.0,0.0,0.0,-7.6748,-8.0946,-8.9154,-8.7804,-8.5359,0.0,0.0,0.0,0.0,0.0,0.0,-10.4643,-10.7531,-11.2675,-12.0592,-12.2366,-12.6857,-13.4393,-13.645,-13.8532,-14.0807,-14.3073,-14.487,-14.6319,-14.7069,-14.7607,-14.8041,-14.9702,-15.0857,-15.0747,-13.9985,-13.647,-13.7402,-13.3501,-13.2208,-13.2881,-13.6615,-13.6332,-13.5325,-14.3423,-14.6174,-14.6218,-14.6323,-14.5795,-14.4434,-14.0337,0.0,0.0,0.0,0.0,-14.6664,-15.5278,-15.9062,-16.217,-16.8451,-16.9876,-16.9866,-16.9907,-16.921,-16.5947,-15.6739,-15.1675,-14.5287,-13.4082,-13.6593,0.0,-13.6634,-14.5635,-15.4649,-15.9942,-16.5137,-16.8006,-16.7154,-16.6815,-16.6344,-16.5713,-16.4444,-16.4444,-16.6139,-16.6286,-16.6065,-16.5697,-15.9097,-15.3114,-14.8264,0.0,0.0,0.0,0.0,0.0,0.0,0.0,0.0,0.0,0.0,0.0,0.0,0.0,0.0,0.0,0.0,0.0,0.0,0.0,0.0,0.0,0.0,0.0,0.0,0.0,0.0,0.0,-7.321,-7.8166,-8.3468,-8.0906,-7.8251,0.0,0.0,0.0,0.0,0.0,0.0,0.0,0.0,0.0,-10.922,-11.1277,-11.5986,-12.3926,-12.8144,-13.1997,-13.5569,-13.9,-14.1502,-14.2986,-14.4358,-14.4719,-14.4285,-14.5224,-14.4806,-14.2517,-13.2778,-12.8717,-12.7666,0.0,0.0,0.0,0.0,-12.1584,-12.1093,-12.884,-13.2452,-13.3501,-13.2031,0.0,0.0,0.0,0.0,0.0,0.0,0.0,-13.9941,-14.5779,-15.3434,-16.0632,-16.4563,-16.5539,-16.5757,-16.6416,-15.9015,-15.0155,-14.3279,-13.8246,-13.1766,-12.1456,-12.3038,0.0,0.0,0.0,-14.7491,-15.5294,-16.3227,-16.7552,-16.6058,-16.5183,-16.4477,-16.4017,-16.3044,-16.3192,-16.496,-16.5034,-16.3324,-15.9627,-15.2759,-14.4488,0.0,0.0,0.0,0.0,0.0,0.0,0.0,0.0,0.0,0.0,0.0,0.0,0.0,0.0,0.0,0.0,0.0,0.0,0.0,0.0,0.0,0.0,0.0,0.0,0.0,0.0,0.0,0.0,0.0,-7.6539,-7.7014,0.0,0.0,0.0,0.0,0.0,0.0,0.0,0.0,0.0,0.0,0.0,0.0,0.0,-10.373,-10.8983,-11.5999,-12.1798,-12.626,-13.199,-13.5354,-13.6461,-13.9643,-13.9933,-13.7908,-13.6701,0.0,-12.9557,-12.5707,0.0,0.0,0.0,0.0,0.0,0.0,0.0,0.0,0.0,0.0,0.0,0.0,0.0,0.0,0.0,0.0,0.0,0.0,0.0,0.0,0.0,0.0,-15.7798,-15.7418,-15.7625,-15.7753,-15.7043,-14.1687,-12.8177,-12.8389,-12.5741,-12.0603,0.0,0.0,0.0,0.0,0.0,0.0,-15.0606,-16.1432,-16.7145,-16.5023,-16.3994,-16.3359,-16.2912,-16.2823,-16.3339,-16.4665,-16.3339,-15.8965,-15.1264,-14.583,0.0,0.0,0.0,0.0,0.0,0.0,0.0,0.0,0.0,0.0,0.0,0.0,0.0,0.0,0.0,0.0,0.0,0.0,0.0,0.0,0.0,0.0,0.0,0.0,0.0,0.0,0.0,0.0,0.0,0.0,0.0,0.0,0.0,0.0,0.0,0.0,0.0,0.0,0.0,0.0,0.0,0.0,0.0,0.0,0.0,0.0,0.0,0.0,0.0,0.0,-11.6068,-11.7403,-11.5761,-11.8817,-12.2087,-12.4851,-11.7366,-11.634,-11.8899,-10.7687,0.0,0.0,0.0,0.0,0.0,0.0,0.0,0.0,0.0,0.0,0.0,0.0,0.0,0.0,0.0,0.0,0.0,0.0,0.0,0.0,0.0,0.0,-13.5151,-14.173,-14.5448,-14.4027,-13.1335,0.0,0.0,0.0,0.0,0.0,0.0,0.0,0.0,0.0,0.0,0.0,-14.3009,-15.766,-16.6968,-16.628,-16.5307,-16.4681,-16.4592,-16.4592,-16.415,-16.2971,-15.3961,-14.7393,0.0,0.0,0.0,0.0,0.0,0.0,0.0,0.0,0.0,0.0,0.0,0.0,0.0,0.0,0.0,0.0,0.0,0.0,0.0,0.0,0.0,0.0,0.0,0.0,0.0,0.0,0.0,0.0,0.0,0.0,0.0,0.0,0.0,0.0,0.0,0.0,0.0,0.0,0.0,0.0,0.0,0.0,0.0,0.0,0.0,0.0,0.0,0.0,0.0,0.0,0.0,0.0,0.0,0.0,0.0,0.0,0.0,0.0,-10.8639,-10.3716,0.0,0.0,0.0,0.0,0.0,0.0,0.0,0.0,0.0,0.0,0.0,0.0,0.0,0.0,0.0,0.0,0.0,0.0,0.0,0.0,0.0,0.0,0.0,0.0,0.0,0.0,0.0,0.0,0.0,0.0,0.0,0.0,0.0,0.0,0.0,0.0,0.0,0.0,0.0,0.0,-13.7029,-15.3321,-16.3905,-16.3623,-16.2981,-16.216,-16.1276,-16.1203,-15.8611,-15.2636,-14.6217,0.0,0.0,0.0,0.0,0.0,0.0,0.0,0.0,0.0,0.0,0.0,0.0,0.0,0.0,0.0,0.0,0.0,0.0,0.0,0.0,0.0,0.0,0.0,0.0,0.0,0.0,0.0,0.0,0.0,0.0,0.0,0.0,0.0,0.0,0.0,0.0,0.0,0.0,0.0,0.0,0.0,0.0,0.0,0.0,0.0,0.0,0.0,0.0,0.0,0.0,0.0,0.0,0.0,0.0,0.0,0.0,0.0,0.0,0.0,-10.1035,-9.3806,0.0,0.0,0.0,0.0,0.0,0.0,0.0,0.0,0.0,0.0,0.0,0.0,0.0,0.0,0.0,0.0,0.0,0.0,0.0,0.0,0.0,0.0,0.0,0.0,0.0,0.0,0.0,0.0,0.0,0.0,0.0,0.0,0.0,0.0,0.0,0.0,0.0,0.0,0.0,0.0,-13.2278,-14.9194,-16.0275,-15.9978,-15.9415,-15.855,-15.7224,-15.715,-15.2867,-14.2754,-13.8187,0.0,0.0,0.0,0.0,0.0,0.0,0.0,0.0,0.0,0.0,0.0,0.0,0.0,0.0,0.0,0.0,0.0,0.0,0.0,0.0,0.0,0.0,0.0,0.0,0.0,0.0,0.0,0.0,0.0,0.0,0.0,0.0,0.0,0.0,0.0,0.0,0.0,0.0,0.0,0.0,0.0,0.0,0.0,0.0,0.0,0.0,0.0,0.0,0.0,0.0,0.0,0.0,0.0,0.0,0.0,0.0,0.0,0.0,0.0,0.0,0.0,0.0,0.0,0.0,0.0,0.0,0.0,0.0,0.0,0.0,0.0,0.0,0.0,0.0,0.0,0.0,0.0,0.0,0.0,0.0,0.0,0.0,0.0,0.0,0.0,0.0,0.0,0.0,0.0,0.0,0.0,0.0,0.0,0.0,0.0,0.0,0.0,0.0,0.0,0.0,0.0,-12.8921,-14.5976,-15.7142,-15.6567,-15.6091,-15.5677,-15.553,-15.553,-15.1247,-14.1064,0.0,0.0,0.0,0.0,0.0,0.0,0.0,0.0,0.0,0.0,0.0,0.0,0.0,0.0,0.0,0.0,0.0,0.0,0.0,0.0,0.0,0.0,0.0,0.0,0.0,0.0,0.0,0.0,0.0,0.0,0.0,0.0,0.0,0.0,0.0,0.0,0.0,0.0,0.0,0.0,0.0,0.0,0.0,0.0,0.0,0.0,0.0,0.0,0.0,0.0,0.0,0.0,0.0,0.0,0.0,0.0,0.0,0.0,0.0,0.0,0.0,0.0,0.0,0.0,0.0,0.0,0.0,0.0,0.0,0.0,0.0,0.0,0.0,0.0,0.0,0.0,0.0,0.0,0.0,0.0,0.0,0.0,0.0,0.0,0.0,0.0,0.0,0.0,0.0,0.0,0.0,0.0,0.0,0.0,0.0,0.0,0.0,0.0,0.0,0.0,0.0,0.0,-12.6451,-14.2421,-15.3004,-15.2693,-15.2526,-15.1625,-14.9635,-14.9488,-14.2915,-12.7837,0.0,0.0,0.0,0.0,0.0,0.0,0.0,0.0,0.0,0.0,0.0,0.0,0.0,0.0,0.0,0.0,0.0,0.0,0.0,0.0,0.0,0.0,0.0,0.0,0.0,0.0,0.0,0.0,0.0,0.0,0.0,0.0,0.0,0.0,0.0,0.0,0.0,0.0,0.0,0.0,0.0,0.0,0.0,0.0,0.0,0.0,0.0,0.0,0.0,0.0,0.0,0.0,0.0,0.0,0.0,0.0,0.0,0.0,0.0,0.0,0.0,0.0,0.0,0.0,0.0,0.0,0.0,0.0,0.0,0.0,0.0,0.0,0.0,0.0,0.0,0.0,0.0,0.0,0.0,0.0,0.0,0.0,0.0,0.0,0.0,0.0,0.0,0.0,0.0,0.0,0.0,0.0,0.0,0.0,0.0,0.0,0.0,0.0,0.0,0.0,0.0,0.0,-12.1639,-13.7332,-14.781,-14.7573,-14.7573,-14.6688,-14.4331,-14.3741,-13.6148,-11.9048,0.0,0.0,0.0,0.0,0.0,0.0,0.0,0.0,0.0,0.0,0.0,0.0,0.0,0.0,0.0,0.0,0.0,0.0,0.0,0.0,0.0,0.0,0.0,0.0,0.0,0.0,0.0,0.0,0.0,0.0,0.0,0.0,0.0,0.0,0.0,0.0,0.0,0.0,0.0,0.0,0.0,0.0,0.0,0.0,0.0,0.0,0.0,0.0,0.0,0.0,0.0,0.0,0.0,0.0,0.0,0.0,0.0,0.0,0.0,0.0,0.0,0.0,0.0,0.0,0.0,0.0,0.0,0.0,0.0,0.0,0.0,0.0,0.0,0.0,0.0,0.0,0.0,0.0,0.0,0.0,0.0,0.0,0.0,0.0,0.0,0.0,0.0,0.0,0.0,0.0,0.0,0.0,0.0,0.0,0.0,0.0,0.0,0.0,0.0,0.0,0.0,0.0,-11.3448,-13.0214,-14.1382,-14.0871,-14.0794,-14.0794,-14.0794,-13.9247,-13.2544,0.0,0.0,0.0,0.0,0.0,0.0,0.0,0.0,0.0,0.0,0.0,0.0,0.0,0.0,0.0,0.0,0.0,0.0,0.0,0.0,0.0,0.0,0.0,0.0,0.0,0.0,0.0,0.0,0.0,0.0,0.0,0.0,0.0,0.0,0.0,0.0,0.0,0.0,0.0,0.0,0.0,0.0,0.0,0.0,0.0,0.0,0.0,0.0,0.0,0.0,0.0,0.0,0.0,0.0,0.0,0.0,0.0,0.0,0.0,0.0,0.0,0.0,0.0,0.0,0.0,0.0,0.0,0.0,0.0,0.0,0.0,0.0,0.0,0.0,0.0,0.0,0.0,0.0,0.0,0.0,0.0,0.0,0.0,0.0,0.0,0.0,0.0,0.0,0.0,0.0,0.0,0.0,0.0,0.0,0.0,0.0,0.0,0.0,0.0,0.0,0.0,0.0,0.0,-11.2282,-12.3975,-13.3494,-14.006,-14.0721,-14.0279,-13.91,-13.7553,-13.0117,-11.496,0.0,0.0,0.0,0.0,0.0,0.0,0.0,0.0,0.0,0.0,0.0,0.0,0.0,0.0,0.0,0.0,0.0,0.0,0.0,0.0,0.0,0.0,0.0,0.0,0.0,0.0,0.0,0.0,0.0,0.0,0.0,0.0,0.0,0.0,0.0,0.0,0.0,0.0,0.0,0.0,0.0,0.0,0.0,0.0,0.0,0.0,0.0,0.0,0.0,0.0,0.0,0.0,0.0,0.0,0.0,0.0,0.0,0.0,0.0,0.0,0.0,0.0,0.0,0.0,0.0,0.0,0.0,0.0,0.0,0.0,0.0,0.0,0.0,0.0,0.0,0.0,0.0,0.0,0.0,0.0,0.0,0.0,0.0,0.0,0.0,0.0,0.0,0.0,0.0,0.0,0.0,0.0,0.0,0.0,0.0,0.0,0.0,0.0,0.0,0.0,0.0,0.0,0.0,-12.1197,-13.1438,-13.8142,-13.7774,-13.6595,-13.5415,-13.2692,-12.5125,-11.1024,0.0,0.0,0.0,0.0,0.0,0.0,0.0,0.0,0.0,0.0,0.0,0.0,0.0,0.0,0.0,0.0,0.0,0.0,0.0,0.0,0.0,0.0,0.0,0.0,0.0,0.0,0.0,0.0,0.0,0.0,0.0,0.0,0.0,0.0,0.0,0.0,0.0,0.0,0.0,0.0,0.0,0.0,0.0,0.0,0.0,0.0,0.0,0.0,0.0,0.0,0.0,0.0,0.0,0.0,0.0,0.0,0.0,0.0,0.0,0.0,0.0,0.0,0.0,0.0,0.0,0.0,0.0,0.0,0.0,0.0,0.0,0.0,0.0,0.0,0.0,0.0,0.0,0.0,0.0,0.0,0.0,0.0,0.0,0.0,0.0,0.0,0.0,0.0,0.0,0.0,0.0,0.0,0.0,0.0,0.0,0.0,0.0,0.0,0.0,0.0,0.0,0.0,0.0,-12.0755,-13.2764,-13.4974,-13.2469,-13.0484,-13.019,-12.5712,-11.839,-10.7387,-9.7498,0.0,0.0,0.0,0.0,0.0,0.0,0.0,0.0,0.0,0.0,0.0,0.0,0.0,0.0,0.0,0.0,0.0,0.0,0.0,0.0,0.0,0.0,0.0,0.0,0.0,0.0,0.0,0.0,0.0,0.0,0.0,0.0,0.0,0.0,0.0,0.0,0.0,0.0,0.0,0.0,0.0,0.0,0.0,0.0,0.0,0.0,0.0,0.0,0.0,0.0,0.0,0.0,0.0,0.0,0.0,0.0,0.0,0.0,0.0,0.0,0.0,0.0,0.0,0.0,0.0,0.0,0.0,0.0,0.0,0.0,0.0,0.0,0.0,0.0,0.0,0.0,0.0,0.0,0.0,0.0,0.0,0.0,0.0,0.0,0.0,0.0,0.0,0.0,0.0,0.0,0.0,0.0,0.0,0.0,0.0,0.0,0.0,0.0,0.0,0.0,0.0,0.0,-11.4934,-12.1049,-12.7754,-12.7543,-12.6812,-12.6739,-12.4171,-11.7361,-10.512,-9.6708,0.0,0.0,0.0,0.0,0.0,0.0,0.0,0.0,0.0,0.0,0.0,0.0,0.0,0.0,0.0,0.0,0.0,0.0,0.0,0.0,0.0,0.0,0.0,0.0,0.0,0.0,0.0,0.0,0.0,0.0,0.0,0.0,0.0,0.0,0.0,0.0,0.0,0.0,0.0,0.0,0.0,0.0,0.0,0.0,0.0,0.0,0.0,0.0,0.0,0.0,0.0,0.0,0.0,0.0,0.0,0.0,0.0,0.0,0.0,0.0,0.0,0.0,0.0,0.0,0.0,0.0,0.0,0.0,0.0,0.0,0.0,0.0,0.0,0.0,0.0,0.0,0.0,0.0,0.0,0.0,0.0,0.0,0.0,0.0,0.0,0.0,0.0,0.0,0.0,0.0,0.0,0.0,0.0,0.0,0.0,0.0,0.0,0.0,0.0,0.0,0.0,0.0,-10.3123,-11.1128,-12.4453,-12.4171,-12.2998,-12.2848,-12.043,-11.3487,-10.0851,-9.4194,0.0,0.0,0.0,0.0,0.0,0.0,0.0,0.0,0.0,0.0,0.0,0.0,0.0,0.0,0.0,0.0,0.0,0.0,0.0,0.0,0.0,0.0,0.0,0.0,0.0,0.0,0.0,0.0,0.0,0.0,0.0,0.0,0.0,0.0,0.0,0.0,0.0,0.0,0.0,0.0,0.0,0.0,0.0,0.0,0.0,0.0,0.0,0.0,0.0,0.0,0.0,0.0,0.0,0.0,0.0,0.0,0.0,0.0,0.0,0.0,0.0,0.0,0.0,0.0,0.0,0.0,0.0,0.0,0.0,0.0,0.0,0.0,0.0,0.0,0.0,0.0,0.0,0.0,0.0,0.0,0.0,0.0,0.0,0.0,0.0,0.0,0.0,0.0,0.0,0.0,0.0,0.0,0.0,0.0,0.0,0.0,0.0,0.0,0.0,0.0,0.0,0.0,0.0,-10.4356,-12.0797,-12.0583,-11.9188,-11.8875,-11.6254,-10.9189,-9.667,0.0,0.0,0.0,0.0,0.0,0.0,0.0,0.0,0.0,0.0,0.0,0.0,0.0,0.0,0.0,0.0,0.0,0.0,0.0,0.0,0.0,0.0,0.0,0.0,0.0,0.0,0.0,0.0,0.0,0.0,0.0,0.0,0.0,0.0,0.0,0.0,0.0,0.0,0.0,0.0,0.0,0.0,0.0,0.0,0.0,0.0,0.0,0.0,0.0,0.0,0.0,0.0,0.0,0.0,0.0,0.0,0.0,0.0,0.0,0.0,0.0,0.0,0.0,0.0,0.0,0.0,0.0,0.0,0.0,0.0,0.0,0.0,0.0,0.0,0.0,0.0,0.0,0.0,0.0,0.0,0.0,0.0,0.0,0.0,0.0,0.0,0.0,0.0,0.0,0.0,0.0,0.0,0.0,0.0,0.0,0.0,0.0,0.0,0.0,0.0,0.0,0.0,0.0,0.0,-10.552,-10.8445,-11.2774,-11.5459,-11.5383,-11.4708,-10.8947,-9.6592,0.0,0.0,0.0,0.0,0.0,0.0,0.0,0.0,0.0,0.0,0.0,0.0,0.0,0.0]}],[{"header":{"parameterUnit":"kt","parameterCategory":2,"dx":1,"dy":1,"la1":29.285339999999998,"la2":30.599998999999997,"lo1":-89.70041500000002,"lo2":-87.6738589999976,"nx":112,"ny":82,"refTime":"2022-10-27T06:00:00:Z","depth":0,"parameterNumber":2,"parameterNumberName":"V-component_of_WINDS"},"data":[-11.081,-11.2197,-11.2119,-10.2113,-10.0048,-9.7423,-8.5704,-8.3578,-8.315,-8.0127,-7.9939,-8.1013,-8.3447,-7.9231,-7.512,-7.4225,-7.221,-6.9076,0.0,-6.3674,-6.3617,-6.2968,0.0,0.0,0.0,-7.8886,-8.6052,-9.9608,-9.5593,-9.7661,-10.9501,-10.7733,-10.6985,-10.7875,-10.8713,-10.9269,-10.9717,-11.0433,-11.1675,-11.3294,-11.2486,-11.1618,-11.0896,-10.5598,-10.2278,-10.0126,-9.5913,-9.4083,-9.4083,-9.4083,-9.4083,-9.3472,-8.6928,-8.3612,-8.1191,-7.5002,-7.2038,-7.1066,-7.1998,-6.8548,-6.3545,-6.3545,-5.8391,-5.2536,-5.2183,-5.1123,-4.9684,-4.9329,-4.793,-4.6882,-4.6882,-4.6882,-4.6945,-4.7238,-4.2981,-3.8221,-3.4278,-2.898,-2.3858,-1.9591,-1.8819,-1.8819,-1.8819,-1.8819,-1.7639,-1.4113,-1.3005,-1.145,-0.7853,-0.6707,-0.632,-0.6283,-0.6278,-0.3536,0.2757,0.9163,1.2908,1.3067,1.3146,1.4852,1.8599,1.9431,2.1489,2.5208,2.603,2.644,2.644,2.644,2.9298,3.4566,3.5786,3.9031,-10.6016,-10.7465,-10.7106,-9.4761,-9.2586,-9.0474,-7.9273,-7.7096,-7.6675,-7.374,-7.6318,-7.8129,-7.4673,-7.4843,-7.416,-7.02,-7.1163,-7.0253,0.0,-6.4146,-6.5072,-6.6269,-7.3745,0.0,-8.0827,-8.4592,-9.0564,-9.9398,-9.6336,-9.8665,-10.9475,-10.8456,-10.8084,-10.8982,-10.981,-11.0543,-11.0839,-11.1743,-11.2826,-11.4001,-11.2677,-11.0896,-10.9115,-10.4532,-10.1081,-9.8538,-9.5399,-9.4083,-9.4083,-9.4083,-9.4083,-9.3472,-8.6928,-8.3612,-8.1191,-7.5002,-7.1698,-7.0333,-7.1532,-6.8205,-6.326,-6.3459,-5.8391,-5.2536,-5.2536,-5.1123,-4.9684,-4.9684,-4.8285,-4.6882,-4.6882,-4.6882,-4.6987,-4.7447,-4.2341,-3.6746,-3.4049,-2.8274,-2.2691,-1.9591,-1.8819,-1.8819,-1.8819,-1.8819,-1.7248,-1.3331,-1.2611,-1.1056,-0.6676,-0.6312,-0.6323,-0.6283,-0.6278,-0.353,0.2746,0.7178,1.0534,1.3125,1.321,1.5313,1.9835,1.9835,2.1901,2.644,2.644,2.644,2.644,2.644,2.9696,3.6192,3.6192,3.9841,-10.371,-10.13,-9.83,-8.6503,-8.3699,-8.1951,-7.4856,-7.5416,-7.6605,-7.381,-7.5416,-7.6465,-7.3671,-7.4297,-7.3787,-6.9169,-7.2422,0.0,0.0,-6.5282,-6.7982,-7.075,-7.7832,-8.5098,-9.1583,-8.4372,-8.5692,-10.1228,-9.2129,-9.3358,-11.0846,-10.9882,-10.9719,-11.1545,-11.1565,-11.225,-11.319,-11.3244,-11.4055,-11.5085,-11.3758,-11.1123,-10.7654,-10.413,-10.0602,-9.7025,-9.4883,-9.4083,-9.4083,-9.4083,-9.4083,-9.3472,-8.6928,-8.3612,-8.1191,-7.5002,-7.1698,-7.0267,-7.0933,-6.7456,-6.2606,-6.3289,-5.8365,-5.2536,-5.2536,-5.1123,-4.9684,-4.9684,-4.8285,-4.6882,-4.6882,-4.6882,-4.6987,-4.7468,-4.2341,-3.6746,-3.4063,-2.8286,-2.2302,-1.9591,-1.8819,-1.8819,-1.8819,-1.8819,-1.7248,-1.3331,-1.2548,-1.0981,-0.667,-0.628,-0.628,-0.6278,-0.6278,-0.353,0.2746,0.3191,0.6089,1.2813,1.3247,1.5313,1.9835,1.9835,2.1901,2.644,2.644,2.644,2.644,2.644,2.9696,3.6192,3.6192,3.9841,-9.0895,-9.1787,-9.2642,-8.4777,-8.3968,-8.3648,-7.7727,-7.5275,-7.4717,-7.6045,-7.4298,0.0,0.0,0.0,-7.1297,-6.8809,0.0,-7.5994,-6.7991,-7.5692,-8.2767,-8.4398,-8.7407,-9.2636,-10.0601,-9.9961,-10.2436,-11.0523,-10.3508,-10.237,-11.0994,-11.0907,-11.0924,-11.1599,-11.2401,-11.2913,-11.3244,-11.4164,-11.4679,-11.514,-11.2631,-10.9357,-10.5409,-10.2344,-9.8872,-9.4883,-9.432,-9.4083,-9.4083,-9.4083,-9.4083,-9.3472,-8.6928,-8.3612,-8.1191,-7.5002,-7.1698,-7.0267,-7.0933,-7.0118,-6.8014,-6.4176,-5.8025,-5.2536,-5.2536,-5.1123,-4.9684,-4.9684,-4.8285,-4.6882,-4.6882,-4.6882,-4.707,-4.7845,-4.1032,-3.4175,-3.3975,-2.6874,-1.9982,-1.9209,-1.8819,-1.8819,-1.8819,-1.8819,-1.7248,-1.3331,-1.2622,-1.1065,-0.6676,-0.6318,-0.6325,-0.6283,-0.6278,-0.353,0.2746,0.3191,0.6057,1.2587,1.3157,1.5313,1.9835,1.9835,2.1901,2.644,2.644,2.644,2.644,2.644,2.9696,3.6192,3.8626,4.1878,-8.7104,-8.8157,-8.9451,-8.2466,-8.4465,-8.5872,-7.6811,-7.5346,-7.5695,-7.4856,0.0,0.0,0.0,0.0,0.0,0.0,-7.5821,-7.9565,-7.3378,-8.327,-9.1429,-9.2456,-9.8602,-10.3952,-10.7436,-10.7457,-10.9684,-11.5065,-10.8074,-10.5959,-11.1852,-11.2153,-11.2486,-11.3082,-11.3704,-11.411,-11.411,-11.4679,-11.5085,-11.5085,-11.2296,-10.8627,-10.4415,-10.1816,-9.8272,-9.4083,-9.4083,-9.4083,-9.4083,-9.4083,-9.4083,-9.3472,-8.6928,-8.2721,-7.9426,-7.4386,-7.1698,-7.0234,-7.0633,-6.9979,-6.8093,-6.3533,-5.7711,-5.2536,-5.2536,-5.1123,-4.9684,-4.9684,-4.8285,-4.6882,-4.6882,-4.6882,-4.7112,-4.7991,-4.0364,-3.3078,-3.4091,-2.6156,-1.8819,-1.8819,-1.8819,-1.8819,-1.8819,-1.8819,-1.7248,-1.3331,-1.2606,-1.1046,-0.6676,-0.631,-0.6318,-0.6283,-0.6278,-0.353,0.2746,0.3191,0.6045,1.2495,1.312,1.4487,1.6957,1.9019,2.1901,2.644,2.644,2.644,2.644,2.766,3.0922,3.6192,3.9452,4.2685,-8.7336,-8.6621,-8.6321,-8.0116,-8.3689,-8.5985,-7.53,0.0,-7.8781,-7.4857,0.0,-7.3271,-7.35,0.0,0.0,-7.0962,-7.9574,-8.4711,-8.0493,-9.0285,-9.8135,-9.8462,-10.9791,-11.6197,-11.2478,-11.0608,-11.1607,-11.6645,-10.9533,-10.7565,-11.332,-11.3521,-11.4068,-11.5085,-11.5085,-11.5085,-11.5085,-11.5085,-11.4788,-11.4515,-11.176,-10.8342,-10.3885,-10.1304,-9.7982,-9.4083,-9.4083,-9.4083,-9.4083,-9.4083,-9.3755,-9.2861,-8.6928,-8.1567,-7.7075,-7.3804,-7.1698,-7.0167,-7.0167,-6.8284,-6.5321,-6.2463,-5.7713,-5.2723,-5.2513,-5.1123,-4.9684,-4.9684,-4.8285,-4.6882,-4.6882,-4.6882,-4.7112,-4.7991,-4.0364,-3.3078,-3.4091,-2.6156,-1.8819,-1.8819,-1.8819,-1.8819,-1.8819,-1.8819,-1.7248,-1.3331,-1.2548,-1.0981,-0.667,-0.6278,-0.6278,-0.6278,-0.6278,-0.353,0.2746,0.3191,0.6045,1.2495,1.312,1.3252,1.3252,1.737,2.1901,2.644,2.644,2.644,2.644,2.9696,3.295,3.6192,3.9857,4.3088,-7.8001,-7.5678,-7.5763,-7.9102,-7.5572,-7.3657,0.0,0.0,0.0,-9.233,-9.0688,-8.8192,-9.026,-8.8805,-8.7065,-8.6554,-9.447,-9.8243,-9.12,-10.3775,-11.3854,-11.4249,-11.7878,-11.9659,-11.8213,-11.8011,-11.772,-11.7342,-11.7164,-11.6583,-11.5531,-11.4876,-11.4812,-11.5085,-11.5085,-11.5085,-11.5085,-11.5085,-11.365,-11.0738,-10.9263,-10.5566,-10.0339,-9.8689,-9.6633,-9.4083,-9.4083,-9.4083,-9.4083,-9.4083,-9.2577,-8.9871,-8.601,-8.1567,-7.7075,-7.3804,-7.1698,-7.0167,-7.0167,-6.7994,-6.474,-6.2318,-5.8848,-5.5166,-5.2979,-5.1123,-4.9684,-4.9684,-4.8285,-4.6882,-4.6882,-4.6882,-4.7112,-4.7991,-4.0364,-3.3078,-3.4091,-2.6156,-1.8819,-1.8819,-1.8819,-1.8819,-1.8819,-1.8819,-1.7248,-1.3331,-1.2548,-1.0981,-0.667,-0.6278,-0.6278,-0.6278,-0.6278,-0.353,0.2746,0.3191,0.6045,1.2495,1.312,1.3252,1.3252,1.737,2.1901,2.644,2.644,2.644,2.644,2.9696,3.295,3.6192,4.2281,4.5138,-7.1769,-7.033,-7.0527,-7.1893,-7.1497,0.0,0.0,-7.7036,-7.9228,-8.8821,-8.7938,-8.7114,-9.2922,-9.2866,-9.1975,-9.1671,-9.9164,-10.4947,-10.5,-11.262,-11.831,-11.8913,-12.017,-12.0989,-12.0616,-12.1542,-12.0929,-11.8528,-11.8222,-11.7357,-11.559,-11.524,-11.5085,-11.5085,-11.5085,-11.5085,-11.5085,-11.5085,-11.3244,-10.9825,-10.8496,-10.4879,-9.9346,-9.8087,-9.6214,-9.4083,-9.4083,-9.4083,-9.4083,-9.4083,-9.1392,-8.6595,-8.5128,-8.0668,-7.4695,-7.3219,-7.1698,-7.0167,-7.0167,-6.6917,-6.2279,-6.16,-5.8014,-5.355,-5.2558,-5.183,-5.0769,-5.0038,-4.8285,-4.6882,-4.6882,-4.7049,-4.7003,-4.545,-3.9016,-3.2886,-3.1436,-2.4615,-1.8819,-1.8819,-1.8819,-1.8819,-1.8819,-1.803,-1.6069,-1.2939,-1.1765,-0.9806,-0.667,-0.6278,-0.6278,-0.6278,-0.6278,-0.353,0.2746,0.3191,0.6045,1.2495,1.312,1.3666,1.49,1.8194,2.1489,2.4797,2.603,2.644,2.644,3.1318,3.4566,3.6192,4.2685,4.5942,-6.6926,-6.6596,-6.7079,-6.6493,-6.954,0.0,-7.2562,-7.4613,-7.8709,-8.6561,-8.718,-8.8366,-9.5424,-9.6592,-9.6456,-9.6672,-10.284,-10.9855,-11.6315,-11.8015,-11.8988,-11.9842,-12.0975,-12.1539,-12.1586,-12.2865,-12.2567,-11.9953,-11.754,-11.5631,-11.503,-11.5085,-11.5085,-11.5085,-11.5085,-11.5085,-11.5085,-11.4733,-11.3028,-10.9422,-10.7821,-10.3989,-9.8914,-9.7516,-9.5796,-9.4083,-9.4083,-9.4083,-9.4083,-9.4083,-9.0244,-8.4404,-8.3988,-7.92,-7.2633,-7.2633,-7.1698,-7.0167,-7.0167,-6.5616,-5.9989,-6.0938,-5.6666,-5.1152,-5.2231,-5.2536,-5.2183,-5.0393,-4.8285,-4.6882,-4.6882,-4.7217,-4.6568,-4.2914,-3.7655,-3.2296,-2.878,-2.3071,-1.8819,-1.8819,-1.8819,-1.8819,-1.8819,-1.7248,-1.4896,-1.2939,-1.059,-0.863,-0.667,-0.6278,-0.6278,-0.6278,-0.6278,-0.353,0.2746,0.3186,0.6032,1.2495,1.3099,1.4051,1.6545,1.8606,2.1078,2.3153,2.5208,2.644,2.644,3.2542,3.5786,3.741,4.3088,4.5942,-6.2718,-6.1676,-6.2898,-7.1901,-6.8586,0.0,-8.996,-9.1641,-9.2969,-10.8399,-11.1471,-11.1523,-11.2094,-11.1475,-11.1135,-11.21,-11.4036,-11.6315,-11.9339,-11.9857,-12.0507,-12.1973,-12.2762,-12.2578,-12.1707,-12.2083,-12.2034,-12.1914,-11.8443,-11.6013,-11.5218,-11.5085,-11.5085,-11.5085,-11.5085,-11.5085,-11.5085,-11.4055,-11.1599,-10.8004,-10.4696,-10.1209,-9.7562,-9.5379,-9.441,-9.4083,-9.4083,-9.4083,-9.4083,-9.4083,-9.0212,-8.4368,-8.1539,-7.7148,-7.2633,-7.2633,-7.1698,-7.0167,-7.0167,-6.5616,-5.9989,-6.0938,-5.6666,-5.1152,-5.2231,-5.2536,-5.2183,-5.0393,-4.8285,-4.6882,-4.6882,-4.7217,-4.6568,-4.2914,-3.7655,-3.2296,-2.878,-2.3071,-1.8819,-1.8819,-1.8819,-1.8819,-1.8819,-1.7248,-1.4896,-1.2939,-1.059,-0.863,-0.667,-0.6278,-0.6278,-0.6278,-0.6278,-0.353,0.2746,0.3167,0.5992,1.249,1.3025,1.3961,1.6538,1.8606,2.1078,2.3153,2.5208,2.644,2.644,3.0105,3.4973,4.0666,4.4314,4.5942,-5.7749,-5.749,-5.8206,-6.3462,0.0,0.0,-8.0855,-8.5422,-9.0664,-10.4441,-10.7779,-10.9725,-11.4562,-11.5115,-11.5325,-11.6439,-11.8457,-12.0222,-12.1178,-12.2752,-12.3336,-12.1965,-12.3361,-12.3312,-11.9938,-12.1072,-12.1226,-11.8977,-11.8086,-11.7091,-11.5218,-11.5085,-11.5085,-11.5085,-11.4218,-11.4055,-11.4055,-11.2623,-11.0188,-10.6595,-10.3822,-10.0758,-9.7188,-9.4961,-9.4083,-9.4083,-9.4083,-9.4083,-9.4038,-9.1963,-8.8552,-8.4307,-8.0521,-7.6537,-7.2633,-7.201,-7.1073,-6.9853,-6.7897,-6.4267,-6.0174,-5.8749,-5.523,-5.1574,-5.2325,-5.2536,-5.2183,-5.0393,-4.9329,-4.8285,-4.7218,-4.7405,-4.6488,-3.9993,-3.6312,-3.2149,-2.5757,-2.1532,-1.8819,-1.8819,-1.8819,-1.8819,-1.8819,-1.6075,-1.3745,-1.2638,-0.9839,-0.7077,-0.6325,-0.6299,-0.6278,-0.6278,-0.6278,-0.353,0.2746,0.3179,0.602,1.249,1.3072,1.4846,1.8187,1.9431,2.1489,2.4797,2.603,2.644,2.644,2.9696,3.3765,3.8221,4.3509,4.5942,-5.4592,0.0,0.0,0.0,0.0,0.0,-8.0709,-8.6253,-9.2569,-10.3002,-10.5962,-10.8472,-11.4921,-11.6331,-11.7133,-11.8583,-12.0801,-12.2383,-12.2815,-12.4893,-12.5216,-12.2131,-12.3904,-12.3602,-11.9154,-12.0806,-12.0804,-11.7671,-11.8159,-11.7887,-11.594,-11.5327,-11.503,-11.457,-11.365,-11.2919,-11.2419,-11.1285,-10.8884,-10.5717,-10.3317,-10.0312,-9.7188,-9.4961,-9.4083,-9.4083,-9.4083,-9.4083,-9.3755,-8.9582,-8.6719,-8.4187,-7.9275,-7.5617,-7.2633,-7.201,-7.1073,-6.9506,-6.6283,-6.3161,-6.0213,-5.7182,-5.4064,-5.1879,-5.2395,-5.2536,-5.2183,-5.0393,-4.9684,-4.9329,-4.7218,-4.7531,-4.5976,-3.7783,-3.4924,-3.1928,-2.3858,-2.038,-1.8819,-1.8819,-1.8819,-1.8834,-1.8882,-1.5313,-1.2596,-1.2749,-0.911,-0.632,-0.6363,-0.6331,-0.6296,-0.628,-0.6278,-0.353,0.2746,0.3183,0.6027,1.2495,1.3093,1.5276,1.9835,1.9835,2.1874,2.6345,2.6408,2.6408,2.6345,3.0477,3.4172,3.7815,4.3105,4.5942,0.0,0.0,0.0,-7.4131,-7.7323,-8.2412,-10.1576,-10.4586,-10.538,-11.2703,-11.5046,-11.572,-11.608,-11.7178,-11.852,-11.9911,-12.1342,-12.2709,-12.4263,-12.5522,-12.5592,-12.3423,-12.4457,-12.3968,-12.0412,-12.1285,-12.1226,-11.9407,-11.8826,-11.8345,-11.7787,-11.5996,-11.457,-11.319,-11.3136,-11.2526,-11.1131,-10.9785,-10.7927,-10.5717,-10.2141,-9.9393,-9.7188,-9.4961,-9.4083,-9.4083,-9.4083,-9.4083,-9.3472,-8.722,-8.4564,-8.3849,-7.7674,-7.4183,-7.2633,-7.2633,-7.1698,-6.9506,-6.6283,-6.3161,-6.0213,-5.7182,-5.4064,-5.1879,-5.2395,-5.2536,-5.2183,-5.0393,-4.9684,-4.9329,-4.7218,-4.7531,-4.5976,-3.7783,-3.4924,-3.1928,-2.3858,-2.038,-1.8819,-1.8819,-1.8819,-1.8874,-1.9049,-1.5383,-1.2627,-1.286,-0.9198,-0.6365,-0.6368,-0.6365,-0.6344,-0.6286,-0.6278,-0.353,0.2746,0.3165,0.5987,1.249,1.3014,1.5172,1.9835,1.9835,2.1813,2.6102,2.6324,2.6334,2.6102,3.2805,3.7815,4.107,4.4314,4.5942,-6.1534,-6.4686,-6.8194,-7.9547,-8.5579,-9.0867,-9.9045,-10.4839,-10.956,-11.2594,-11.4687,-11.608,-11.608,-11.7998,-11.9591,-11.996,-12.2082,-12.4206,-12.5585,-12.5529,-12.4834,-12.3484,-12.3128,-12.2253,-12.0412,-12.1345,-12.1159,-11.9047,-11.9422,-11.8736,-11.6235,-11.5327,-11.4788,-11.4515,-11.365,-11.1955,-10.9836,-10.7052,-10.5206,-10.4385,-10.0253,-9.8042,-9.7188,-9.4961,-9.4083,-9.4083,-9.4083,-9.4083,-9.3472,-8.722,-8.466,-8.393,-7.6303,-7.3254,-7.2633,-7.1386,-7.0761,-6.9506,-6.3674,-6.148,-6.0083,-5.4612,-5.2588,-5.2325,-5.2489,-5.2536,-5.2183,-5.0393,-4.9684,-4.9329,-4.7218,-4.7091,-4.5277,-3.7684,-3.4924,-3.1928,-2.3858,-2.038,-1.8819,-1.8819,-1.8819,-1.8874,-1.9049,-1.5461,-1.2744,-1.2982,-0.9289,-0.6426,-0.6426,-0.6392,-0.6344,-0.6286,-0.4316,-0.1569,0.2746,0.517,0.8437,1.2495,1.3083,1.5264,1.9835,1.9835,2.1813,2.6091,2.6324,2.7472,2.9054,3.3926,3.7815,4.107,4.4314,4.5942,-6.5948,-6.9741,-7.3394,-8.6375,-9.3179,-9.7814,-10.2381,-10.7674,-11.2075,-11.3577,-11.5046,-11.608,-11.608,-11.8204,-12.0334,-12.0811,-12.32,-12.5459,-12.6277,-12.6219,-12.5207,-12.2869,-12.2652,-12.1707,-12.0352,-12.0662,-12.0424,-11.8791,-11.9143,-11.8313,-11.5327,-11.5085,-11.5085,-11.5085,-11.3243,-11.1622,-10.9677,-10.5673,-10.3417,-10.255,-9.9007,-9.7052,-9.6214,-9.4871,-9.4083,-9.4083,-9.4083,-9.4083,-9.3472,-8.722,-8.466,-8.3633,-7.6032,-7.2943,-7.2633,-7.1073,-7.0481,-6.9224,-6.2338,-6.0814,-6.0389,-5.355,-5.1832,-5.2536,-5.2536,-5.2183,-5.183,-5.0038,-4.9329,-4.8974,-4.7218,-4.6987,-4.5478,-3.9502,-3.6721,-3.2573,-2.3848,-2.038,-1.8819,-1.8819,-1.8866,-1.8576,-1.7951,-1.5179,-1.2464,-1.1877,-0.8969,-0.6479,-0.6458,-0.6421,-0.6368,-0.6288,-0.353,-0.0392,0.2746,0.6384,0.9673,1.2495,1.3938,1.6138,1.9835,2.06,2.2523,2.5965,2.6197,2.8149,3.2503,3.629,3.9436,4.2685,4.4717,4.5942,-6.8049,-7.2904,-7.833,-9.496,-10.0312,-10.3502,-11.138,-11.3215,-11.3729,-11.5683,-11.608,-11.608,-11.608,-11.8267,-12.0587,-12.1987,-12.4515,-12.6403,-12.6466,-12.7411,-12.6403,-12.1885,-12.2429,-12.2244,-12.0208,-11.9613,-11.9125,-11.8624,-11.8104,-11.6952,-11.5085,-11.5085,-11.5085,-11.4842,-11.238,-11.0838,-11.0647,-10.614,-10.2698,-10.0511,-9.8176,-9.6214,-9.4083,-9.4083,-9.4083,-9.4083,-9.4083,-9.4038,-9.3384,-8.7179,-8.4604,-8.3588,-7.652,-7.3289,-7.2667,-7.1732,-7.0794,-6.929,-6.284,-6.0853,-6.0472,-5.3992,-5.2114,-5.2536,-5.2536,-5.183,-5.1123,-5.0038,-4.8974,-4.7908,-4.7218,-4.7217,-4.6547,-4.2914,-3.9185,-3.3874,-2.4196,-2.0372,-1.8819,-1.8827,-1.8969,-1.8341,-1.6509,-1.4116,-1.2177,-1.0328,-0.8227,-0.6527,-0.6463,-0.6455,-0.641,-0.6291,-0.3138,0.0,0.2746,0.6381,0.9669,1.2495,1.5154,1.7356,1.9827,2.1717,2.3544,2.5722,2.5954,2.9173,3.569,3.912,4.2685,4.5942,4.5942,4.5942,-7.6249,-8.4969,-9.1814,-10.4025,-10.7537,-10.8868,-11.283,-11.3386,-11.3782,-11.6084,-11.625,-11.608,-11.608,-11.822,-12.0663,-12.1934,-12.4578,-12.6781,-12.7788,-12.6021,-12.4375,-12.3054,-12.0814,-11.9573,-11.9613,-11.9446,-11.9036,-11.8104,-11.791,-11.6952,-11.5085,-11.5085,-11.4599,-11.3621,-11.2012,-10.9857,-10.7162,-10.6438,-10.42,-10.0456,-9.6793,-9.4544,-9.4083,-9.4083,-9.4083,-9.4083,-9.4083,-9.2747,-9.0067,-8.6056,-8.3273,-8.0637,-7.505,-7.2805,-7.2386,-7.0861,-7.0481,-6.929,-6.284,-6.0853,-6.0472,-5.3992,-5.2114,-5.2536,-5.2536,-5.2183,-5.183,-5.0038,-4.9684,-4.8974,-4.7218,-4.5018,-4.2868,-4.2158,-3.6938,-3.1222,-2.726,-2.3858,-2.0806,-1.9379,-1.9049,-1.8379,-1.6638,-1.4249,-1.2266,-1.034,-0.7857,-0.6572,-0.6469,-0.6455,-0.641,-0.6291,-0.1177,0.2354,0.3138,0.8329,1.2013,1.2892,1.5062,1.7203,1.9652,2.1647,2.3477,2.55,2.5711,2.9066,3.5598,3.6811,4.0261,4.5942,4.5942,4.5942,-7.2905,-8.5093,-9.697,-10.8227,-11.0711,-11.0798,-11.3379,-11.3416,-11.3883,-11.6419,-11.642,-11.608,-11.608,-11.8283,-12.0801,-12.2878,-12.5522,-12.7788,-12.9236,-12.6831,-12.4552,-12.3546,-12.0097,-11.8314,-11.9173,-11.789,-11.7205,-11.7675,-11.6952,-11.6235,-11.5085,-11.5085,-11.4355,-11.3128,-11.1622,-10.9256,-10.5759,-10.5799,-10.3372,-9.9038,-9.5633,-9.4083,-9.4083,-9.4083,-9.4083,-9.4038,-9.2702,-9.1002,-8.8872,-8.4324,-8.159,-7.952,-7.4704,-7.2702,-7.2596,-7.0861,-6.9191,-6.7329,-6.2456,-6.0135,-5.8484,-5.3569,-5.2301,-5.2536,-5.2536,-5.2183,-5.1477,-5.0038,-4.9329,-4.8619,-4.7218,-4.4434,-4.1239,-3.9976,-3.5166,-2.9847,-2.6134,-2.3469,-2.1187,-1.9339,-1.9088,-1.8078,-1.548,-1.3933,-1.194,-0.9108,-0.7462,-0.6598,-0.6506,-0.6495,-0.6045,-0.4351,0.0,0.3545,0.5101,0.9893,1.2781,1.2892,1.5842,1.8368,1.9588,2.235,2.4604,2.5552,2.8443,3.1826,3.5714,3.8859,4.2281,4.5942,4.5942,4.5942,-6.757,-8.1109,-9.7101,-10.8875,-11.0891,-11.0541,-11.3315,-11.3545,-11.3828,-11.6356,-11.642,-11.608,-11.608,-11.8283,-12.1053,-12.3948,-12.6718,-12.8984,-13.0432,-12.8402,-12.6002,-12.3669,-11.9637,-11.7577,-11.8958,-11.5956,-11.4981,-11.7203,-11.5996,-11.5085,-11.5085,-11.4842,-11.4111,-11.2881,-11.1462,-10.8795,-10.4974,-10.4267,-10.1495,-9.6978,-9.5308,-9.432,-9.4083,-9.4083,-9.4083,-9.3993,-9.0632,-8.9112,-8.8232,-8.2266,-7.9558,-7.8755,-7.4254,-7.2805,-7.2633,-7.0794,-6.7865,-6.4692,-6.216,-5.9251,-5.5987,-5.3258,-5.2536,-5.2536,-5.2536,-5.183,-5.1123,-5.0038,-4.8974,-4.7908,-4.6567,-4.3904,-4.0416,-3.6357,-3.2691,-2.8491,-2.31,-2.1959,-2.1196,-1.9242,-1.9136,-1.8212,-1.4685,-1.3578,-1.1589,-0.7459,-0.6633,-0.6612,-0.6551,-0.6543,-0.528,-0.1993,0.1194,0.4362,0.7457,1.0684,1.2792,1.3316,1.7441,1.9541,1.9995,2.3419,2.57,2.5732,3.1696,3.5041,3.5772,4.2129,4.554,4.5942,4.5942,4.5942,-8.1409,-8.9124,-9.6779,-10.6436,-10.8586,-10.9384,-11.3123,-11.3545,-11.3828,-11.6356,-11.642,-11.608,-11.608,-11.8283,-12.1053,-12.3948,-12.6718,-12.8984,-13.0432,-12.7757,-12.5023,-12.3669,-11.9034,-11.6174,-11.6944,-11.5282,-11.4574,-11.535,-11.5327,-11.5085,-11.5085,-11.4111,-11.2881,-11.1334,-11.0023,-10.6849,-10.1302,-10.3007,-10.0858,-9.4557,-9.6191,-9.5958,-9.4083,-9.4083,-9.4083,-9.3993,-9.0632,-8.7745,-8.5007,-8.1324,-7.8336,-7.5561,-7.3593,-7.2701,-7.2633,-7.0794,-6.8268,-6.5304,-6.23,-5.9239,-5.65,-5.3378,-5.2536,-5.2536,-5.2536,-5.2536,-5.183,-5.0393,-4.9684,-4.835,-4.3652,-3.9697,-3.6,-3.2523,-2.789,-2.4257,-2.2321,-2.1286,-2.0612,-1.9428,-1.9319,-1.9151,-1.8775,-1.5631,-1.1589,-0.7459,-0.6633,-0.6612,-0.6551,-0.6543,-0.528,-0.1993,0.1201,0.4391,0.7461,1.0684,1.3623,1.5867,1.8093,2.0087,2.2017,2.4483,2.5552,2.5732,2.972,3.3157,3.6119,3.9825,4.3088,4.5942,4.5942,4.5942,-7.6931,-8.5509,-9.4135,-10.0074,-10.4832,-10.9126,-11.3059,-11.3545,-11.3446,-11.4618,-11.5578,-11.5891,-11.5473,-11.7448,-12.0297,-12.3822,-12.6089,-12.8228,-13.0473,-12.8283,-12.5469,-12.2657,-11.8196,-11.5435,-11.5281,-11.3746,-11.3407,-11.4921,-11.5085,-11.5085,-11.5085,-11.3866,-11.2385,-11.1084,-10.9822,-10.6431,-10.054,-10.1619,-9.9453,-9.4083,-9.5119,-9.5164,-9.4083,-9.4083,-9.4083,-9.3755,-8.8827,-8.5933,-8.4284,-7.9385,-7.6357,-7.4183,-7.308,-7.2495,-7.1732,-7.0882,-6.7298,-6.3101,-6.2347,-5.8442,-5.3891,-5.2723,-5.2536,-5.2536,-5.2536,-5.2536,-5.2183,-5.0393,-4.9884,-4.8674,-4.308,-3.8779,-3.5482,-3.1495,-2.6783,-2.31,-2.2321,-2.1312,-2.0268,-1.908,-1.9358,-1.9596,-1.9596,-1.6035,-1.1589,-0.7459,-0.6633,-0.6622,-0.6593,-0.659,-0.4908,0.0,0.2018,0.5237,0.9893,1.2696,1.4798,1.6207,1.9207,2.1527,2.2523,2.4221,2.5383,2.5732,3.0504,3.4385,3.6192,4.107,4.4314,4.5942,4.5942,4.5942,-7.2768,-8.223,-9.2404,-9.556,-10.1355,-10.7519,-11.2417,-11.3098,-11.2683,-11.3001,-11.4187,-11.5241,-11.5072,-11.6439,-11.9227,-12.3696,-12.5774,-12.7787,-13.0693,-12.8811,-12.5778,-12.1765,-11.7653,-11.4755,-11.4092,-11.2648,-11.2518,-11.4921,-11.5085,-11.5085,-11.5085,-11.3621,-11.2083,-11.1084,-10.9007,-10.5649,-10.054,-9.9997,-9.7854,-9.4083,-9.4083,-9.4083,-9.4083,-9.4083,-9.4083,-9.3755,-8.722,-8.4539,-8.3948,-7.7758,-7.4492,-7.3874,-7.2943,-7.201,-7.1175,-7.125,-6.6739,-6.107,-6.2086,-5.7634,-5.202,-5.2419,-5.2536,-5.2536,-5.2536,-5.2536,-5.2183,-5.0393,-4.9325,-4.7531,-4.1772,-3.7849,-3.456,-3.0472,-2.6056,-2.3119,-2.1996,-2.0981,-1.9939,-1.9184,-1.9438,-1.9652,-1.9652,-1.6061,-1.2002,-0.8697,-0.7044,-0.6633,-0.6633,-0.5802,-0.3293,0.2429,0.3667,0.6503,1.1958,1.4743,1.5995,1.6516,2.0319,2.2594,2.3094,2.4462,2.532,2.5722,3.2146,3.5641,3.6192,4.2685,4.5942,4.5942,4.5942,4.5942,-8.2583,-8.8154,-9.4079,-9.8264,-9.9874,-10.2439,-11.0237,-11.1629,-11.1538,-11.2326,-11.2443,-11.3058,-11.545,-11.608,-11.8031,-12.3571,-12.6592,-12.8917,-13.0818,-12.8811,-12.5778,-12.1765,-11.7653,-11.4755,-11.4092,-11.2648,-11.2518,-11.4921,-11.5085,-11.5085,-11.5085,-11.258,-11.1084,-11.1084,-10.6641,-10.2958,-10.054,-9.8679,-9.647,-9.4083,-9.4083,-9.4083,-9.4083,-9.4083,-9.4083,-9.3755,-8.722,-8.4539,-8.3948,-7.7758,-7.4492,-7.3874,-7.2943,-7.201,-7.1175,-7.125,-6.702,-6.1363,-6.2293,-5.816,-5.2489,-5.2536,-5.2536,-5.2536,-5.2536,-5.2536,-5.2183,-5.0393,-4.7471,-4.352,-3.8022,-3.3917,-3.0077,-2.651,-2.3868,-2.1987,-2.2172,-2.0784,-1.9366,-1.9517,-1.97,-1.9835,-1.9835,-1.6126,-1.3242,-1.2829,-0.9111,-0.6633,-0.6633,-0.4141,-0.0825,0.2858,0.6169,0.9006,1.2367,1.4829,1.6904,1.8925,2.099,2.2912,2.5291,2.5489,2.5489,2.5732,3.233,3.5844,3.6192,4.2685,4.5942,4.5942,4.5942,4.5942,-6.9059,-7.6757,-8.4548,-8.5386,-9.2726,-10.0582,-10.3789,-10.5327,-10.7176,-11.0808,-11.248,-11.2995,-11.2695,-11.5241,-11.8346,-12.1367,-12.4276,-12.7142,-12.9753,-12.7582,-12.4064,-11.921,-11.6389,-11.4098,-11.2593,-11.2004,-11.2518,-11.4921,-11.5085,-11.5085,-11.5085,-11.258,-11.1084,-11.1084,-10.6381,-10.2691,-10.054,-9.8404,-9.6237,-9.4083,-9.4083,-9.4083,-9.4083,-9.4083,-9.4083,-9.4038,-9.1392,-8.8093,-8.3948,-7.7758,-7.4183,-7.3254,-7.2943,-7.201,-7.0614,-7.1465,-6.7425,-6.1476,-6.2805,-5.8528,-5.2536,-5.2536,-5.2536,-5.2536,-5.2536,-5.2536,-5.2253,-5.0418,-4.7531,-4.3537,-3.8013,-3.383,-2.9911,-2.6189,-2.3598,-2.2144,-2.2227,-2.0896,-1.9517,-1.9581,-1.9739,-1.9858,-1.9858,-1.6132,-1.3242,-1.3242,-0.9525,-0.6633,-0.6633,-0.3727,-0.0412,0.284,0.6129,0.9369,1.2362,1.5956,1.8372,1.9168,2.2089,2.4349,2.532,2.5373,2.551,2.5732,3.2357,3.5873,3.6192,4.2685,4.5942,4.5942,4.5942,4.5942,-6.0787,-6.845,-7.6628,-7.6886,-8.5901,-9.5301,-9.8393,-9.9528,-10.1843,-10.8959,-11.0899,-11.1169,-11.0296,-11.3539,-11.7024,-11.9227,-12.2841,-12.6178,-12.8203,-12.6473,-12.2876,-11.6854,-11.5057,-11.3572,-11.177,-11.1535,-11.2518,-11.4921,-11.4599,-11.4599,-11.4599,-11.1834,-11.0023,-10.9464,-10.5024,-10.1888,-9.9453,-9.7578,-9.5679,-9.4083,-9.4083,-9.4083,-9.4083,-9.4083,-9.4083,-9.4083,-9.3145,-8.9582,-8.4243,-7.8669,-7.5074,-7.2633,-7.2321,-7.1521,-7.06,-7.0543,-6.6782,-6.1759,-6.1808,-5.7695,-5.2536,-5.2536,-5.2536,-5.2536,-5.2536,-5.2653,-5.2486,-5.0709,-4.6813,-4.247,-3.7867,-3.2887,-2.8527,-2.591,-2.3707,-2.2274,-2.2394,-2.1034,-1.9612,-1.966,-1.9771,-1.9446,-1.9034,-1.5719,-1.2829,-1.2415,-0.9111,-0.6633,-0.6633,-0.4546,-0.164,0.2421,0.689,1.0517,1.3545,1.7085,1.9436,1.9781,2.3178,2.5056,2.5056,2.5341,2.5574,2.5732,3.2436,3.5975,3.6192,4.2685,4.5942,4.5942,4.6071,4.6126,-6.4265,-6.7742,-7.3215,-7.7401,-8.0464,-8.5099,-9.5302,-9.5236,-9.606,-10.6794,-10.7387,-10.6637,-10.9344,-11.0981,-11.3373,-11.7527,-12.3091,-12.6836,-12.6685,-12.5558,-12.222,-11.5168,-11.4204,-11.3572,-11.177,-11.1535,-11.2518,-11.4921,-11.3866,-11.3128,-11.3128,-11.0581,-10.7983,-10.5759,-10.2375,-9.9453,-9.7578,-9.5164,-9.4083,-9.4083,-9.4083,-9.4083,-9.4083,-9.4083,-9.4083,-9.38,-9.0776,-8.7512,-8.4243,-8.1045,-7.6879,-7.2633,-7.1698,-7.1197,-7.0947,-6.8046,-6.504,-6.1986,-5.9193,-5.5626,-5.2536,-5.2536,-5.2536,-5.2536,-5.2536,-5.2888,-5.2929,-5.0799,-4.5181,-3.9422,-3.7177,-3.0986,-2.5109,-2.5352,-2.3826,-2.2348,-2.2746,-2.1214,-1.9644,-1.9819,-1.9858,-1.9034,-1.6964,-1.4894,-1.2415,-1.0357,-0.7873,-0.6633,-0.6633,-0.658,-0.4073,0.242,0.8867,1.3657,1.5916,1.7877,1.9781,2.195,2.3888,2.5056,2.5056,2.5489,2.5732,2.5732,3.2647,3.6192,3.6192,4.2685,4.5942,4.596,4.6383,4.6567,-5.6679,-6.1882,-6.8772,-7.3086,-7.751,-8.3316,-9.3435,-9.758,-10.0346,-10.4285,-10.545,-10.6008,-10.6889,-11.2051,-11.6646,-11.7968,-12.1724,-12.4688,-12.5147,-12.323,-12.005,-11.4941,-11.3111,-11.2237,-11.1535,-11.1535,-11.2518,-11.4921,-11.3866,-11.3128,-11.3128,-11.0581,-10.7983,-10.5759,-10.2375,-9.9453,-9.7302,-9.5164,-9.4083,-9.4083,-9.4083,-9.4083,-9.4083,-9.4083,-9.4083,-9.38,-9.0776,-8.7512,-8.4243,-8.1045,-7.7794,-7.4183,-7.2943,-7.1521,-7.0317,-6.7889,-6.4771,-6.1451,-5.906,-5.5626,-5.2536,-5.2536,-5.2536,-5.2536,-5.2536,-5.2888,-5.3022,-5.1201,-4.5397,-3.8719,-3.4048,-2.8829,-2.5109,-2.5352,-2.3945,-2.2523,-2.2783,-2.1317,-1.9795,-1.985,-1.9858,-1.9034,-1.6964,-1.4481,-1.2415,-1.0357,-0.7832,-0.6572,-0.6572,-0.4482,-0.1618,0.2821,0.882,1.3533,1.5764,1.7706,1.9641,2.1941,2.3878,2.5056,2.5056,2.5489,2.5732,2.5732,3.2647,3.6192,3.6192,4.2958,4.6217,4.596,4.6658,4.6677,-5.5765,-6.0852,-6.6969,-7.218,-7.5014,-7.9507,-9.0744,-9.4382,-9.6086,-9.8602,-10.0775,-10.2467,-10.3175,-11.0162,-11.5594,-11.467,-11.8501,-12.1548,-12.232,-12.0616,-11.7821,-11.3851,-11.2237,-11.1535,-11.1535,-11.1535,-11.2518,-11.4921,-11.3375,-11.2332,-11.2332,-10.9007,-10.6121,-10.3921,-10.0763,-9.8404,-9.6237,-9.4883,-9.4083,-9.4083,-9.4083,-9.4083,-9.4083,-9.4083,-9.3472,-9.1963,-8.8962,-8.5716,-8.2502,-7.9275,-7.6609,-7.4183,-7.3254,-7.1063,-6.8448,-6.5697,-6.2983,-5.9783,-5.7116,-5.4599,-5.2536,-5.2536,-5.2536,-5.2583,-5.2771,-5.2836,-5.2265,-4.9795,-4.424,-3.816,-3.267,-2.8128,-2.513,-2.5457,-2.4054,-2.2625,-2.2903,-2.142,-1.9858,-1.9858,-1.9858,-1.9026,-1.5719,-1.4068,-1.2002,-0.9115,-0.7402,-0.6543,-0.6543,-0.3639,-0.0401,0.2806,0.7956,1.2627,1.6466,1.8803,2.0753,2.31,2.4278,2.5056,2.5056,2.5489,2.5732,2.5732,3.2647,3.6192,3.6192,4.3095,4.6438,4.6199,4.686,4.6879,-5.9547,-6.2826,-6.6878,-7.3607,-7.3575,-7.5077,-8.7548,-8.7107,-8.5524,-9.0491,-9.3606,-9.6128,-9.8202,-10.5378,-11.0448,-10.9283,-11.3879,-11.7839,-11.8152,-11.7713,-11.5854,-11.1879,-11.1426,-11.1426,-11.1535,-11.1535,-11.2518,-11.4679,-11.258,-11.1084,-11.0832,-10.6381,-10.2691,-10.054,-9.8404,-9.6237,-9.4083,-9.4083,-9.4083,-9.4083,-9.4083,-9.4083,-9.4083,-9.4083,-9.2292,-8.8962,-8.601,-8.28,-7.9615,-7.6303,-7.4183,-7.2943,-7.2633,-7.0549,-6.6833,-6.2968,-6.0068,-5.7643,-5.3897,-5.2536,-5.2536,-5.2536,-5.2536,-5.263,-5.3146,-5.2941,-5.1603,-4.6827,-4.1963,-3.7305,-3.1955,-2.774,-2.5161,-2.5626,-2.4143,-2.2662,-2.3069,-2.1506,-1.9858,-1.9858,-1.9858,-1.8614,-1.4068,-1.3242,-1.1584,-0.7453,-0.6575,-0.6535,-0.6124,-0.3216,0.0,0.3176,0.631,1.0981,1.8014,2.0363,2.271,2.5056,2.5056,2.5056,2.5056,2.5489,2.5732,2.6131,3.2647,3.6192,3.6598,4.3502,4.6585,4.6585,4.6989,4.7154,-5.2685,-5.6581,-6.2009,-6.9001,-7.6672,-8.3295,-8.6102,-8.6115,-8.4981,-8.3411,-8.4854,-8.7212,-9.0027,-9.6217,-10.3409,-11.1569,-11.182,-11.2015,-11.4452,-11.342,-11.168,-11.0292,-11.0115,-11.0497,-11.148,-11.1535,-11.2043,-11.3459,-11.2083,-11.0581,-10.9568,-10.591,-10.2691,-10.054,-9.8404,-9.6237,-9.4083,-9.4083,-9.4083,-9.4083,-9.4083,-9.4083,-9.4083,-9.4083,-9.2292,-8.8962,-8.601,-8.28,-7.9615,-7.6303,-7.4492,-7.3564,-7.2943,-7.1589,-6.9465,-6.3637,-5.9484,-5.6782,-5.3426,-5.2536,-5.2536,-5.2536,-5.2536,-5.263,-5.3146,-5.2941,-5.1603,-4.6827,-3.9693,-3.1955,-2.774,-2.5823,-2.5161,-2.5626,-2.4143,-2.2662,-2.3069,-2.1506,-1.9858,-1.9858,-1.9858,-1.8614,-1.4068,-1.3242,-1.1561,-0.739,-0.6514,-0.5651,-0.3206,0.0,0.3171,0.6299,0.9486,1.2649,1.6075,1.8412,2.1143,2.4656,2.5056,2.5056,2.5056,2.5489,2.693,2.9322,3.3858,3.741,3.9857,4.4316,4.6585,4.6585,4.6989,4.7007,-5.3429,-5.8268,-6.2891,-6.4614,-7.0735,-7.6551,-7.7011,-7.7314,-7.6907,-7.4805,-7.5681,-7.8686,-8.4577,-8.7506,-9.2598,-10.3503,-10.5547,-10.6659,-10.9333,-11.0789,-11.1116,-11.0139,-10.9909,-11.0169,-11.1426,-11.1535,-11.2043,-11.2967,-11.1834,-11.0023,-10.7675,-10.4284,-10.135,-9.918,-9.7025,-9.5444,-9.4083,-9.4083,-9.4083,-9.4083,-9.4083,-9.4083,-9.4083,-9.2577,-9.0158,-8.6928,-8.3691,-8.0745,-7.7526,-7.5417,-7.4183,-7.3254,-7.2321,-7.0614,-6.8159,-6.3308,-5.9402,-5.6603,-5.3402,-5.2536,-5.2536,-5.2536,-5.27,-5.2982,-5.3498,-5.1811,-4.8577,-4.4487,-3.8687,-3.2739,-2.6588,-2.513,-2.5299,-2.5648,-2.4213,-2.2773,-2.3088,-2.1506,-1.9858,-1.9858,-1.9858,-1.8614,-1.4068,-1.3242,-1.1552,-0.7369,-0.6492,-0.5235,-0.2003,0.1196,0.4371,0.7545,1.1527,1.5078,1.6964,1.9242,2.1532,2.5056,2.5056,2.5098,2.5214,2.5552,2.7374,3.0692,3.4331,3.7815,4.107,4.4722,4.6677,4.6842,4.6879,4.6879,-5.6532,-6.2103,-6.5376,-6.12,-6.2604,-6.541,-6.6423,-6.662,-6.6514,-6.6514,-6.7597,-7.0964,-7.8816,-7.943,-8.1806,-9.0782,-9.6907,-10.1525,-10.4127,-10.8289,-11.1038,-11.0204,-10.9635,-10.9951,-11.1426,-11.1535,-11.1804,-11.2667,-11.1281,-10.8956,-10.5498,-10.2108,-9.918,-9.7578,-9.5119,-9.4083,-9.4083,-9.4083,-9.4083,-9.4083,-9.4083,-9.4083,-9.4038,-9.0776,-8.7512,-8.4243,-8.1345,-7.8099,-7.5109,-7.4183,-7.3254,-7.2633,-7.1698,-6.8952,-6.5413,-6.2434,-5.9402,-5.6603,-5.3402,-5.2536,-5.2559,-5.263,-5.2958,-5.3404,-5.3651,-5.0379,-4.5908,-4.1762,-3.8086,-3.3895,-2.6976,-2.5204,-2.5415,-2.5669,-2.4272,-2.2866,-2.3097,-2.1506,-1.9858,-1.9858,-1.9446,-1.8201,-1.4068,-1.2829,-1.1144,-0.7369,-0.6087,-0.4437,-0.121,0.2002,0.5191,0.8444,1.3196,1.671,1.9025,2.0849,2.271,2.5056,2.5056,2.514,2.5341,2.5563,2.7396,3.1697,3.4819,3.7815,4.1878,4.5075,4.6713,4.7154,4.675,4.6787,-5.4027,-5.8833,-6.2819,-6.1106,-6.286,-6.5081,-6.5131,-6.3703,-6.2223,-6.2223,-6.316,-6.4917,-6.7562,-7.3226,-7.788,-7.9116,-8.6948,-9.4995,-10.0989,-10.4374,-10.6741,-10.8157,-10.8148,-10.9077,-11.1316,-11.1535,-11.1565,-11.1373,-10.9412,-10.7057,-10.4284,-10.0269,-9.7854,-9.7302,-9.5119,-9.4083,-9.4083,-9.4083,-9.4083,-9.4083,-9.4083,-9.4083,-9.4038,-9.0776,-8.7512,-8.4243,-8.1345,-7.8099,-7.5109,-7.4183,-7.3254,-7.2633,-7.1698,-6.8952,-6.5413,-6.2434,-5.9402,-5.6603,-5.3402,-5.2536,-5.2606,-5.3052,-5.324,-5.3115,-5.3339,-5.2185,-4.9326,-4.2539,-3.3866,-2.6588,-2.5434,-2.5077,-2.5214,-2.5637,-2.4173,-2.2699,-2.3069,-2.1506,-1.9858,-1.9858,-1.8201,-1.6132,-1.3655,-1.1589,-0.9498,-0.6963,-0.4058,-0.121,0.2015,0.5232,0.843,1.157,1.4429,1.6779,1.8866,2.0779,2.271,2.5056,2.5056,2.5066,2.5109,2.5331,2.842,3.4898,3.5628,3.9031,4.5138,4.5594,4.642,4.7154,4.675,4.6787,-5.4113,-5.7825,-6.1419,-5.9988,-6.0378,-6.1128,-6.1623,-6.0963,-6.0343,-6.0343,-6.0744,-6.1948,-6.4706,-6.7631,-7.1093,-7.5652,-8.0187,-8.5937,-9.4263,-10.0547,-10.5531,-10.8877,-10.854,-10.8858,-11.1316,-11.0773,-11.0014,-10.9256,-10.7572,-10.4974,-10.054,-9.8358,-9.6747,-9.5679,-9.4602,-9.4083,-9.4083,-9.4083,-9.4083,-9.4083,-9.4083,-9.4083,-9.3755,-8.9005,-8.601,-8.4243,-7.9275,-7.6303,-7.4801,-7.3874,-7.2943,-7.2667,-7.1512,-6.787,-6.3308,-6.2286,-5.8843,-5.4282,-5.2794,-5.2536,-5.263,-5.3146,-5.3475,-5.385,-5.3867,-5.1644,-4.7371,-4.0709,-3.388,-2.774,-2.5823,-2.5151,-2.5331,-2.5658,-2.4232,-2.2755,-2.294,-2.1429,-1.9827,-1.9731,-1.8143,-1.5719,-1.3655,-0.9931,-0.6604,-0.4095,-0.1217,0.2019,0.5681,0.7247,0.9625,1.4122,1.6455,1.8326,2.0526,2.2481,2.407,2.5246,2.5246,2.5246,2.5246,2.5468,2.6864,3.0267,3.4331,3.9436,4.5942,4.5942,4.6254,4.6842,4.642,4.6456,-5.7852,0.0,-6.4391,-6.2746,-6.1434,-6.0609,0.0,-6.0625,-6.0152,-5.9531,-5.9419,-6.0321,-6.3199,-6.3425,-6.5456,-7.2311,-7.4541,-7.8562,-8.7724,-9.5044,-10.162,-10.7126,-10.7062,-10.7711,-11.0442,-10.9975,-10.8988,-10.7931,-10.602,-10.286,-9.7578,-9.6747,-9.5958,-9.4083,-9.4083,-9.4083,-9.4083,-9.4083,-9.4083,-9.4083,-9.4083,-9.3755,-9.2861,-8.722,-8.4243,-8.3098,-7.749,-7.5109,-7.4801,-7.3254,-7.2633,-7.239,-7.0582,-6.637,-6.1419,-6.1339,-5.755,-5.2536,-5.2536,-5.2536,-5.2606,-5.3005,-5.3545,-5.4178,-5.4075,-4.9975,-4.3787,-3.7703,-3.3111,-2.889,-2.5823,-2.5183,-2.5383,-2.5605,-2.4193,-2.2727,-2.282,-2.1334,-1.9771,-1.9676,-1.7704,-1.5307,-1.3655,-0.8274,-0.3715,-0.2052,0.2033,0.5269,0.8164,0.8864,1.0818,1.5405,1.8026,1.9831,2.176,2.4231,2.5478,2.5478,2.5436,2.5426,2.5478,2.5648,2.6153,2.7007,3.3091,3.9031,4.4717,4.554,4.6162,4.6567,4.6254,4.6273,0.0,-7.2207,-7.5147,-7.3472,-7.1408,-6.9068,-6.6885,-6.4497,0.0,-5.9926,-5.9419,-5.9531,-5.9757,-6.1676,-6.3638,-6.5125,-6.9608,-7.554,-8.3468,-8.6842,-9.1399,-9.8907,-10.1539,-10.4216,-10.7821,-10.8948,-10.8988,-10.7931,-10.4712,-10.1302,-9.7578,-9.5399,-9.432,-9.4083,-9.4083,-9.4083,-9.4083,-9.4083,-9.4083,-9.4083,-9.4083,-9.2577,-8.9582,-8.601,-8.3098,-7.988,-7.6609,-7.5109,-7.4801,-7.3254,-7.2633,-7.2356,-6.7968,-6.4086,-6.1085,-5.8342,-5.5178,-5.2536,-5.2536,-5.2536,-5.2559,-5.2583,-5.3263,-5.3884,-5.3004,-4.7214,-3.9582,-3.462,-2.9277,-2.5434,-2.5056,-2.5066,-2.514,-2.5373,-2.3856,-2.2385,-2.2755,-2.1223,-1.966,-1.9811,-1.6538,-1.3236,-1.3242,-0.7033,-0.2069,-0.1655,0.3694,0.7759,0.8171,1.0534,1.3251,1.5545,1.7892,1.979,2.1968,2.4271,2.5711,2.5711,2.5521,2.55,2.57,2.5722,2.7029,3.0464,3.44,3.7815,4.1474,4.4314,4.6162,4.6585,4.6548,4.6548,-7.1137,-7.4498,-7.6878,-7.4777,-7.3018,-7.093,-6.7657,-6.5569,-6.3425,-6.0096,-5.9419,-5.9644,-6.0434,-6.0716,-6.2804,-6.8594,-7.0452,-7.3798,-8.0908,-8.5734,-9.0405,-9.493,-10.0993,-10.6182,-10.9842,-10.8403,-10.673,-10.5976,-10.3126,-9.9453,-9.5399,-9.4602,-9.4083,-9.4083,-9.4083,-9.4083,-9.4083,-9.4083,-9.4083,-9.4083,-9.4083,-9.2292,-8.9251,-8.601,-8.28,-7.9615,-7.6303,-7.5109,0.0,-7.3254,-7.2908,-7.2762,-6.8284,-6.4682,-6.1648,-5.8874,-5.5452,-5.2536,-5.2536,-5.2536,-5.2583,-5.2911,-5.3498,-5.4202,-5.4168,-4.9268,-4.2267,-3.3866,-2.8503,-2.5056,-2.5056,-2.5056,-2.5109,-2.5352,-2.3826,-2.2283,-2.244,-2.1051,-1.9581,-1.9549,-1.6016,-1.241,-1.0336,-0.3723,0.207,0.4139,0.8217,1.1055,1.1117,1.3354,1.5629,1.7772,1.9988,2.1851,2.4281,2.5364,2.5954,2.5954,2.588,2.5869,2.5954,2.5954,2.7598,3.0905,3.4414,3.7815,4.107,4.4314,4.6162,4.6567,4.6309,4.6328,-7.6489,-7.9025,-8.1152,-7.9437,-7.7814,-7.5331,-7.0366,-6.7996,-6.54,-6.0434,-5.9419,-5.9814,-6.1055,-6.0766,-6.2962,-7.0426,-7.1213,-7.3581,-8.191,-8.6609,-9.0659,-9.4657,-10.0665,-10.5527,-10.8367,-10.6471,-10.4597,-10.3047,-10.0715,-9.7854,-9.432,-9.4083,-9.4083,-9.4083,-9.4083,-9.4083,-9.4083,-9.4083,-9.4083,-9.4038,-9.3145,-9.0776,-8.7803,-8.4579,-8.15,-7.847,-7.6105,-7.4943,-7.4846,-7.3358,-7.3081,-7.2855,-6.7363,-6.4042,-6.1957,-5.7809,-5.4599,-5.2536,-5.2536,-5.2653,-5.2841,-5.3193,-5.3756,-5.4001,-5.3224,-4.9122,-4.2647,-3.4635,-2.889,-2.5056,-2.5056,-2.5056,-2.5098,-2.4864,-2.3324,-2.2163,-2.1832,-2.0513,-1.9493,-1.9438,-1.5971,-1.1997,-0.9093,-0.2067,0.4553,0.787,1.1122,1.3146,1.3194,1.5007,1.6897,1.9081,2.1287,2.3228,2.553,2.6113,2.6197,2.6197,2.6134,2.6123,2.6197,2.6134,2.8138,3.2647,3.4861,3.8221,4.2685,4.4717,4.6089,4.6364,4.6217,4.6364,-8.4628,-8.7512,-8.9495,-8.9222,-8.735,-8.357,-7.6008,-7.2341,-6.8503,-6.0999,-5.9419,-5.9814,-6.1055,-6.1984,-6.4195,-6.9167,-7.0725,-7.5537,-8.6954,-8.8658,-9.1161,-9.8044,-9.9955,-10.1157,-10.2359,-10.3545,-10.2733,-9.9664,-9.8036,-9.6515,-9.4038,-9.4083,-9.4083,-9.4083,-9.4083,-9.4083,-9.4083,-9.4083,-9.4083,-9.4083,-9.0776,-8.7512,-8.4539,-8.1384,-7.8544,-7.6214,-7.5466,-7.4952,-7.4926,-7.3255,-7.2768,-7.1618,-6.4414,-6.173,-6.1646,-5.5103,-5.2559,-5.2559,-5.2559,-5.2888,-5.331,-5.331,-5.3991,-5.4075,-4.9963,-4.4978,-3.9582,-3.5403,-2.9664,-2.5056,-2.5056,-2.5056,-2.4667,-2.3878,-2.271,-2.1596,-2.0621,-2.0013,-1.939,-1.9557,-1.6035,-1.1992,-0.868,-0.1654,0.4553,0.787,1.118,1.321,1.3093,1.5111,1.7085,1.8949,2.134,2.3515,2.6398,2.644,2.644,2.644,2.6218,2.6197,2.643,2.6218,2.9422,3.6192,3.6192,3.9436,4.5942,4.5942,4.5942,4.596,4.6383,4.6787,-8.5144,-8.7353,-8.9169,-8.8749,-8.7742,-8.4755,-7.6849,-7.3405,-6.9801,-6.2296,-6.0039,-6.0096,-6.1872,-6.242,-6.4474,-7.0002,-7.4691,-7.9586,-8.5305,-9.0526,-9.5274,-9.9573,-10.1212,-10.2253,-10.3652,-10.4965,-10.4005,-9.9664,-9.8036,-9.6515,-9.4038,-9.4083,-9.4083,-9.4083,-9.4083,-9.4083,-9.4083,-9.4083,-9.4083,-9.4083,-9.0776,-8.7512,-8.4579,-8.1964,-7.9064,-7.6286,-7.6607,-7.6257,-7.5031,-7.4397,-7.2373,-6.9022,-6.4071,-6.0995,-5.8821,-5.42,-5.2771,-5.3076,-5.3076,-5.3404,-5.3897,-5.4249,-5.4577,-5.3383,-4.6183,-4.0277,-3.5034,-3.0063,-2.6988,-2.5056,-2.5056,-2.5056,-2.4667,-2.3878,-2.271,-2.156,-2.0841,-1.9823,-1.9215,-1.9382,-1.3843,-0.8617,-0.5366,0.1654,0.7866,1.118,1.2425,1.3242,1.3205,1.6399,1.8798,1.9676,2.2958,2.5476,2.643,2.644,2.644,2.644,2.6377,2.6366,2.644,2.6377,2.9624,3.6192,3.6192,3.9436,4.5942,4.5942,4.6107,4.6401,4.6805,4.7044,-8.622,-8.7681,-8.8805,-8.8275,-8.7836,-8.5205,-7.7213,-7.4213,-7.0707,-6.2793,-6.0146,-6.0084,-6.2812,-6.3564,-6.6139,-7.3447,-7.8373,-8.3885,-9.0996,-9.5768,-10.0056,-10.4434,-10.5199,-10.5244,-10.5034,-10.4399,-10.2841,-9.9543,-9.7296,-9.5399,-9.4083,-9.4083,-9.4083,-9.4083,-9.4083,-9.4083,-9.4083,-9.4083,-9.3472,-9.1963,-8.9005,-8.5757,-8.2541,-8.0104,-7.7955,-7.6154,-7.6931,-7.6083,-7.4986,-7.4518,-7.1749,-6.7719,-6.3782,-6.0588,-5.7721,-5.4138,-5.3029,-5.3334,-5.3545,-5.3944,-5.4413,-5.4718,-5.3822,-5.1403,-4.411,-3.8371,-3.2929,-2.7985,-2.5681,-2.4908,-2.4908,-2.4982,-2.4656,-2.31,-2.2321,-2.1542,-1.999,-1.9347,-1.8731,-1.689,-1.1757,-0.6543,-0.1651,0.4562,0.9563,1.2844,1.3295,1.3305,1.3258,1.6883,1.9723,1.9827,2.3966,2.644,2.644,2.644,2.644,2.644,2.644,2.644,2.644,2.766,3.0922,3.6192,3.741,4.0666,4.5942,4.6107,4.6328,4.6603,4.7154,4.7412,-8.7297,-8.7986,-8.8275,-8.7742,-8.7742,-8.552,-7.7336,-7.4643,-7.1434,-6.3131,-6.0189,-6.0172,-6.3525,-6.5229,-6.9124,-7.7995,-8.2212,-8.8649,-10.0775,-10.3014,-10.5472,-11.0879,-11.0209,-10.8208,-10.5809,-10.2414,-9.9949,-9.8806,-9.578,-9.3949,-9.4083,-9.4083,-9.4083,-9.4083,-9.4083,-9.4083,-9.4083,-9.4083,-9.2533,-8.9251,-8.601,-8.2839,-8.0032,-7.7519,-7.6189,-7.6293,-7.6433,-7.5852,-7.4706,-7.3839,-7.0901,-6.6975,-6.331,-6.0273,-5.7424,-5.4499,-5.3334,-5.3451,-5.3944,-5.446,-5.4906,-5.4906,-5.2148,-4.7909,-4.2575,-3.7384,-3.2227,-2.733,-2.5452,-2.4696,-2.4696,-2.4876,-2.4667,-2.271,-2.1931,-2.1542,-1.9209,-1.8946,-1.7914,-1.3663,-0.9724,-0.531,0.2064,0.6662,1.0026,1.2854,1.3342,1.3374,1.3268,1.6957,1.9835,1.9835,2.3966,2.644,2.644,2.644,2.644,2.644,2.644,2.644,2.644,2.9696,3.295,3.6192,3.9436,4.2685,4.5942,4.6328,4.6567,4.6658,4.7393,4.7761,-8.6464,-8.6964,-8.7742,-8.7204,-8.7384,-8.5742,-7.8079,-7.5413,-7.2283,-6.4172,-6.178,-6.146,-6.2109,-6.7747,-7.3597,-7.7232,-8.8485,-9.8153,-10.1922,-10.7384,-11.1152,-11.148,-10.8693,-10.5466,-10.2359,-9.8783,-9.6383,-9.5179,-9.3816,-9.3235,-9.4038,-9.4083,-9.4083,-9.4083,-9.4083,-9.4083,-9.4083,-9.4083,-9.2533,-8.9251,-8.601,-8.3155,-8.0599,-7.8356,-7.6967,-7.7135,-7.8362,-7.7306,-7.4808,-7.2759,-6.881,-6.3282,-6.0039,-5.6896,-5.3641,-5.3456,-5.3545,-5.3967,-5.4484,-5.5,-5.5469,-5.5469,-4.9953,-4.2124,-3.6954,-3.1588,-2.7061,-2.5191,-2.4559,-2.4696,-2.4696,-2.4876,-2.5056,-2.4667,-2.31,-2.1542,-1.9209,-1.885,-1.778,-1.3646,-0.8058,-0.2432,0.2474,0.8287,1.245,1.3258,1.3274,1.3279,1.3258,1.6957,1.9835,1.9835,2.3966,2.644,2.644,2.644,2.644,2.644,2.644,2.644,2.644,2.9696,3.295,3.6192,3.9436,4.2685,4.5942,4.6034,4.642,4.7044,4.7209,4.7632,-8.6253,-8.6707,-8.7204,-8.6899,-8.7283,-8.6418,-8.1023,-7.8815,-7.6046,-6.9112,-6.5894,-6.441,-6.4277,-7.0135,-7.6137,-8.0128,-9.0998,-10.0174,-10.3724,-10.7493,-10.9595,-10.8855,-10.6601,-10.3408,-9.9656,-9.7127,-9.5198,-9.4112,-9.3086,-9.3012,-9.3993,-9.4083,-9.4083,-9.4083,-9.4083,-9.4083,-9.4083,-9.2577,-9.0158,-8.6928,-8.409,-8.159,-7.8741,-7.8097,-7.7604,-7.6765,-7.8295,-7.6265,-7.1938,-7.1314,-6.6666,-6.0355,-5.8922,-5.6024,-5.3005,-5.3756,-5.4202,-5.4507,-5.5023,-5.5399,-5.5166,-5.2802,-4.6084,-3.7639,-3.446,-2.986,-2.5315,-2.4575,-2.4358,-2.4538,-2.4538,-2.4792,-2.5056,-2.5056,-2.3489,-2.1542,-2.0762,-1.8022,-1.4572,-1.043,-0.4023,0.1619,0.5774,1.0386,1.3316,1.3263,1.33,1.3316,1.3258,1.6957,1.9835,1.9835,2.3966,2.644,2.644,2.644,2.644,2.644,2.644,2.7261,2.8889,3.1726,3.4973,3.8626,4.1878,4.4314,4.5942,4.6144,4.6475,4.6879,4.7081,4.7503,-8.6318,-8.6718,-8.6899,-8.6537,-8.7065,-8.6901,-8.3811,-8.2447,-8.0138,-7.4786,-7.0941,-6.8486,-6.8266,-7.3236,-7.9036,-8.4061,-9.2472,-10.0174,-10.5363,-10.6291,-10.6258,-10.5678,-10.4175,-10.1298,-9.6899,-9.5205,-9.4226,-9.3576,-9.2632,-9.2788,-9.377,-9.3993,-9.4083,-9.4083,-9.4083,-9.4083,-9.4083,-9.0948,-8.8053,-8.478,-8.2274,-7.9435,-7.6399,-7.7712,-7.7485,-7.62,-7.7607,-7.4989,-6.9211,-6.9236,-6.4892,-5.8069,-5.7885,-5.5993,-5.3287,-5.4225,-5.4554,-5.4648,-5.5187,-5.498,-5.3331,-4.7958,-4.1015,-3.434,-3.2792,-2.8908,-2.5072,-2.4329,-2.4126,-2.4316,-2.4358,-2.4675,-2.5003,-2.5045,-2.3489,-2.1931,-2.1931,-1.7226,-1.1019,-0.6005,-0.0402,0.4858,0.9064,1.1658,1.3364,1.3268,1.3337,1.3364,1.3263,1.6957,1.9842,2.0254,2.3966,2.644,2.644,2.644,2.644,2.644,2.685,2.8479,3.1318,3.4973,3.8221,4.107,4.4314,4.5942,4.5942,4.6291,4.6511,4.6585,4.6916,4.7697,-8.5481,-8.6355,-8.6355,-8.6355,-8.6464,-8.5863,-8.3646,-8.2933,-8.1556,-7.8101,-7.5748,-7.4166,-7.3072,-7.9418,-8.5153,-8.5972,-9.5804,-10.3997,-10.5854,-10.7001,-10.6949,-10.5015,-10.1967,-9.8086,-9.4089,-9.1552,-9.0416,-9.1504,-9.15,-9.1762,-9.2744,-9.3592,-9.4083,-9.4083,-9.4083,-9.4083,-9.4083,-9.1639,-8.8761,-8.5446,-8.2583,-7.9716,-7.7352,-7.7563,-7.7391,-7.7041,-7.7552,-7.5069,-6.9952,-6.7474,-6.3172,-5.7695,-5.4697,-5.2983,-5.2724,-5.3287,-5.3498,-5.3568,-5.4085,-5.2059,-4.7896,-4.003,-3.5484,-3.2491,-2.8591,-2.5932,-2.4071,-2.3703,-2.3883,-2.4105,-2.4316,-2.4549,-2.4792,-2.5003,-2.3489,-2.1931,-2.1931,-1.7226,-1.0215,-0.2382,0.1602,0.4848,0.8991,1.1964,1.3268,1.3258,1.3268,1.3268,1.3252,1.6957,2.0666,2.2321,2.4797,2.644,2.644,2.644,2.644,2.644,2.8889,3.0922,3.1318,3.7004,4.0666,4.107,4.4314,4.5942,4.5942,4.5997,4.6217,4.6585,4.664,4.809,-8.3678,-8.5317,-8.6355,-8.6355,-8.6846,-8.7065,-8.6153,-8.6482,-8.5972,-8.3198,-8.1063,-7.9036,-7.7069,-8.3132,-8.8157,-8.7447,-9.6296,-10.3232,-10.3034,-10.3398,-10.275,-9.9866,-9.794,-9.5399,-9.1413,-8.9944,-8.9524,-9.02,-9.1316,-9.2387,-9.3369,-9.3815,-9.4306,-9.4841,-9.4841,-9.5109,-9.5734,-9.0698,-8.6933,-8.4198,-8.0086,-7.7606,-7.6696,-7.7113,-7.7252,-7.701,-7.5299,-7.1825,-6.6411,-6.3589,-5.9227,-5.4557,-5.3431,-5.2794,-5.263,-5.3428,-5.3545,-5.3022,-5.1313,-4.7824,-4.3367,-3.7375,-3.2599,-2.8933,-2.7364,-2.5129,-2.3661,-2.3661,-2.383,-2.4073,-2.4305,-2.4527,-2.476,-2.4992,-2.3489,-2.1152,-1.8787,-1.5267,-1.0194,-0.1576,0.359,0.7678,0.9384,1.194,1.3252,1.3252,1.3252,1.3666,1.49,1.7782,2.0666,2.2741,2.5208,2.644,2.644,2.644,2.644,2.644,2.9287,3.2134,3.3765,3.8626,4.1878,4.3509,4.5119,4.5942,4.5942,4.5942,4.6034,4.6217,4.6217,4.7656,-8.1603,-8.3569,-8.5153,-8.6082,-8.701,-8.772,-8.8048,-8.9086,-8.9577,-8.8048,-8.6082,-8.4061,-8.2204,-8.7065,-9.0943,-8.9687,-9.6379,-10.116,-10.0233,-9.9641,-9.8207,-9.5068,-9.4751,-9.3166,-8.9465,-8.9164,-8.9349,-8.9575,-9.1494,-9.2922,-9.3636,-9.3949,-9.4484,-9.5422,-9.5466,-9.6091,-9.7341,-9.1626,-8.7315,-8.4169,-7.8567,-7.5823,-7.6029,-7.6578,-7.6598,-7.6302,-7.3358,-6.8791,-6.3801,-6.0902,-5.6526,-5.1856,-5.263,-5.2606,-5.2254,-5.3146,-5.324,-5.227,-4.8019,-4.3367,-3.8879,-3.4922,-3.059,-2.6595,-2.6595,-2.5129,-2.3671,-2.3735,-2.383,-2.401,-2.4358,-2.4527,-2.4686,-2.4982,-2.3489,-2.0753,-1.6822,-1.3308,-0.9007,-0.1567,0.4756,0.9236,0.9728,1.1882,1.321,1.321,1.3231,1.4068,1.691,1.8988,2.1078,2.3564,2.5619,2.644,2.644,2.644,2.685,2.7671,3.0922,3.4172,3.741,4.0666,4.3509,4.5942,4.5942,4.5942,4.5942,4.6052,4.6107,4.6107,4.6199,4.8023,-7.9418,-8.1057,-8.1985,-8.5481,-8.6355,-8.6737,-8.783,-8.9086,-9.0287,-9.1271,-9.0506,-8.9577,-8.9468,-9.2527,-9.4657,-9.3455,-9.6487,-9.907,-9.9122,-9.7287,-9.5247,-9.301,-9.3011,-9.1883,-8.8675,-8.9039,-8.9575,-8.9664,-9.1494,-9.261,-9.2699,-9.3547,-9.4484,-9.5422,-9.5466,-9.6404,-9.8323,-9.7137,-9.3161,-8.6893,-7.946,-7.6097,-7.5824,-7.5858,-7.5965,-7.5626,-7.182,-6.795,-6.437,-6.0635,-5.6176,-5.1785,-5.1832,-5.1527,-5.1128,-5.1691,-5.1879,-5.0856,-4.3845,-3.8914,-3.4922,-3.0954,-2.8426,-2.6595,-2.6595,-2.5129,-2.3703,-2.3936,-2.384,-2.383,-2.4506,-2.4527,-2.4496,-2.495,-2.3489,-2.0753,-1.6822,-1.0958,-0.509,-0.0784,0.3532,0.7095,0.9148,1.132,1.3083,1.3083,1.3178,1.4858,1.8813,1.9739,2.1489,2.5619,2.644,2.644,2.644,2.644,2.766,3.0922,3.4172,3.741,4.0666,4.3912,4.554,4.5942,4.5942,4.5942,4.5942,4.6346,4.6548,4.6548,4.6934,4.9568,-7.8107,-7.9746,-8.0838,-8.5208,-8.6355,-8.6464,-8.6846,-8.7884,-8.914,-9.0397,-9.0287,-9.0233,-9.0998,-9.3399,-9.5255,-9.582,-9.8202,-9.9449,-9.7851,-9.6484,-9.4287,-9.0504,-9.0295,-8.9898,-8.8411,-8.9664,-9.0869,-9.1494,-9.2788,-9.3547,-9.3547,-9.444,-9.5422,-9.6404,-9.7028,-9.6741,-9.5217,-9.4353,-9.0286,-8.2969,-7.7649,-7.4925,-7.4861,-7.4861,-7.3887,-7.1789,-6.795,-6.4227,-6.0421,-5.6276,-5.3584,-5.1292,-5.1644,-5.1457,-5.1081,-5.1949,-5.0621,-4.6873,-3.9816,-3.637,-3.4559,-3.059,-2.806,-2.6631,-2.6785,-2.5365,-2.3936,-2.4179,-2.4179,-2.42,-2.4591,-2.4633,-2.4654,-2.4971,-2.1523,-1.6822,-1.2511,-0.665,-0.1175,0.3137,0.5099,0.7083,0.9133,1.0396,1.1269,1.2546,1.2998,1.4632,1.9026,1.9573,2.1317,2.5811,2.6356,2.644,2.644,2.8479,3.0105,3.1331,3.6192,3.9841,4.107,4.4314,4.5942,4.5942,4.5942,4.5942,4.5942,4.6089,4.6309,4.6585,4.8347,5.0581,-7.4502,-7.6687,-7.8872,-8.2914,-8.5099,-8.6355,-8.6355,-8.7556,-8.8977,-8.9796,-9.0615,-9.1434,-9.2199,-9.4315,-9.5794,-9.5933,-9.7114,-9.7283,-9.4507,-9.2915,-9.1132,-8.8057,-8.8073,-8.8451,-8.8593,-9.0155,-9.1539,-9.2521,-9.3503,-9.4083,-9.4083,-9.4975,-9.5957,-9.6984,-9.7921,-9.6681,-9.35,-9.2966,-8.8828,-8.0832,-7.7998,-7.5756,-7.4494,-7.3126,-7.1673,-6.9333,-6.4488,-6.0796,-5.8043,-5.3728,-5.1879,-5.1269,-5.1433,-5.1292,-5.0715,-5.0529,-4.7897,-4.353,-3.7353,-3.4273,-3.2921,-3.0021,-2.826,-2.6892,-2.6686,-2.5623,-2.4179,-2.4411,-2.4422,-2.4432,-2.4739,-2.4696,-2.4644,-2.449,-1.9855,-1.44,-0.9732,-0.4296,0.1176,0.5493,0.6673,0.747,0.9098,0.9897,1.0724,1.2423,1.2844,1.3646,1.6842,1.8638,2.1214,2.5686,2.6303,2.685,2.807,3.0105,3.2134,3.458,3.8734,4.1607,4.2702,4.486,4.6089,4.5942,4.5942,4.5942,4.5942,4.6876,4.7505,4.7788,4.9957,5.2702,-6.9076,-7.2141,-7.6032,-7.8544,-8.2641,-8.6136,-8.6136,-8.8048,-8.9796,-8.996,-9.1871,-9.351,-9.3565,-9.5476,-9.6239,-9.3836,-9.3343,-9.2348,-8.9338,-8.6998,-8.5888,-8.6086,-8.6352,-8.7477,-8.9441,-9.0512,-9.1494,-9.2565,-9.3547,-9.4083,-9.4083,-9.4975,-9.5957,-9.6692,-9.7627,-9.6725,-9.3191,-9.3191,-8.9102,-8.0543,-8.0868,-7.8655,-7.4494,-7.0713,-6.8995,-6.8288,-6.1108,-5.8017,-5.7643,-5.3343,-5.1785,-5.1738,-5.1199,-5.0987,-5.0692,-4.7009,-4.3904,-4.0319,-3.637,-3.2599,-2.9573,-2.8819,-2.7889,-2.6979,-2.6225,-2.5103,-2.4411,-2.4622,-2.4527,-2.4464,-2.4918,-2.4696,-2.4043,-2.3485,-1.8901,-1.3881,-0.8485,-0.35,0.1568,0.5493,0.7065,0.8242,0.903,1.0202,1.1416,1.2315,1.2728,1.2728,1.2728,1.6543,2.1197,2.5665,2.6282,2.7649,3.0897,3.1293,3.4145,4.0633,4.1382,4.3044,4.5924,4.6309,4.6328,4.5905,4.5905,4.5905,4.5905,4.8313,4.974,4.976,5.2233,5.5144,-7.5267,-7.4557,-7.412,-7.9145,-8.0729,-8.133,-8.2204,-8.3624,-8.5754,-8.925,-9.1216,-9.2527,-9.3401,-9.2664,-9.2081,-9.2936,-9.1342,-8.9806,-8.8633,-8.8113,-8.6963,-8.5343,-8.6161,-8.7477,-8.9441,-8.9887,-9.1048,-9.3503,-9.3904,-9.4083,-9.4083,-9.5645,-9.517,-9.2309,-9.3885,-9.1355,-8.4343,-8.5021,-8.2165,-7.6088,-7.6784,-7.6122,-7.4494,-7.346,-7.0039,-6.4886,-6.0099,-5.6649,-5.3873,-5.2322,-5.1785,-5.1762,-5.1621,-5.1551,-5.0904,-4.4653,-3.987,-3.637,-3.2396,-2.9914,-2.8527,-2.816,-2.7239,-2.5974,-2.56,-2.4984,-2.4379,-2.4443,-2.4411,-2.4401,-2.4527,-2.4464,-2.3233,-1.9467,-1.4575,-0.9251,-0.4244,0.0778,0.4707,0.5886,0.7065,0.8242,0.903,1.0202,1.1388,1.2601,1.2606,1.2606,1.2606,1.6598,2.0647,2.5177,2.5795,2.7129,3.0328,3.273,3.5909,3.9885,4.2381,4.438,4.506,4.517,4.5189,4.506,4.506,4.506,4.506,4.5566,4.6959,4.8856,5.1713,5.418,-7.0788,-6.9149,-6.8767,-7.4284,-7.5103,-7.5977,-8.122,-8.1075,-8.1927,-8.8571,-9.0312,-9.0667,-9.1598,-9.0578,-8.9507,-8.8887,-8.7603,-8.63,-8.5744,-8.5636,-8.5409,-8.4391,-8.5367,-8.6852,-8.8861,-8.9798,-9.1316,-9.386,-9.4083,-9.4217,-9.4618,-9.5734,-9.4921,-9.1964,-9.241,-8.9367,-8.1517,-8.1517,-7.931,-7.4494,-7.4861,-7.4861,-7.4494,-7.2791,-6.8995,-6.3201,-5.8043,-5.4599,-5.2513,-5.1996,-5.1902,-5.209,-5.1856,-5.0856,-4.891,-4.1304,-3.7093,-3.4559,-3.0225,-2.8489,-2.8223,-2.7118,-2.6186,-2.5657,-2.5282,-2.464,-2.4369,-2.4369,-2.4369,-2.398,-2.2457,-2.3153,-2.2696,-1.5883,-1.1387,-0.7621,-0.267,0.2703,0.6246,0.6246,0.7438,0.8638,0.903,1.0599,1.1775,1.2558,1.2558,1.2558,1.2558,1.6459,2.0041,2.2603,2.4322,2.7659,3.2238,3.5453,3.8631,4.1814,4.3948,4.5079,4.4748,4.4895,4.4913,4.473,4.473,4.473,4.473,4.6856,4.8247,4.9686,5.3324,5.6359,-5.9666,-5.9285,-6.1569,-6.592,-6.7008,-6.9619,0.0,-7.7886,-7.676,-8.5732,-8.7081,-8.7098,-8.7862,-8.8029,-8.6786,-8.3335,-8.2874,-8.2318,-8.164,-8.1614,-8.2184,-8.3237,-8.4264,-8.5647,-8.779,-8.9798,-9.1762,-9.377,-9.3993,-9.4484,-9.5422,-9.5179,-9.4191,-9.2639,-9.155,-8.7912,-8.1444,-8.0507,-7.8327,-7.4494,-7.4494,-7.4494,-7.4161,-7.0713,-6.6931,-6.3201,-5.5976,-5.2889,-5.2513,-5.2043,-5.2137,-5.2489,-5.1694,-4.9284,-4.5332,-3.7798,-3.4922,-3.3834,-2.9482,-2.821,-2.8053,-2.6197,-2.5623,-2.5437,-2.4672,-2.4305,-2.4316,-2.4295,-2.3907,-2.2766,-1.9349,-2.0733,-2.0596,-1.1986,-0.8993,-0.6749,-0.1879,0.3052,0.6188,0.6188,0.779,0.9015,0.9406,1.0981,1.2558,1.2558,1.2558,1.2558,1.2558,1.6459,1.8866,1.9049,2.3027,2.793,3.4756,3.8375,4.1554,4.4757,4.5483,4.5354,4.4619,4.495,4.5005,4.4674,4.4619,4.4601,4.4601,4.8892,5.1445,5.1445,5.5864,5.9751,0.0,0.0,0.0,0.0,0.0,0.0,0.0,-6.4141,-6.5554,-7.1142,-7.4258,-7.6694,-7.9323,-7.9952,-8.035,-8.0543,-8.0135,-7.9369,-7.8842,-8.004,-8.1204,-8.1363,-8.2255,-8.3951,-8.6719,-8.8772,-9.078,-9.2744,-9.3636,-9.4484,-9.5422,-9.3115,-9.0021,-8.6478,-8.4398,-8.0778,-7.5203,-7.5485,-7.5126,-7.4494,-7.4494,-7.4494,-7.4161,-7.0713,-6.6931,-6.3201,-5.9085,-5.5276,-5.2536,-5.2442,-5.2442,-5.216,-4.9197,-4.5627,-4.1755,-3.7076,-3.3123,-3.0225,-2.8765,-2.7719,-2.6679,-2.5564,-2.4994,-2.4414,-2.3851,-2.3936,-2.4041,-2.3851,-2.1561,-1.8953,-1.8205,-1.5954,-1.2969,-0.7045,-0.4851,-0.2628,0.2256,0.4935,0.6127,0.6127,0.7328,0.8539,0.9315,1.0545,1.177,1.2558,1.2558,1.2558,1.2558,1.6459,1.8866,1.9049,2.3027,2.7003,3.0622,3.5882,4.0387,4.35,4.394,4.3921,4.3756,4.3829,4.3995,4.4252,4.3921,4.3756,4.3756,4.6528,4.8457,5.036,5.3142,5.8234,0.0,0.0,0.0,0.0,0.0,0.0,0.0,0.0,0.0,0.0,0.0,-6.8948,-7.1743,0.0,-7.5453,-7.6173,-7.7049,-7.7712,-7.8462,-7.9042,-7.9354,-7.9354,-8.1541,-8.3773,-8.5737,-8.8191,-9.0066,-9.1048,-9.1583,-9.192,-9.1591,-8.9913,-8.7708,-8.4401,-8.166,-7.8603,-7.5248,-7.4292,-7.4128,-7.4494,-7.4494,-7.4494,-7.4161,-6.8657,-6.5227,-6.3201,-5.7695,-5.4272,-5.2536,-5.2536,-5.2536,-5.183,-4.6065,-4.1396,-3.7798,-3.3849,-3.1318,-2.9509,-2.8413,-2.7316,-2.6595,-2.5496,-2.4471,-2.3819,-2.3693,-2.3745,-2.384,-2.384,-2.0775,-1.7386,-1.5612,-1.3351,-0.9977,-0.296,-0.2228,-0.1491,0.336,0.5271,0.6066,0.6066,0.6874,0.8082,0.9283,0.9674,1.0447,1.2384,1.2384,1.2384,1.2384,1.5852,1.8917,2.0446,2.45,2.9252,3.3311,3.7047,4.0353,4.3446,4.3646,4.3517,4.3517,4.3333,4.3333,4.3536,4.3333,4.3131,4.2948,4.6144,4.8477,4.9601,5.3703,5.9155,0.0,0.0,0.0,0.0,0.0,0.0,0.0,0.0,0.0,0.0,0.0,0.0,0.0,0.0,0.0,-7.1391,-7.4176,-7.6944,-7.8551,-7.7926,-7.7525,-7.806,-8.0961,-8.3416,-8.4755,-8.7433,-8.9173,-8.9352,-8.9709,-8.9192,-8.7553,-8.6668,-8.5209,-8.2139,-7.9678,-7.7641,-7.6372,-7.4421,-7.3928,-7.4494,-7.4494,0.0,-7.3126,-6.662,-6.3201,-6.217,-5.53,-5.2536,-5.2536,-5.2536,-5.2536,-5.183,-4.4995,-3.9239,-3.4559,-3.0899,-2.9469,-2.9131,-2.7985,-2.6914,-2.6229,-2.5129,-2.4395,-2.3661,-2.3661,-2.3661,0.0,-2.3893,-2.0451,-1.5926,-1.3096,-1.0816,-0.7793,-0.0372,-0.0372,-0.0744,0.3354,0.5254,0.6034,0.6023,0.6824,0.7644,0.9231,0.918,0.9888,1.1761,1.214,1.214,1.214,1.5594,1.8996,2.1108,2.6038,3.163,3.6657,3.8387,4.037,4.3628,4.3499,4.315,4.3076,4.2764,4.2562,4.247,4.2768,4.2693,4.2231,4.6975,4.9031,4.9094,5.5185,5.9931,0.0,0.0,0.0,0.0,0.0,0.0,0.0,0.0,0.0,0.0,0.0,0.0,0.0,0.0,0.0,0.0,-7.2601,-7.6498,-7.6677,-7.5918,-7.6275,-7.8863,-7.9578,-8.0916,-8.3639,-8.5826,-8.7388,-8.8281,-8.9977,-8.9587,-8.6016,-8.3634,0.0,0.0,0.0,-7.369,-7.2888,-7.3762,-7.4428,-7.4494,-7.4494,-7.2791,-6.9333,-6.5257,-6.1825,-5.8365,-5.4248,-5.2536,-5.2536,-5.2536,-5.2536,-5.2183,-4.7844,-4.1736,-3.4528,-3.0664,-2.8935,-2.801,-2.6685,0.0,0.0,-2.4028,-2.3661,-2.3661,-2.3661,-2.3661,-2.3661,-2.3693,-1.8492,-1.2594,-1.1971,-0.6752,-0.1129,0.0,0.1141,0.2662,0.3044,0.457,0.6084,0.6031,0.6068,0.6856,0.8691,0.9802,1.0518,1.1907,1.1891,1.1891,1.1891,1.5834,1.8715,1.9228,2.5779,0.0,3.4598,3.6594,3.9422,4.3554,4.2544,4.1772,4.1423,4.1386,4.1166,4.0799,4.1845,4.2187,4.1809,4.7636,4.9705,4.8567,5.3694,5.851,0.0,0.0,0.0,0.0,0.0,0.0,0.0,0.0,0.0,0.0,0.0,0.0,0.0,0.0,0.0,0.0,-6.8336,-7.1499,-7.2035,-7.4757,-7.6721,-7.681,-7.8819,-8.0693,-8.1943,-8.4308,-8.596,-8.6406,-8.6909,-8.5672,-8.1885,-8.0054,-7.7316,-7.4316,-7.3219,-7.2538,-7.2339,-7.2621,-7.2797,-7.3263,-7.3662,-7.1808,-6.8073,-6.5081,-6.1481,-5.8017,-5.4272,-5.2536,-5.2536,-5.2536,-5.11,-4.8931,0.0,0.0,0.0,0.0,-2.8585,-2.7797,-2.66,-2.5551,-2.4927,-2.4718,-2.4028,-2.3661,-2.3661,-2.3661,-2.3693,-2.383,-1.8188,-1.1854,-1.1971,-0.5984,0.0,0.0755,0.1893,0.3412,0.3813,0.4963,0.6103,0.6076,0.647,0.0,0.8729,0.9819,1.0912,1.2055,1.2002,1.1981,1.205,1.479,1.7505,2.0482,2.6578,3.2217,3.6229,3.923,0.0,0.0,0.0,4.2599,4.2213,4.2195,0.0,0.0,0.0,4.185,4.1958,4.5252,0.0,0.0,5.3734,5.6927,0.0,0.0,0.0,0.0,0.0,0.0,0.0,0.0,0.0,0.0,0.0,0.0,0.0,0.0,0.0,0.0,-6.416,-6.7349,-6.7795,-7.1767,-7.4534,-7.4222,-7.7391,-7.9711,-7.9979,-8.2409,-8.4068,-8.5112,-8.349,-8.1262,-7.8034,-7.6122,-7.4178,-7.1635,-7.1149,-7.1343,-7.1883,-7.1417,-7.1465,-7.2031,-7.1753,-6.9746,-6.6065,-6.2976,-5.9776,-5.5872,-5.3282,-5.2325,-5.2325,-5.2325,-5.061,-4.7844,-4.2715,-4.0156,-3.8364,-3.1555,-2.8495,-2.7533,-2.6097,-2.5052,-2.443,-2.4674,-2.4395,-2.3661,-2.3661,-2.3661,-2.3693,-2.274,-1.7464,-1.1484,-1.085,-0.5231,0.0373,0.1131,0.2266,0.3407,0.4193,0.5345,0.6108,0.6108,0.7253,0.8379,0.9092,1.0161,1.1233,1.1971,1.1891,1.187,1.1955,1.4298,1.7713,2.1723,2.7829,3.3465,3.7769,4.0996,4.3168,4.3499,4.3205,4.3003,4.2948,4.2415,4.1882,4.1405,4.1293,4.1586,0.0,0.0,0.0,0.0,0.0,0.0,0.0,0.0,0.0,0.0,0.0,0.0,0.0,0.0,0.0,0.0,0.0,0.0,0.0,0.0,0.0,0.0,0.0,0.0,-6.4983,-6.5786,-6.7884,-7.1633,-7.4713,-7.69,-7.7882,-7.9433,-8.1643,-8.5023,-8.0122,-7.6701,-7.5712,-7.2928,-7.0462,-6.8307,-6.9435,-7.0167,-7.02,-7.0866,-7.1199,-7.1232,-6.8665,-6.5342,-6.1696,-5.8969,-5.5217,-5.1034,-5.1574,-5.1809,-5.1809,-5.1809,-5.209,-5.1408,-4.3805,-3.8322,-3.408,-2.9447,-2.7483,-2.6878,-2.51,-2.3829,-2.3344,-2.3576,-2.3661,-2.3661,-2.3661,-2.3661,-2.2916,-1.8852,-1.5153,-1.1114,-0.7114,-0.3006,0.0377,0.1142,0.2289,0.3435,0.4198,0.5345,0.6108,0.6108,0.7634,0.9104,0.8929,1.0379,1.1743,1.1414,1.1361,0.0,1.1361,1.5285,1.9306,2.2429,2.9517,3.5433,3.8501,4.0574,4.2286,4.3444,4.2433,4.2139,4.2911,4.1056,4.0192,4.0541,4.1066,4.1642,4.1984,0.0,0.0,0.0,0.0,0.0,0.0,0.0,0.0,0.0,0.0,0.0,0.0,0.0,0.0,0.0,0.0,0.0,0.0,0.0,0.0,0.0,0.0,0.0,0.0,-6.36,-6.7413,-6.7872,-7.1247,-7.2181,-6.8772,-7.3187,-7.5737,-7.4263,-7.5394,-7.5079,-7.2071,-7.015,-6.8526,-6.7171,-6.8203,-6.8935,-6.9401,-7.0134,-6.929,-6.6535,-6.5959,-6.2722,-5.6837,-5.6478,-5.4486,-5.0987,-5.1152,-5.1457,-5.1785,-5.1785,-5.005,-4.6776,-4.1758,-3.7347,-3.3724,-2.914,-2.6729,-2.5637,-2.4243,-2.3142,-2.2467,-2.3027,-2.3407,-2.3661,-2.3661,-2.3661,-2.2916,-1.8843,-1.4778,-1.1094,-0.7058,-0.2978,0.0374,0.1132,0.2268,0.3409,0.4194,0.5345,0.6108,0.6108,0.7891,0.9617,0.8814,1.0384,1.188,1.161,1.17,1.1822,1.1902,1.4254,1.7736,2.2281,2.8158,3.3264,3.7818,4.0258,4.2029,4.2709,4.2378,4.2268,4.2544,4.1625,4.1074,4.0945,4.0951,4.0622,4.0801,0.0,0.0,0.0,0.0,0.0,0.0,0.0,0.0,0.0,0.0,0.0,0.0,0.0,0.0,0.0,0.0,0.0,0.0,0.0,0.0,0.0,0.0,0.0,0.0,0.0,0.0,-6.6669,-6.8487,0.0,-6.3945,-6.6821,-6.7967,-6.6058,-6.7108,-6.7891,-6.777,-6.5804,-6.514,-6.5973,-6.6805,-6.7404,-6.787,-6.734,-6.5987,-6.3559,-6.2028,-5.8947,-5.4641,-5.3912,-5.2493,-5.0166,-5.0354,-5.0518,-5.0342,-4.9479,-4.6983,-4.3489,-3.8282,-3.452,-3.1963,-2.7094,-2.4897,-2.4331,-2.3659,-2.2633,-2.2234,-2.2699,-2.2219,-2.1219,-2.1141,-2.0296,-1.8412,-1.4222,-1.1483,-0.8341,-0.4752,-0.1474,0.0743,0.1869,0.2994,0.3749,0.4905,0.5637,0.6372,0.6417,0.8186,0.9479,0.892,1.1197,1.3071,1.1356,1.2581,1.2842,1.1992,1.4305,1.8072,2.3647,2.8213,3.3149,3.8762,4.0764,4.1919,4.2323,4.236,4.2286,4.2139,4.1735,4.1563,4.1213,4.1027,4.0259,0.0,0.0,0.0,0.0,0.0,0.0,0.0,0.0,0.0,0.0,0.0,0.0,0.0,0.0,0.0,0.0,0.0,0.0,0.0,0.0,0.0,0.0,0.0,0.0,0.0,0.0,0.0,-6.6746,-6.583,0.0,0.0,0.0,0.0,-6.0235,-5.6055,-5.6375,-6.2781,-5.9706,-5.9782,-6.4142,-6.5008,-6.5507,-6.5413,-6.3056,-6.217,-6.2171,-5.6554,-5.3966,-5.4184,-5.1126,-4.9533,-4.8664,-4.9181,-4.9157,-4.8407,-4.5252,-4.3408,-4.1578,-3.3534,-2.9744,-2.7977,-2.3831,-2.2402,-2.2525,-2.2493,-2.2477,-2.2477,-2.2128,-2.0094,-1.6996,-1.612,-1.3511,0.0,0.0,-0.4728,-0.4176,-0.0713,0.0728,0.1848,0.2593,0.3707,0.4819,0.5933,0.6576,0.6878,0.7353,0.8466,0.9011,0.9475,0.0,1.4702,1.1614,1.3474,1.459,1.2323,1.5438,2.0305,2.6124,3.0414,3.5422,4.1334,4.168,4.1846,4.2268,4.2305,4.2121,4.1717,4.1239,4.112,4.1216,4.1069,0.0,0.0,0.0,0.0,0.0,0.0,0.0,0.0,0.0,0.0,0.0,0.0,0.0,0.0,0.0,0.0,0.0,0.0,0.0,0.0,0.0,0.0,0.0,0.0,0.0,0.0,-5.2011,-5.4342,-5.7897,-5.6207,-5.2822,0.0,0.0,0.0,0.0,0.0,0.0,-5.3031,-5.3028,-5.4955,-5.8816,-5.9682,-6.0508,-6.1601,-6.1108,-5.8803,-5.4403,-5.3137,-5.1301,-4.8958,-4.8141,-4.7961,-4.8101,-4.8641,-4.9016,-4.8617,-4.1798,-3.7526,-3.4896,-2.9291,-2.5399,-2.2535,-2.1332,-2.0679,-2.0224,-2.0476,-2.0543,-2.0224,-1.7642,-1.6934,-1.6137,-1.2895,0.0,0.0,0.0,0.0,-0.32,0.0678,0.2082,0.2477,0.3676,0.4448,0.4819,0.5933,0.6279,0.6158,0.6501,0.8945,1.1115,1.0258,1.3754,0.0,1.6172,1.5628,1.5572,1.7516,1.9545,2.2865,2.7972,3.2803,3.7259,4.0933,4.1001,4.1001,4.1423,4.146,4.1405,4.1313,4.0775,3.9954,3.8689,0.0,0.0,0.0,0.0,0.0,0.0,0.0,0.0,0.0,0.0,0.0,0.0,0.0,0.0,0.0,0.0,0.0,0.0,0.0,0.0,0.0,0.0,0.0,0.0,0.0,0.0,0.0,-4.7316,-5.0278,-5.241,-4.9337,-4.5635,0.0,0.0,0.0,0.0,0.0,0.0,0.0,0.0,0.0,-5.1803,-5.1889,-5.2553,-5.3563,-5.3735,-5.2328,-4.9343,-4.9223,-4.8034,-4.6459,-4.6905,-4.7022,-4.6881,-4.7186,-4.6005,-4.3912,-3.776,-3.269,-2.8595,0.0,0.0,0.0,0.0,-1.6547,-1.6211,-1.6105,-1.597,-1.5506,-1.3586,0.0,0.0,0.0,0.0,0.0,0.0,0.0,-0.0305,0.159,0.2678,0.3505,0.4309,0.4696,0.5064,0.5811,0.6595,0.7541,0.8136,1.0577,1.2398,1.2498,1.538,0.0,0.0,0.0,1.6805,1.8724,2.0765,2.3921,2.8534,3.3607,3.7595,4.0514,4.0652,4.0688,4.1129,4.1148,4.11,4.054,3.9506,3.8715,0.0,0.0,0.0,0.0,0.0,0.0,0.0,0.0,0.0,0.0,0.0,0.0,0.0,0.0,0.0,0.0,0.0,0.0,0.0,0.0,0.0,0.0,0.0,0.0,0.0,0.0,0.0,0.0,0.0,-4.7595,-4.8124,0.0,0.0,0.0,0.0,0.0,0.0,0.0,0.0,0.0,0.0,0.0,0.0,0.0,-4.3232,-4.4032,-4.4238,-4.4331,-4.4711,-4.4163,-4.3653,-4.3682,-4.47,-4.4793,-4.4145,-4.343,0.0,-3.715,-3.251,0.0,0.0,0.0,0.0,0.0,0.0,0.0,0.0,0.0,0.0,0.0,0.0,0.0,0.0,0.0,0.0,0.0,0.0,0.0,0.0,0.0,0.0,0.4477,0.4466,0.516,0.5853,0.6513,0.8046,0.9806,1.095,1.2384,1.4008,0.0,0.0,0.0,0.0,0.0,0.0,1.9494,2.1611,2.4607,2.8727,3.3738,3.7714,4.0241,4.0596,4.0725,4.1056,4.0725,4.0372,3.9824,3.8394,0.0,0.0,0.0,0.0,0.0,0.0,0.0,0.0,0.0,0.0,0.0,0.0,0.0,0.0,0.0,0.0,0.0,0.0,0.0,0.0,0.0,0.0,0.0,0.0,0.0,0.0,0.0,0.0,0.0,0.0,0.0,0.0,0.0,0.0,0.0,0.0,0.0,0.0,0.0,0.0,0.0,0.0,0.0,0.0,0.0,0.0,0.0,0.0,0.0,0.0,-3.7154,-3.6455,-3.4015,-3.5195,-3.6454,-3.7279,-3.2824,-3.2264,-3.4375,-2.5357,0.0,0.0,0.0,0.0,0.0,0.0,0.0,0.0,0.0,0.0,0.0,0.0,0.0,0.0,0.0,0.0,0.0,0.0,0.0,0.0,0.0,0.0,0.472,0.5569,0.5715,0.6918,1.0336,0.0,0.0,0.0,0.0,0.0,0.0,0.0,0.0,0.0,0.0,0.0,2.4573,2.6737,2.9065,3.1569,3.7026,4.0678,4.1037,4.1037,4.0927,4.0633,3.9101,3.8118,0.0,0.0,0.0,0.0,0.0,0.0,0.0,0.0,0.0,0.0,0.0,0.0,0.0,0.0,0.0,0.0,0.0,0.0,0.0,0.0,0.0,0.0,0.0,0.0,0.0,0.0,0.0,0.0,0.0,0.0,0.0,0.0,0.0,0.0,0.0,0.0,0.0,0.0,0.0,0.0,0.0,0.0,0.0,0.0,0.0,0.0,0.0,0.0,0.0,0.0,0.0,0.0,0.0,0.0,0.0,0.0,0.0,0.0,-2.7843,-2.4661,0.0,0.0,0.0,0.0,0.0,0.0,0.0,0.0,0.0,0.0,0.0,0.0,0.0,0.0,0.0,0.0,0.0,0.0,0.0,0.0,0.0,0.0,0.0,0.0,0.0,0.0,0.0,0.0,0.0,0.0,0.0,0.0,0.0,0.0,0.0,0.0,0.0,0.0,0.0,0.0,2.7257,2.9803,3.186,3.4034,3.8002,4.0431,4.0211,4.0192,3.9914,3.8765,3.7814,0.0,0.0,0.0,0.0,0.0,0.0,0.0,0.0,0.0,0.0,0.0,0.0,0.0,0.0,0.0,0.0,0.0,0.0,0.0,0.0,0.0,0.0,0.0,0.0,0.0,0.0,0.0,0.0,0.0,0.0,0.0,0.0,0.0,0.0,0.0,0.0,0.0,0.0,0.0,0.0,0.0,0.0,0.0,0.0,0.0,0.0,0.0,0.0,0.0,0.0,0.0,0.0,0.0,0.0,0.0,0.0,0.0,0.0,0.0,-2.3791,-1.8022,0.0,0.0,0.0,0.0,0.0,0.0,0.0,0.0,0.0,0.0,0.0,0.0,0.0,0.0,0.0,0.0,0.0,0.0,0.0,0.0,0.0,0.0,0.0,0.0,0.0,0.0,0.0,0.0,0.0,0.0,0.0,0.0,0.0,0.0,0.0,0.0,0.0,0.0,0.0,0.0,2.8117,3.0693,3.2973,3.51,3.7905,3.9531,3.92,3.9182,3.8469,3.7251,3.6704,0.0,0.0,0.0,0.0,0.0,0.0,0.0,0.0,0.0,0.0,0.0,0.0,0.0,0.0,0.0,0.0,0.0,0.0,0.0,0.0,0.0,0.0,0.0,0.0,0.0,0.0,0.0,0.0,0.0,0.0,0.0,0.0,0.0,0.0,0.0,0.0,0.0,0.0,0.0,0.0,0.0,0.0,0.0,0.0,0.0,0.0,0.0,0.0,0.0,0.0,0.0,0.0,0.0,0.0,0.0,0.0,0.0,0.0,0.0,0.0,0.0,0.0,0.0,0.0,0.0,0.0,0.0,0.0,0.0,0.0,0.0,0.0,0.0,0.0,0.0,0.0,0.0,0.0,0.0,0.0,0.0,0.0,0.0,0.0,0.0,0.0,0.0,0.0,0.0,0.0,0.0,0.0,0.0,0.0,0.0,0.0,0.0,0.0,0.0,0.0,0.0,2.7109,2.9368,3.1614,3.4352,3.7114,3.8815,3.8778,3.8778,3.8061,3.681,0.0,0.0,0.0,0.0,0.0,0.0,0.0,0.0,0.0,0.0,0.0,0.0,0.0,0.0,0.0,0.0,0.0,0.0,0.0,0.0,0.0,0.0,0.0,0.0,0.0,0.0,0.0,0.0,0.0,0.0,0.0,0.0,0.0,0.0,0.0,0.0,0.0,0.0,0.0,0.0,0.0,0.0,0.0,0.0,0.0,0.0,0.0,0.0,0.0,0.0,0.0,0.0,0.0,0.0,0.0,0.0,0.0,0.0,0.0,0.0,0.0,0.0,0.0,0.0,0.0,0.0,0.0,0.0,0.0,0.0,0.0,0.0,0.0,0.0,0.0,0.0,0.0,0.0,0.0,0.0,0.0,0.0,0.0,0.0,0.0,0.0,0.0,0.0,0.0,0.0,0.0,0.0,0.0,0.0,0.0,0.0,0.0,0.0,0.0,0.0,0.0,0.0,2.9484,3.2881,3.4972,3.6306,3.7323,3.7804,3.7308,3.7272,3.6628,3.4553,0.0,0.0,0.0,0.0,0.0,0.0,0.0,0.0,0.0,0.0,0.0,0.0,0.0,0.0,0.0,0.0,0.0,0.0,0.0,0.0,0.0,0.0,0.0,0.0,0.0,0.0,0.0,0.0,0.0,0.0,0.0,0.0,0.0,0.0,0.0,0.0,0.0,0.0,0.0,0.0,0.0,0.0,0.0,0.0,0.0,0.0,0.0,0.0,0.0,0.0,0.0,0.0,0.0,0.0,0.0,0.0,0.0,0.0,0.0,0.0,0.0,0.0,0.0,0.0,0.0,0.0,0.0,0.0,0.0,0.0,0.0,0.0,0.0,0.0,0.0,0.0,0.0,0.0,0.0,0.0,0.0,0.0,0.0,0.0,0.0,0.0,0.0,0.0,0.0,0.0,0.0,0.0,0.0,0.0,0.0,0.0,0.0,0.0,0.0,0.0,0.0,0.0,3.0328,3.3605,3.5827,3.6794,3.6794,3.6574,3.5986,3.5839,3.4894,3.3295,0.0,0.0,0.0,0.0,0.0,0.0,0.0,0.0,0.0,0.0,0.0,0.0,0.0,0.0,0.0,0.0,0.0,0.0,0.0,0.0,0.0,0.0,0.0,0.0,0.0,0.0,0.0,0.0,0.0,0.0,0.0,0.0,0.0,0.0,0.0,0.0,0.0,0.0,0.0,0.0,0.0,0.0,0.0,0.0,0.0,0.0,0.0,0.0,0.0,0.0,0.0,0.0,0.0,0.0,0.0,0.0,0.0,0.0,0.0,0.0,0.0,0.0,0.0,0.0,0.0,0.0,0.0,0.0,0.0,0.0,0.0,0.0,0.0,0.0,0.0,0.0,0.0,0.0,0.0,0.0,0.0,0.0,0.0,0.0,0.0,0.0,0.0,0.0,0.0,0.0,0.0,0.0,0.0,0.0,0.0,0.0,0.0,0.0,0.0,0.0,0.0,0.0,2.8023,3.0062,3.2316,3.4797,3.5104,3.5104,3.5104,3.4718,3.397,0.0,0.0,0.0,0.0,0.0,0.0,0.0,0.0,0.0,0.0,0.0,0.0,0.0,0.0,0.0,0.0,0.0,0.0,0.0,0.0,0.0,0.0,0.0,0.0,0.0,0.0,0.0,0.0,0.0,0.0,0.0,0.0,0.0,0.0,0.0,0.0,0.0,0.0,0.0,0.0,0.0,0.0,0.0,0.0,0.0,0.0,0.0,0.0,0.0,0.0,0.0,0.0,0.0,0.0,0.0,0.0,0.0,0.0,0.0,0.0,0.0,0.0,0.0,0.0,0.0,0.0,0.0,0.0,0.0,0.0,0.0,0.0,0.0,0.0,0.0,0.0,0.0,0.0,0.0,0.0,0.0,0.0,0.0,0.0,0.0,0.0,0.0,0.0,0.0,0.0,0.0,0.0,0.0,0.0,0.0,0.0,0.0,0.0,0.0,0.0,0.0,0.0,0.0,2.7995,3.005,3.2357,3.4596,3.5086,3.4975,3.4681,3.4296,3.3954,3.3508,0.0,0.0,0.0,0.0,0.0,0.0,0.0,0.0,0.0,0.0,0.0,0.0,0.0,0.0,0.0,0.0,0.0,0.0,0.0,0.0,0.0,0.0,0.0,0.0,0.0,0.0,0.0,0.0,0.0,0.0,0.0,0.0,0.0,0.0,0.0,0.0,0.0,0.0,0.0,0.0,0.0,0.0,0.0,0.0,0.0,0.0,0.0,0.0,0.0,0.0,0.0,0.0,0.0,0.0,0.0,0.0,0.0,0.0,0.0,0.0,0.0,0.0,0.0,0.0,0.0,0.0,0.0,0.0,0.0,0.0,0.0,0.0,0.0,0.0,0.0,0.0,0.0,0.0,0.0,0.0,0.0,0.0,0.0,0.0,0.0,0.0,0.0,0.0,0.0,0.0,0.0,0.0,0.0,0.0,0.0,0.0,0.0,0.0,0.0,0.0,0.0,0.0,0.0,3.0218,3.2771,3.4443,3.4351,3.4057,3.4391,3.3699,3.3527,3.4209,0.0,0.0,0.0,0.0,0.0,0.0,0.0,0.0,0.0,0.0,0.0,0.0,0.0,0.0,0.0,0.0,0.0,0.0,0.0,0.0,0.0,0.0,0.0,0.0,0.0,0.0,0.0,0.0,0.0,0.0,0.0,0.0,0.0,0.0,0.0,0.0,0.0,0.0,0.0,0.0,0.0,0.0,0.0,0.0,0.0,0.0,0.0,0.0,0.0,0.0,0.0,0.0,0.0,0.0,0.0,0.0,0.0,0.0,0.0,0.0,0.0,0.0,0.0,0.0,0.0,0.0,0.0,0.0,0.0,0.0,0.0,0.0,0.0,0.0,0.0,0.0,0.0,0.0,0.0,0.0,0.0,0.0,0.0,0.0,0.0,0.0,0.0,0.0,0.0,0.0,0.0,0.0,0.0,0.0,0.0,0.0,0.0,0.0,0.0,0.0,0.0,0.0,0.0,3.0108,3.3102,3.3653,3.3028,3.3139,3.4276,3.3684,3.339,3.4633,3.2622,0.0,0.0,0.0,0.0,0.0,0.0,0.0,0.0,0.0,0.0,0.0,0.0,0.0,0.0,0.0,0.0,0.0,0.0,0.0,0.0,0.0,0.0,0.0,0.0,0.0,0.0,0.0,0.0,0.0,0.0,0.0,0.0,0.0,0.0,0.0,0.0,0.0,0.0,0.0,0.0,0.0,0.0,0.0,0.0,0.0,0.0,0.0,0.0,0.0,0.0,0.0,0.0,0.0,0.0,0.0,0.0,0.0,0.0,0.0,0.0,0.0,0.0,0.0,0.0,0.0,0.0,0.0,0.0,0.0,0.0,0.0,0.0,0.0,0.0,0.0,0.0,0.0,0.0,0.0,0.0,0.0,0.0,0.0,0.0,0.0,0.0,0.0,0.0,0.0,0.0,0.0,0.0,0.0,0.0,0.0,0.0,0.0,0.0,0.0,0.0,0.0,0.0,2.8656,3.0181,3.1853,3.2688,3.3387,3.3663,3.4144,3.4764,3.5683,3.2828,0.0,0.0,0.0,0.0,0.0,0.0,0.0,0.0,0.0,0.0,0.0,0.0,0.0,0.0,0.0,0.0,0.0,0.0,0.0,0.0,0.0,0.0,0.0,0.0,0.0,0.0,0.0,0.0,0.0,0.0,0.0,0.0,0.0,0.0,0.0,0.0,0.0,0.0,0.0,0.0,0.0,0.0,0.0,0.0,0.0,0.0,0.0,0.0,0.0,0.0,0.0,0.0,0.0,0.0,0.0,0.0,0.0,0.0,0.0,0.0,0.0,0.0,0.0,0.0,0.0,0.0,0.0,0.0,0.0,0.0,0.0,0.0,0.0,0.0,0.0,0.0,0.0,0.0,0.0,0.0,0.0,0.0,0.0,0.0,0.0,0.0,0.0,0.0,0.0,0.0,0.0,0.0,0.0,0.0,0.0,0.0,0.0,0.0,0.0,0.0,0.0,0.0,2.6429,2.8223,3.1896,3.3272,3.411,3.4647,3.4817,3.5239,3.5713,3.3356,0.0,0.0,0.0,0.0,0.0,0.0,0.0,0.0,0.0,0.0,0.0,0.0,0.0,0.0,0.0,0.0,0.0,0.0,0.0,0.0,0.0,0.0,0.0,0.0,0.0,0.0,0.0,0.0,0.0,0.0,0.0,0.0,0.0,0.0,0.0,0.0,0.0,0.0,0.0,0.0,0.0,0.0,0.0,0.0,0.0,0.0,0.0,0.0,0.0,0.0,0.0,0.0,0.0,0.0,0.0,0.0,0.0,0.0,0.0,0.0,0.0,0.0,0.0,0.0,0.0,0.0,0.0,0.0,0.0,0.0,0.0,0.0,0.0,0.0,0.0,0.0,0.0,0.0,0.0,0.0,0.0,0.0,0.0,0.0,0.0,0.0,0.0,0.0,0.0,0.0,0.0,0.0,0.0,0.0,0.0,0.0,0.0,0.0,0.0,0.0,0.0,0.0,0.0,2.7718,3.2368,3.3724,3.474,3.606,3.5542,3.5478,3.5663,0.0,0.0,0.0,0.0,0.0,0.0,0.0,0.0,0.0,0.0,0.0,0.0,0.0,0.0,0.0,0.0,0.0,0.0,0.0,0.0,0.0,0.0,0.0,0.0,0.0,0.0,0.0,0.0,0.0,0.0,0.0,0.0,0.0,0.0,0.0,0.0,0.0,0.0,0.0,0.0,0.0,0.0,0.0,0.0,0.0,0.0,0.0,0.0,0.0,0.0,0.0,0.0,0.0,0.0,0.0,0.0,0.0,0.0,0.0,0.0,0.0,0.0,0.0,0.0,0.0,0.0,0.0,0.0,0.0,0.0,0.0,0.0,0.0,0.0,0.0,0.0,0.0,0.0,0.0,0.0,0.0,0.0,0.0,0.0,0.0,0.0,0.0,0.0,0.0,0.0,0.0,0.0,0.0,0.0,0.0,0.0,0.0,0.0,0.0,0.0,0.0,0.0,0.0,0.0,2.9511,3.0329,3.3138,3.5024,3.5276,3.6167,3.6453,3.5874,0.0,0.0,0.0,0.0,0.0,0.0,0.0,0.0,0.0,0.0,0.0,0.0,0.0,0.0]}]]]